GFSMA_sfc_rhum_000.txt.gz
RH
98 95 58 52 55 55 55 51 48 50 46 44 41 47 50 43 58 64 72 67 57 58 58 55 53 52 52 55 59 58 59 58 57 57 57 60 61 65 65 67 72 75 76
63 51 54 58 52 56 48 44 49 51 45 45 37 44 51 43 58 49 56 62 52 58 51 50 50 49 51 53 51 52 54 54 54 53 52 55 59 57 58 64 65 65 66
43 48 52 52 51 49 44 43 43 50 44 40 39 45 49 45 43 40 42 55 58 53 49 49 50 50 52 51 51 51 50 51 49 50 53 56 55 55 57 65 66 67 67
41 46 53 52 48 48 47 44 49 48 50 48 45 46 50 46 42 33 40 51 48 45 50 47 49 50 50 48 49 50 48 49 51 54 56 53 52 56 57 58 60 61 62
41 50 51 49 47 50 49 46 46 52 56 45 36 45 51 51 42 30 42 42 38 45 51 43 49 50 48 47 47 47 48 47 45 44 47 51 50 52 52 53 54 54 55
44 50 49 46 45 49 48 45 47 49 62 58 45 44 56 63 47 38 46 37 39 42 50 41 57 56 49 47 46 46 46 45 44 46 50 49 49 52 54 54 54 54 53
43 47 50 47 47 48 47 46 50 51 49 60 62 55 61 58 57 49 39 44 40 40 47 42 48 56 59 50 46 42 44 44 47 50 50 51 50 53 54 55 55 54 54
42 42 46 46 43 45 44 46 50 49 50 59 57 70 59 50 47 27 41 42 37 45 41 34 41 44 56 57 54 44 43 45 50 52 53 52 54 55 55 56 56 55 55
42 42 42 44 45 48 50 50 49 47 52 50 62 49 44 53 64 54 42 45 30 49 44 49 44 45 53 54 52 52 48 46 48 52 53 55 55 55 56 57 57 56 54
42 42 41 42 44 47 43 43 40 50 52 53 56 43 52 58 57 61 49 30 45 32 48 52 44 52 54 51 51 49 49 46 48 50 52 55 56 57 58 58 57 56 55
40 40 39 39 41 47 42 40 43 43 51 52 56 58 59 60 66 63 48 47 38 36 36 43 56 40 38 49 56 57 51 46 49 51 55 58 59 59 59 58 57 57 55
43 37 36 38 37 40 40 44 42 41 46 47 52 53 57 57 60 59 62 50 49 43 39 37 41 49 51 56 52 50 51 48 49 55 59 59 59 59 59 59 58 57 57
40 36 34 34 36 37 40 41 43 44 45 48 48 50 56 58 58 61 62 60 58 49 48 46 45 51 43 49 52 56 50 49 52 56 60 62 58 57 57 59 60 59 58
38 34 33 32 33 35 38 40 48 48 44 51 46 50 54 55 58 61 66 68 69 60 47 58 52 52 56 54 58 50 45 51 52 55 58 58 56 57 58 58 58 58 58
30 32 32 33 35 37 39 41 48 46 49 50 51 52 53 56 63 68 70 75 77 80 66 64 70 55 63 59 59 48 49 54 54 54 55 55 60 59 56 56 55 56 56
31 31 33 35 37 39 41 44 48 48 47 51 47 51 53 61 66 73 78 74 77 82 88 63 63 62 63 54 56 52 54 57 57 58 61 59 54 53 54 55 55 55 55
31 34 36 37 39 42 44 46 47 44 50 52 53 56 57 62 72 75 76 76 79 82 89 73 63 63 62 56 53 56 61 64 68 75 61 54 54 54 56 56 57 60 64
35 37 38 40 43 46 47 46 46 50 54 56 56 62 66 50 70 74 75 77 78 77 83 86 77 65 61 60 63 75 65 61 67 56 58 56 56 56 57 61 69 66 67
38 39 41 44 46 48 45 44 49 54 57 58 61 64 66 71 75 75 74 75 75 68 76 80 74 66 66 75 72 70 73 69 52 55 57 58 60 61 64 63 60 61 63
39 42 46 46 48 46 42 43 55 59 60 59 61 66 68 72 74 74 72 67 62 68 65 70 74 79 83 86 74 66 61 59 61 53 62 64 62 61 61 62 61 60 60
44 47 47 48 49 43 32 55 58 64 63 65 66 64 65 68 61 56 52 60 63 69 77 94 95 91 74 63 65 64 67 67 70 66 62 60 61 62 63 65 63 64 65
48 50 50 51 52 37 49 50 52 68 65 66 72 69 70 68 67 64 65 65 66 98 94 85 83 72 66 66 65 74 88 85 86 62 68 75 67 66 63 62 65 66 65
52 53 53 53 53 53 50 52 53 66 67 72 69 68 65 55 69 71 75 72 94 68 64 64 68 68 70 73 95 93 90 90 83 70 75 87 67 68 60 54 65 66 67
55 55 55 55 56 47 54 53 56 67 72 73 70 72 74 72 73 70 76 93 78 76 62 55 64 72 82 68 64 64 81 91 82 67 63 91 69 70 61 61 68 69 68
56 57 54 57 59 62 57 57 59 69 69 71 68 72 75 76 70 68 73 78 65 63 55 66 75 66 64 66 68 75 92 93 84 69 63 73 71 74 69 68 64 68 64
52 53 53 59 62 64 62 60 58 68 76 70 70 76 70 64 64 74 64 61 78 70 86 83 62 65 66 69 68 68 83 96 93 91 62 88 83 82 90 64 72 64 67

GFSMA_sfc_rhum_003.txt.gz
RH
80 62 45 47 38 34 30 30 29 24 21 21 21 27 25 30 28 32 35 64 61 57 56 57 55 53 58 58 56 58 58 59 59 58 62 65 67 66 65 67 67 70 74
63 53 46 44 36 29 28 27 28 26 21 20 18 25 25 29 25 26 34 34 56 54 53 54 54 57 55 55 56 56 54 56 54 52 52 56 59 58 57 60 65 67 67
46 44 37 34 33 30 26 25 24 28 22 19 18 22 25 28 23 26 32 30 34 49 50 50 50 51 52 52 53 54 53 53 55 57 58 58 56 58 60 63 62 63 65
43 38 40 34 32 30 28 27 25 26 25 23 22 22 26 31 22 26 28 27 31 31 36 47 46 47 49 48 51 51 50 51 51 50 48 51 56 55 55 56 58 58 58
34 32 34 35 30 29 28 26 26 28 27 27 24 22 30 34 24 25 23 29 30 30 30 37 47 46 44 46 47 50 48 48 48 48 48 54 53 51 52 54 54 55 56
34 34 33 31 28 29 26 26 25 28 31 33 26 23 38 44 32 28 22 22 27 27 31 31 31 28 42 46 47 48 46 47 47 48 49 53 52 53 53 55 55 56 55
34 36 33 30 30 29 29 26 28 29 30 36 27 27 31 32 35 33 20 25 26 26 30 26 24 24 27 47 50 50 45 46 47 48 51 52 55 54 54 55 54 55 55
33 33 32 32 31 30 30 30 34 29 31 37 30 37 31 23 25 17 30 27 24 23 25 21 24 23 27 29 39 46 47 47 47 48 50 52 54 55 55 55 55 55 56
31 31 32 30 33 33 34 34 35 34 32 34 34 29 26 27 31 28 24 30 20 26 21 27 26 24 25 29 36 38 47 47 49 49 50 52 53 54 55 55 55 55 56
32 30 32 31 30 31 31 30 29 34 36 35 34 27 30 31 30 30 28 22 27 23 26 26 25 26 26 28 36 47 53 52 47 50 54 54 54 55 56 56 56 55 54
32 31 30 31 30 30 31 32 33 33 35 34 36 35 35 33 40 36 29 28 29 27 28 26 28 26 27 30 35 43 48 48 49 52 55 56 57 58 58 58 56 56 55
31 30 29 29 30 30 32 34 36 37 36 35 36 37 36 35 33 35 38 37 37 31 30 30 27 28 30 33 39 49 48 49 50 54 58 60 59 59 61 62 63 63 66
30 29 28 26 28 33 35 35 36 36 35 36 35 34 37 37 36 39 46 44 43 36 32 28 29 31 32 36 34 47 50 52 53 57 60 60 57 57 59 62 64 73 71
28 27 27 26 28 29 31 33 36 37 36 37 37 37 37 36 38 43 48 50 50 35 30 30 31 34 35 38 45 52 39 49 50 53 56 57 54 52 54 67 66 65 63
26 26 27 28 29 30 31 33 33 33 35 37 37 38 38 39 41 45 49 49 52 53 48 35 40 36 40 40 43 37 36 47 51 51 49 50 53 60 65 61 54 55 56
25 27 28 29 30 31 31 32 33 34 35 37 36 39 39 41 43 48 52 51 52 56 61 45 46 44 42 40 44 39 39 52 53 55 55 54 56 54 54 56 56 56 58
25 27 28 30 31 31 31 30 32 35 39 40 40 44 44 44 46 49 52 53 55 56 63 54 48 46 45 44 39 42 46 46 49 58 56 56 56 57 60 64 64 65 64
27 29 31 33 32 32 30 30 37 40 42 43 44 49 49 42 50 50 53 54 54 54 61 67 57 52 47 45 48 55 52 42 42 52 57 57 57 57 57 62 67 69 68
30 32 34 33 32 33 30 31 38 42 45 45 46 46 47 49 50 50 53 55 55 52 58 66 62 52 53 58 69 52 44 41 36 50 56 58 60 61 62 63 62 63 63
34 35 34 35 35 32 31 34 44 45 48 48 48 48 49 51 52 54 54 53 52 53 56 60 68 81 68 56 53 50 50 49 49 44 54 57 59 59 60 61 61 61 62
37 36 35 36 35 33 29 44 47 48 51 50 49 48 49 56 63 57 51 56 57 63 80 93 78 69 62 52 53 53 57 59 60 56 54 52 50 52 54 61 60 63 64
38 37 37 37 38 32 49 50 49 48 51 51 51 49 51 63 62 66 65 65 66 95 94 84 76 59 52 52 54 65 77 77 79 50 54 60 54 55 52 51 61 64 65
38 38 37 38 39 40 50 52 53 47 52 52 55 54 54 51 64 60 67 72 95 69 63 59 56 54 59 62 91 89 80 74 72 61 64 72 55 58 50 45 62 64 66
38 38 39 41 43 41 55 54 57 50 52 54 56 55 57 59 63 65 66 95 69 57 50 49 54 62 75 66 60 61 72 83 70 57 54 81 56 58 51 51 64 66 67
39 41 41 44 46 49 56 58 56 52 53 54 54 55 59 59 63 62 74 79 53 51 51 63 74 69 65 65 66 70 84 89 79 60 53 63 60 62 59 60 54 62 64
41 41 44 47 56 49 60 60 56 52 56 54 54 55 63 60 62 70 63 54 68 61 80 74 50 51 56 56 67 59 78 95 90 88 50 82 71 70 80 48 51 56 55

GFSMA_sfc_rhum_006.txt.gz
RH
59 52 42 38 33 29 26 24 20 16 15 15 14 17 18 17 19 22 28 63 58 57 58 58 58 60 58 59 60 60 58 60 59 56 56 58 63 62 61 60 64 69 69
57 46 42 38 29 22 18 17 18 18 16 15 15 14 17 18 19 22 24 33 54 54 52 52 52 54 54 54 56 56 56 55 58 60 61 61 61 60 61 60 64 68 69
47 39 36 29 22 20 18 18 16 18 17 15 15 15 16 18 19 22 22 23 28 49 49 49 46 47 48 50 51 51 52 53 55 55 55 54 59 60 59 59 61 62 63
42 35 30 26 22 21 20 19 18 18 19 18 17 16 17 19 18 18 20 19 23 21 28 44 46 44 44 43 46 48 49 48 51 52 51 51 51 53 55 55 56 56 57
33 26 25 24 21 20 20 18 19 20 21 20 17 14 21 22 20 17 18 20 24 23 23 31 36 34 39 46 47 48 49 48 49 49 50 51 52 56 55 54 55 56 57
27 24 24 22 20 22 20 19 20 21 23 21 17 16 26 29 24 24 21 15 19 21 22 25 21 22 31 37 46 48 48 47 48 48 49 50 55 55 55 55 55 55 56
29 26 23 22 22 22 22 20 21 23 23 22 19 20 21 21 28 22 17 18 19 19 18 18 19 20 19 32 35 43 50 49 49 49 49 51 52 54 55 56 55 55 55
28 26 25 24 24 24 24 24 27 23 22 24 24 26 23 19 18 16 20 17 18 17 18 19 21 20 22 22 30 43 44 49 52 53 53 52 51 54 55 55 55 55 54
24 24 25 24 26 26 28 27 26 25 24 24 25 24 22 23 22 18 19 20 18 18 20 22 21 21 22 22 28 31 41 53 54 54 54 53 55 55 55 55 55 54 54
24 22 23 23 24 24 26 22 21 25 26 27 26 19 22 23 24 25 20 18 19 19 22 22 22 22 22 23 31 37 43 49 52 55 55 55 56 57 57 56 56 58 57
24 23 22 24 24 23 24 24 26 25 26 26 28 27 25 25 26 31 29 25 23 22 22 23 22 22 22 24 27 33 46 51 56 58 59 58 57 57 58 57 56 60 66
23 22 22 23 23 23 25 27 30 30 29 27 27 28 29 30 28 30 31 30 30 26 24 22 23 23 24 27 31 44 49 54 58 60 61 61 60 58 58 58 61 66 66
24 24 22 21 22 26 28 28 30 29 28 28 28 27 28 29 28 30 34 34 34 28 22 21 21 21 24 28 29 44 52 54 53 56 59 60 57 56 57 58 60 59 57
22 22 21 20 20 22 24 26 27 29 28 28 32 32 31 30 31 33 36 40 39 28 23 21 21 23 26 29 38 48 36 47 49 53 56 55 53 52 53 56 58 60 65
20 21 21 21 22 23 24 25 25 25 26 29 30 31 32 32 33 33 35 37 40 41 35 27 27 25 29 31 36 33 33 44 49 52 54 55 55 56 56 57 57 60 61
19 21 21 22 23 24 24 24 24 26 26 28 29 32 32 31 32 34 38 37 38 42 45 32 31 31 32 30 36 34 34 48 52 54 54 53 54 55 57 56 57 57 59
19 20 20 21 22 23 22 22 24 27 30 31 33 36 37 34 34 33 35 36 39 41 46 40 34 34 36 37 35 37 41 42 41 49 50 51 53 55 58 60 61 60 60
19 20 21 23 23 23 21 22 26 29 32 34 34 40 40 28 34 33 36 37 39 39 44 51 44 42 41 40 44 46 38 31 32 39 49 54 56 57 58 59 61 64 66
22 23 24 24 23 25 23 22 27 30 32 34 36 36 34 32 34 34 36 40 43 39 44 51 50 45 48 52 52 42 36 34 30 45 50 53 56 58 60 60 59 59 60
25 25 25 25 26 25 25 26 32 33 34 37 39 39 35 37 39 41 42 43 41 47 47 51 58 77 65 50 45 42 42 43 44 38 47 52 55 56 57 57 59 60 60
26 26 26 26 26 26 22 37 38 38 38 37 36 36 37 44 58 57 50 50 51 57 68 83 88 68 58 45 42 44 50 54 53 51 49 46 43 46 49 56 55 58 58
28 27 28 28 29 24 45 49 49 39 37 38 38 36 37 50 48 57 57 60 61 77 98 86 75 56 44 42 46 58 72 73 73 47 49 54 49 50 48 47 55 58 60
28 28 27 28 28 29 47 52 54 42 40 39 44 45 43 37 52 45 59 62 72 86 64 56 51 44 50 53 82 91 75 71 68 57 59 64 49 51 46 40 58 60 63
27 27 28 28 30 29 53 54 57 42 39 41 44 42 42 45 48 55 59 81 70 52 41 40 46 54 67 69 60 58 66 75 66 53 52 73 50 53 47 48 60 62 63
27 28 29 30 29 30 46 57 55 42 39 41 40 40 46 52 57 60 71 86 48 41 43 54 64 71 62 61 60 65 84 86 77 58 50 57 53 58 55 55 46 49 55
30 29 30 29 36 32 42 57 54 43 42 40 39 40 50 56 58 70 64 49 56 48 63 73 46 46 48 48 57 53 74 95 88 87 50 74 70 66 76 47 46 53 54

GFSMA_sfc_rhum_009.txt.gz
RH
53 50 47 43 38 34 30 26 20 18 17 17 15 15 17 17 18 22 39 65 58 57 57 57 58 57 57 57 59 59 59 59 61 62 64 64 65 63 63 64 63 67 70
58 48 42 38 32 26 20 19 19 19 18 16 15 14 16 17 18 22 27 45 52 53 51 50 49 49 49 49 50 51 53 53 55 57 57 58 58 61 62 61 63 65 64
48 43 37 32 26 22 20 20 17 18 19 16 16 16 17 17 19 21 25 27 42 52 46 45 45 44 45 46 45 46 46 50 49 52 53 52 52 53 54 58 59 60 60
44 38 34 30 24 23 22 21 20 22 22 21 20 17 18 20 19 19 23 22 29 24 42 38 38 39 40 46 48 48 48 49 49 50 51 52 52 53 56 57 56 55 56
37 33 32 27 22 24 23 21 24 24 25 25 21 19 26 26 23 18 20 22 26 28 29 38 36 37 32 36 44 48 51 51 51 50 51 52 52 53 55 56 56 56 56
32 32 26 24 24 26 25 25 25 24 25 25 17 19 30 30 27 25 25 15 21 24 26 30 29 29 36 32 37 41 49 52 51 51 52 53 52 53 53 56 56 56 56
32 33 27 25 27 28 27 25 26 27 27 26 27 28 27 22 28 29 19 20 21 20 22 23 26 27 25 33 33 39 46 49 52 55 55 55 55 54 53 54 54 55 55
34 32 30 29 28 30 30 29 31 27 28 28 28 35 32 26 23 20 23 20 20 23 23 23 25 25 29 30 36 38 41 50 56 56 56 56 57 56 56 56 55 54 54
33 32 30 29 31 33 34 32 30 29 31 31 28 30 33 33 28 26 26 23 23 24 23 27 25 25 26 29 33 35 38 46 54 59 58 57 57 56 56 56 55 55 54
35 30 28 28 29 30 31 27 24 28 32 33 30 21 24 25 30 31 28 25 23 20 25 27 26 26 26 28 33 37 39 49 55 59 63 62 62 60 58 57 56 55 54
34 29 26 29 28 28 28 29 29 27 28 29 32 32 29 29 28 33 37 32 28 26 26 26 26 25 26 29 33 37 42 49 56 62 63 63 61 60 59 57 56 56 57
33 26 26 28 27 28 30 31 33 32 30 30 30 31 32 34 33 36 38 35 35 31 27 26 26 27 28 30 32 40 44 51 58 60 61 61 60 59 59 59 58 59 60
30 28 27 26 26 30 30 30 32 31 30 31 30 30 30 32 31 33 38 40 40 34 30 24 22 24 21 30 32 41 47 50 51 56 59 60 58 57 57 58 58 58 58
27 26 25 24 24 24 26 27 30 32 29 32 36 37 36 34 35 37 40 44 47 40 32 27 25 24 30 29 36 43 38 46 48 52 55 56 55 56 56 58 58 58 58
24 24 24 23 23 23 24 25 27 26 28 31 34 35 36 36 37 38 38 41 46 51 45 34 32 30 31 31 36 34 35 44 48 51 53 54 54 55 55 55 56 58 59
22 24 23 23 23 23 23 24 26 25 26 30 32 33 34 35 35 38 41 40 41 46 51 38 37 34 33 31 37 36 38 48 50 51 52 52 52 52 53 55 56 58 63
22 22 22 22 22 23 22 22 23 26 29 30 33 38 38 37 38 36 39 39 42 44 50 44 40 38 40 41 38 42 48 44 44 49 49 48 50 52 55 57 59 60 61
20 21 21 22 22 22 21 21 23 26 29 32 33 43 44 29 35 35 38 38 41 41 49 53 48 47 46 42 46 56 46 36 38 39 47 51 53 54 55 57 58 61 60
21 22 23 24 22 24 23 22 22 25 28 31 34 35 37 36 35 36 39 43 47 42 48 54 55 49 51 60 64 49 44 41 33 45 49 52 54 56 57 57 57 57 57
24 24 24 24 25 23 24 24 28 31 33 36 36 38 36 39 39 42 48 51 48 54 54 58 64 72 80 62 53 50 48 48 51 42 51 52 55 55 55 54 57 58 59
25 25 25 25 25 25 22 37 38 39 38 36 36 34 36 42 48 52 52 57 57 61 71 83 83 88 65 55 52 50 55 60 62 61 56 54 52 52 54 56 55 56 57
28 27 27 26 27 22 45 49 51 45 39 37 37 35 37 49 45 49 53 54 56 72 85 93 87 66 61 50 52 65 76 91 81 56 59 59 57 59 55 53 54 56 58
28 28 26 26 25 27 44 51 54 46 42 40 46 48 45 36 51 46 51 55 64 67 70 59 59 53 55 57 77 88 83 75 76 64 64 73 60 60 54 45 56 58 62
27 26 25 26 29 28 46 50 56 47 39 40 47 42 43 44 50 52 58 77 75 68 53 42 50 54 64 76 95 72 68 76 69 64 61 80 60 62 55 56 62 62 62
26 25 27 28 28 26 39 49 54 46 41 41 38 39 41 46 50 56 62 84 67 52 45 51 56 64 62 57 56 61 81 86 85 69 60 70 65 70 65 65 58 53 54
29 29 30 27 28 30 34 46 52 46 46 43 41 41 47 48 54 56 66 60 66 57 60 69 62 53 50 51 54 55 73 96 92 90 61 80 82 78 87 59 60 61 63

GFSMA_sfc_rhum_012.txt.gz
RH
77 73 67 66 56 45 39 34 31 30 28 25 22 22 24 26 27 49 79 69 59 57 56 55 54 53 51 51 51 53 55 55 56 58 58 59 60 61 63 63 63 65 66
69 63 58 54 42 36 32 31 28 30 29 27 26 23 24 27 28 34 62 66 54 50 48 47 46 47 47 47 46 46 47 50 51 51 53 53 53 54 55 55 59 62 61
53 59 54 47 39 35 31 31 29 33 34 30 31 28 25 26 29 30 38 58 57 56 44 41 41 41 42 45 48 49 48 50 50 51 51 53 54 54 54 54 57 57 56
56 54 51 44 37 35 36 35 36 39 39 37 34 29 30 30 28 30 30 35 38 42 45 36 34 34 36 39 45 46 49 52 53 54 53 54 53 54 53 55 57 57 57
47 45 43 39 36 39 38 36 40 40 40 39 30 27 41 41 32 24 28 30 33 32 37 37 39 38 34 35 41 44 48 52 52 52 54 54 56 55 55 56 56 56 56
41 43 38 37 39 43 42 40 39 40 39 39 25 29 40 41 36 37 32 25 29 28 32 33 39 39 36 36 39 40 46 47 51 56 57 56 57 57 56 56 55 55 55
46 39 37 41 44 43 41 37 40 38 43 43 43 42 42 36 42 46 28 30 29 27 30 32 37 38 39 35 36 39 42 47 54 56 58 58 58 58 58 58 56 55 54
41 34 36 43 43 47 43 41 40 44 44 43 43 50 45 41 35 28 33 27 28 31 30 30 32 31 38 42 44 36 41 46 53 58 58 59 60 60 60 58 56 55 55
39 35 37 40 49 53 51 44 42 39 47 46 36 43 46 50 44 40 35 32 31 33 33 38 32 32 32 38 43 43 38 43 53 58 59 62 61 61 60 59 58 56 55
38 35 42 39 47 51 43 40 36 41 46 46 46 31 35 38 47 48 44 39 38 33 38 40 38 34 32 40 40 40 39 42 52 57 61 62 61 60 59 58 57 56 55
34 36 35 38 44 46 40 40 41 39 42 46 48 47 43 45 42 49 56 50 44 41 40 41 39 37 33 34 42 41 39 46 52 58 61 61 60 59 58 57 59 59 61
36 34 34 38 43 44 43 45 44 42 42 42 44 45 48 50 50 52 57 53 51 46 44 37 40 39 40 40 35 38 41 45 51 55 58 59 58 58 58 58 57 56 58
37 37 37 41 45 45 45 45 45 44 41 44 41 46 46 47 47 49 55 59 61 52 48 42 38 37 29 43 43 42 44 46 49 54 58 59 57 56 57 58 58 60 60
34 35 35 39 38 38 40 42 46 46 41 46 43 48 52 51 51 53 56 63 60 61 50 48 38 40 43 45 44 43 47 47 49 52 56 56 54 54 55 56 56 58 57
30 33 32 36 35 35 36 37 43 40 38 42 45 48 52 53 54 55 56 57 65 63 57 55 52 40 46 43 48 40 40 47 49 53 54 53 52 53 53 54 54 55 55
26 29 33 35 34 33 33 35 36 33 35 43 44 44 48 52 53 56 58 58 60 66 61 50 50 51 48 39 43 42 44 48 56 57 53 53 52 51 52 54 56 59 61
27 28 34 34 32 32 31 32 32 33 36 41 44 48 50 50 56 54 55 56 59 63 62 50 49 51 58 56 48 47 54 58 56 54 51 51 50 52 54 56 58 58 60
26 28 32 32 30 30 27 28 31 34 38 41 44 50 54 38 50 50 56 55 59 59 63 64 60 58 60 53 54 70 62 45 44 47 48 51 53 55 56 57 58 60 61
27 31 32 32 31 33 29 29 31 34 38 42 45 48 50 50 54 54 56 65 69 55 71 70 68 61 61 65 82 66 55 52 43 48 51 55 58 59 59 58 57 57 58
33 34 34 33 34 31 30 32 38 44 48 49 50 51 50 51 54 57 61 68 62 76 73 74 76 82 80 89 67 64 60 57 59 49 56 62 59 59 59 57 61 61 60
34 33 33 33 33 31 33 51 54 56 54 52 50 46 46 53 49 51 53 72 73 78 82 90 82 85 83 68 71 64 63 63 67 72 68 61 62 58 59 62 61 61 60
36 34 34 34 35 25 46 49 53 61 59 55 54 51 51 56 56 49 51 53 55 74 83 87 96 71 72 65 64 65 74 85 92 65 78 67 62 64 64 62 61 60 61
35 34 34 32 32 48 48 47 50 61 63 62 62 60 56 41 58 62 58 55 63 66 65 66 69 62 63 64 80 88 92 96 83 70 72 79 66 69 62 52 63 63 63
36 35 32 32 36 40 46 47 53 63 60 57 59 56 57 57 61 56 67 85 86 89 80 58 58 59 68 65 78 76 70 77 72 69 71 90 67 69 63 63 66 67 67
33 33 34 34 35 42 42 43 54 65 62 61 53 53 54 59 54 52 67 92 86 71 56 57 58 63 65 61 57 61 81 85 85 73 68 76 74 76 72 70 66 65 59
34 35 35 36 38 41 35 40 50 62 71 66 63 58 56 53 56 56 62 68 77 70 69 73 70 65 61 63 59 62 85 93 92 90 68 92 84 85 87 63 69 64 69

GFSMA_sfc_rhum_015.txt.gz
RH
85 88 85 75 55 45 37 35 33 31 30 26 25 24 27 30 58 75 87 72 62 56 53 51 50 50 49 48 48 49 50 52 52 53 54 54 54 56 58 58 58 63 64
85 74 59 51 40 36 35 31 31 34 34 32 30 28 28 31 39 67 67 73 54 47 45 45 43 44 45 47 49 51 51 53 53 53 53 54 54 55 54 56 55 57 58
60 60 53 43 39 36 31 32 37 39 38 33 32 28 32 30 32 54 60 64 63 60 44 39 39 38 41 44 46 47 49 54 55 55 54 55 55 56 56 55 57 56 58
57 55 48 44 40 38 37 38 40 41 40 39 35 32 37 34 33 35 46 52 52 53 44 38 36 38 39 40 45 45 49 52 53 54 56 57 57 57 57 56 56 58 56
50 48 46 43 38 40 43 38 44 41 40 40 33 31 46 46 35 30 34 38 39 38 39 41 43 40 37 41 44 44 47 49 51 58 58 58 59 59 59 58 57 56 57
46 43 41 41 42 45 45 43 41 44 42 43 29 36 43 47 40 42 31 31 32 33 34 33 40 39 38 37 40 41 45 47 50 55 58 59 59 59 59 58 58 58 56
39 40 40 41 46 44 44 40 41 38 45 46 42 44 47 42 45 47 34 34 29 32 31 36 38 40 41 38 37 38 41 45 49 55 57 59 60 60 60 59 58 57 56
45 39 41 45 43 48 43 40 43 47 48 47 42 56 45 43 37 34 38 30 34 36 34 34 35 35 38 40 47 34 36 43 47 54 57 59 59 60 59 58 57 56 56
40 40 41 40 48 48 51 44 43 44 48 49 41 45 41 47 47 44 39 40 36 40 43 42 36 35 35 38 43 43 36 40 45 54 56 58 59 59 58 57 56 56 55
45 41 41 40 47 51 44 43 40 46 51 46 50 37 40 42 43 39 45 45 45 38 43 46 44 39 37 42 40 39 36 38 48 53 56 59 59 58 57 56 56 55 58
38 38 39 42 46 46 39 42 42 42 46 50 51 49 47 51 48 49 53 52 48 45 46 46 44 45 42 42 47 44 40 44 47 52 56 58 58 58 57 55 55 58 59
43 38 38 44 37 38 40 48 47 43 46 46 50 50 51 51 52 54 59 59 56 52 48 46 47 45 45 49 38 45 44 46 49 52 55 58 58 57 57 57 59 58 58
44 39 38 38 40 46 48 51 50 46 44 48 44 50 51 51 52 54 59 64 67 61 54 50 47 46 37 50 50 45 47 49 50 54 58 59 57 57 57 57 57 57 56
43 36 36 41 40 43 47 48 52 52 45 50 46 51 54 54 56 57 58 64 70 67 60 55 49 50 49 52 46 47 52 50 52 53 57 57 57 56 55 57 57 56 56
42 35 36 37 39 43 44 45 48 39 41 47 48 51 55 57 58 59 61 63 66 72 59 62 58 50 54 53 52 47 49 50 53 54 57 58 55 54 54 54 54 55 58
34 36 38 37 39 36 40 43 42 39 39 46 50 48 51 56 56 60 62 61 64 70 69 59 58 58 54 47 51 48 48 54 59 62 58 54 54 54 53 54 56 58 59
41 36 33 33 39 38 37 40 39 39 39 41 47 50 52 53 58 58 58 59 61 68 72 62 60 64 67 66 56 53 56 65 63 56 55 54 53 54 56 57 57 58 59
38 40 34 35 32 35 33 33 34 36 39 42 45 52 54 41 53 55 58 59 66 69 77 72 75 68 68 62 61 68 64 55 54 52 53 54 56 57 58 60 60 59 58
38 36 33 32 32 35 32 32 34 37 41 45 48 50 51 54 57 60 59 68 74 59 78 82 77 69 69 72 78 82 66 60 50 51 54 58 61 64 63 61 61 60 61
38 31 31 33 38 35 34 42 46 53 54 54 52 55 54 55 58 60 61 67 65 80 84 85 81 84 83 80 88 77 69 62 58 47 55 63 65 62 62 62 63 63 64
32 32 32 36 37 37 37 53 57 59 58 55 55 51 51 55 50 53 56 73 78 84 86 94 93 87 87 69 73 67 68 64 65 69 72 74 66 63 63 65 63 66 66
34 33 37 38 34 36 53 55 58 60 59 61 64 60 56 58 56 50 50 51 54 83 95 97 89 84 78 69 64 69 75 83 90 72 80 72 66 67 66 66 66 64 64
35 38 37 34 43 53 53 52 54 60 67 68 65 64 60 46 59 63 61 54 60 59 64 72 83 79 74 67 78 90 96 94 84 72 73 78 68 71 65 56 65 67 68
36 33 33 38 48 51 53 51 55 67 67 63 64 62 63 63 65 63 70 82 82 85 85 77 75 70 72 68 77 70 71 78 74 67 68 86 69 70 65 66 68 69 69
39 36 40 37 46 55 44 46 58 65 65 69 63 65 64 65 60 56 68 90 84 81 61 60 59 64 66 62 61 67 83 88 85 72 65 77 74 79 72 71 66 68 62
40 38 37 37 42 41 37 37 49 64 72 71 68 66 65 60 58 58 68 78 82 77 74 77 78 70 62 68 63 68 82 94 94 92 68 91 84 82 89 68 68 67 69

GFSMA_sfc_rhum_018.txt.gz
RH
93 98 98 98 95 75 42 38 34 32 31 29 29 26 32 57 79 84 94 74 62 55 52 50 48 47 47 48 50 52 53 54 55 55 55 56 56 56 57 58 59 58 61
90 96 94 78 49 40 37 33 34 36 37 35 31 29 32 44 74 75 81 73 58 49 45 42 42 42 44 47 48 49 52 56 57 56 56 57 57 58 57 57 56 58 58
84 80 66 49 42 37 32 36 40 39 38 32 32 29 34 36 63 64 69 66 66 60 42 40 41 41 42 45 48 48 52 54 54 56 59 59 59 58 58 58 58 58 60
66 59 48 45 42 38 38 40 42 40 40 38 36 32 42 37 48 61 61 59 63 51 47 40 39 39 41 44 47 47 48 50 52 59 58 60 60 60 60 60 59 58 58
58 48 43 46 40 41 42 40 45 40 37 39 34 38 52 46 40 36 46 41 47 43 43 42 41 39 38 40 42 43 44 47 51 54 58 59 59 58 58 58 58 58 58
55 44 44 40 41 46 46 44 43 44 43 44 33 39 45 50 44 41 40 34 37 35 36 37 42 44 38 37 38 39 42 46 47 52 56 58 58 58 58 57 57 57 57
48 41 40 39 45 44 44 40 43 38 46 47 44 48 48 46 50 44 38 38 35 36 37 39 41 43 41 39 36 36 38 41 45 48 54 57 57 58 58 57 56 55 55
42 36 37 43 46 48 45 44 45 49 48 48 47 57 45 42 40 40 41 35 39 40 41 38 39 38 41 43 48 32 33 38 44 46 53 56 56 57 56 56 55 54 54
40 36 39 44 48 51 50 43 46 45 49 48 44 46 51 46 46 45 43 43 42 46 46 46 41 39 40 44 47 45 38 37 42 48 53 55 55 56 57 56 55 54 54
41 39 41 42 47 50 42 44 43 50 51 48 51 39 43 44 39 34 44 47 48 40 46 50 47 45 43 48 46 46 44 42 46 50 53 56 55 57 58 56 55 54 56
41 42 42 48 48 48 41 42 43 47 49 53 52 52 49 56 50 49 46 50 50 48 49 49 50 48 46 50 53 52 47 48 51 54 57 57 58 58 58 56 56 57 58
46 42 44 46 42 39 39 43 42 40 49 50 53 52 52 51 53 54 57 59 56 54 52 51 50 50 52 52 42 48 49 50 54 56 60 59 58 58 57 56 58 56 56
51 49 46 45 44 48 46 47 47 42 47 48 47 53 53 52 54 56 59 62 64 62 55 53 49 52 40 55 56 48 50 52 54 58 61 61 58 57 57 58 58 58 56
59 54 44 41 44 44 45 47 51 49 49 52 49 54 58 57 58 59 60 63 68 68 64 53 54 54 54 54 51 52 59 54 55 56 60 60 58 58 58 57 57 56 55
61 53 46 47 44 44 44 42 47 45 48 52 51 54 57 62 62 63 64 66 65 69 69 62 59 55 56 58 58 51 58 54 57 59 61 60 57 56 57 56 57 57 56
53 50 44 46 46 41 39 43 46 45 45 51 54 52 53 58 58 64 64 65 70 69 71 66 62 62 60 53 55 52 56 60 63 62 60 57 57 56 56 57 57 57 60
48 40 42 45 42 40 38 37 45 39 42 46 51 50 51 55 60 62 61 61 64 71 76 71 67 68 74 72 64 63 63 64 68 63 60 58 57 58 58 58 59 59 59
44 43 44 42 40 46 45 35 36 40 42 46 47 56 55 46 56 57 61 60 66 70 77 75 80 82 78 73 72 76 67 61 68 59 60 58 58 59 60 62 62 60 59
42 43 44 47 44 40 32 33 37 40 44 45 46 48 51 56 59 65 65 67 73 61 77 85 81 84 81 78 81 83 85 72 58 57 57 59 61 64 64 63 62 63 62
46 42 43 43 48 42 33 38 48 53 54 51 51 54 55 58 59 61 62 65 65 76 82 88 87 90 93 82 95 85 71 63 63 52 58 63 66 64 64 64 65 64 65
43 40 45 40 40 45 44 53 57 58 52 52 53 50 53 56 58 56 59 73 76 81 87 94 93 94 84 78 78 72 71 67 68 71 73 79 78 69 68 68 65 65 68
61 58 60 61 60 57 59 58 56 56 55 55 57 59 59 61 60 49 50 50 55 85 95 98 98 93 86 81 73 74 77 87 91 69 84 72 68 68 66 68 68 68 66
74 80 61 44 54 57 55 55 59 56 58 62 63 65 58 47 66 64 61 58 60 61 60 67 86 85 84 78 82 90 92 93 85 75 73 79 68 71 66 59 65 66 68
60 49 46 50 56 52 56 54 58 60 64 68 67 65 68 68 68 64 71 84 81 81 79 76 84 82 82 75 81 78 74 81 75 68 68 87 67 70 65 66 68 69 69
87 81 70 57 63 57 49 51 61 68 65 70 66 70 72 73 65 59 71 89 81 79 68 61 60 63 65 65 61 71 88 91 86 74 66 77 76 74 69 69 66 70 65
65 46 41 38 44 45 43 40 61 66 70 68 71 70 66 64 60 60 73 78 85 80 75 80 74 65 63 67 65 71 86 94 94 92 71 95 82 84 87 77 67 75 67

GFSMA_sfc_rhum_021.txt.gz
RH
99 99 99 99 98 81 52 40 35 32 32 31 30 31 47 81 89 94 95 73 64 55 52 49 47 46 48 50 51 53 56 57 58 57 57 58 59 60 59 59 59 59 60
97 98 98 99 90 56 40 36 35 36 37 34 30 32 42 74 81 86 80 74 62 51 45 43 44 44 46 47 48 51 54 55 55 58 60 60 60 60 60 60 59 59 59
96 96 98 84 56 40 36 39 39 39 37 32 32 33 36 63 69 74 70 70 66 61 46 44 43 42 47 46 47 47 50 51 55 60 58 61 61 61 61 60 60 60 58
92 91 82 58 44 38 40 42 42 40 39 36 34 35 45 44 68 70 64 64 63 51 48 41 39 39 40 43 44 45 45 47 53 55 59 59 59 58 58 58 58 58 57
78 74 64 51 42 42 44 41 46 39 35 39 34 51 56 48 56 54 55 52 53 49 54 43 42 40 38 39 40 40 42 47 48 52 56 57 57 57 58 57 57 56 56
67 58 51 44 42 47 47 44 41 45 43 44 37 44 56 49 48 48 47 39 41 37 40 39 44 47 40 39 38 40 40 42 45 46 52 55 56 56 56 56 56 55 55
59 47 44 38 39 38 45 40 42 37 45 49 50 49 50 50 53 43 45 41 38 39 41 43 44 46 43 44 43 39 35 39 42 46 47 54 55 56 56 55 55 54 54
52 44 39 37 38 43 44 43 45 49 48 48 49 58 48 44 43 43 43 38 42 45 42 41 41 41 45 49 52 43 35 38 42 46 50 53 54 55 55 56 56 55 55
52 45 39 39 38 42 46 47 47 45 47 49 47 50 54 48 49 47 45 45 45 48 48 47 43 42 43 50 55 54 48 44 46 49 52 54 55 55 56 56 56 55 54
61 43 40 38 40 52 49 48 46 50 50 47 52 39 45 49 38 39 45 49 50 42 48 50 50 44 47 55 52 55 50 50 52 55 57 57 58 58 58 58 57 56 55
64 54 42 42 48 51 48 42 47 50 49 55 52 53 51 57 51 45 42 48 52 50 51 51 51 49 48 50 53 54 48 52 55 57 58 59 60 60 59 58 57 56 55
73 64 54 50 48 51 51 45 45 42 49 49 50 54 54 51 53 55 55 57 57 55 55 53 52 53 55 54 44 50 51 52 55 58 61 62 62 60 59 59 58 57 54
72 64 64 62 54 47 53 53 44 44 42 45 49 52 56 53 55 57 58 62 61 64 58 56 54 56 42 57 60 51 54 56 57 60 63 65 62 60 60 60 60 58 58
69 67 65 61 58 48 50 49 51 49 43 48 45 52 59 59 59 59 61 63 65 68 67 54 58 58 58 59 57 54 63 56 57 60 63 64 62 60 60 60 59 58 57
71 69 63 60 54 52 51 52 50 45 43 50 49 54 56 64 64 65 66 66 62 64 67 61 60 59 59 62 62 60 62 60 63 63 62 61 60 59 59 59 58 58 59
66 66 59 56 55 51 48 49 49 46 49 56 59 54 58 62 63 66 68 68 70 67 67 66 62 64 61 55 63 61 64 64 66 63 63 62 62 60 60 59 59 58 57
68 62 58 53 47 46 46 48 46 42 43 47 51 51 54 57 65 67 66 64 67 72 74 68 70 67 74 75 70 71 69 71 73 65 65 63 62 61 60 60 60 60 59
64 57 48 44 44 46 48 54 59 66 63 49 48 57 59 48 58 59 63 62 65 70 73 78 79 82 83 79 80 81 68 62 69 67 66 64 61 61 62 62 60 60 61
60 55 45 46 50 58 63 64 60 56 43 43 48 50 51 54 56 62 66 68 69 58 78 84 84 87 87 86 87 86 88 81 66 63 61 62 63 65 65 62 62 63 63
54 48 48 52 56 60 64 68 68 59 53 51 52 53 51 56 59 59 60 65 64 75 81 87 86 94 94 87 94 94 79 70 68 55 60 66 66 64 64 66 66 66 67
56 50 54 57 64 70 72 79 71 62 52 50 50 48 52 56 57 62 63 74 78 82 86 94 91 98 95 89 83 77 80 74 74 75 75 76 83 70 70 68 66 66 68
59 62 68 72 79 75 80 75 66 60 53 52 54 56 56 62 62 56 54 53 59 88 91 98 97 96 95 88 84 84 83 92 91 77 83 73 70 67 65 67 69 69 68
77 84 84 80 82 82 77 71 64 59 59 58 58 60 57 50 68 66 64 60 63 62 60 72 86 90 85 80 84 91 91 94 84 73 77 79 67 70 66 59 66 67 67
82 82 86 92 94 89 87 80 67 59 58 62 65 67 72 72 73 71 74 84 82 82 80 74 82 82 84 80 83 93 86 83 78 72 73 88 68 71 64 66 69 69 69
96 97 98 99 99 97 78 72 62 60 59 64 67 72 77 80 71 62 74 90 86 84 68 63 61 63 66 65 62 70 91 94 87 75 68 78 78 74 67 66 64 69 66
100 97 98 96 86 62 52 46 62 64 69 66 70 70 67 65 62 61 75 80 86 83 76 81 74 64 63 67 66 73 93 96 94 92 73 95 80 83 90 77 70 75 66

GFSMA_sfc_rhum_024.txt.gz
RH
100 99 99 99 99 86 69 41 35 33 32 31 32 38 80 90 92 96 92 74 66 56 53 50 49 50 50 50 52 56 57 56 57 59 61 61 61 61 61 61 61 60 60
98 99 99 99 99 68 46 39 36 37 37 33 32 40 71 83 91 87 78 78 63 52 47 48 46 47 49 49 49 52 53 54 58 60 59 61 62 62 61 61 61 61 60
97 98 98 99 95 51 38 39 39 39 36 32 32 37 54 81 82 76 75 72 67 62 51 46 43 47 44 47 48 49 48 50 56 57 60 60 59 58 59 59 59 59 58
95 97 98 97 66 42 43 43 42 40 38 36 33 44 43 68 74 73 66 67 59 57 50 42 41 41 42 43 42 42 42 47 51 54 57 57 58 57 57 58 58 57 57
94 96 95 82 46 44 46 43 45 37 35 40 38 59 55 61 71 60 60 58 56 56 54 48 48 42 41 41 41 41 42 45 46 48 52 55 56 56 57 57 57 56 55
90 89 84 61 42 47 49 46 41 44 42 44 40 52 58 53 54 60 50 43 40 40 43 42 47 48 45 41 41 40 38 39 42 46 47 51 54 54 55 56 55 55 55
83 79 77 54 44 42 42 39 40 38 46 53 53 54 53 54 52 47 50 45 40 43 43 45 46 47 45 45 46 46 36 37 40 44 47 50 53 54 55 55 55 55 55
78 75 65 50 38 44 39 37 43 47 46 53 52 58 56 50 46 46 46 41 45 46 44 42 42 42 48 51 59 48 43 42 45 47 48 52 54 55 55 55 55 55 55
70 69 71 50 41 44 42 39 45 41 46 49 52 53 55 50 54 50 47 46 48 49 51 48 45 42 47 57 62 62 47 49 51 53 54 56 56 56 57 57 56 56 55
75 62 65 51 42 43 42 41 42 49 47 48 51 40 47 53 46 44 48 50 50 44 49 51 49 47 51 55 51 52 49 50 52 55 57 58 58 58 59 58 57 56 55
79 73 65 59 51 48 46 43 47 46 50 53 54 55 52 56 50 44 43 51 54 54 53 52 51 53 49 53 55 57 50 51 54 56 58 60 61 61 61 60 58 57 56
89 79 66 62 66 60 54 49 58 50 48 51 54 52 56 52 52 52 50 55 54 52 57 56 53 55 56 55 46 50 52 55 57 60 63 64 63 62 62 61 60 59 57
87 76 71 75 75 71 66 64 60 53 55 46 43 50 52 52 54 57 54 60 57 62 59 59 57 57 46 59 63 51 56 56 58 61 65 66 63 62 62 63 62 61 59
84 80 75 74 74 68 65 64 66 66 54 53 43 48 54 54 54 57 60 63 62 66 66 52 58 60 59 61 58 54 66 58 58 62 65 65 63 62 61 61 61 60 59
88 83 79 77 73 66 60 59 63 65 51 49 47 50 54 59 60 60 63 60 55 54 60 55 54 61 61 62 62 67 68 64 60 62 61 60 60 62 62 61 60 59 58
85 80 79 76 72 65 59 54 54 52 53 68 76 64 59 58 60 64 67 66 65 62 62 62 59 64 60 52 64 67 70 63 65 64 63 61 63 62 62 61 60 58 59
81 81 76 72 69 62 49 50 49 48 50 53 57 58 59 57 65 63 66 68 69 70 71 66 67 67 71 72 70 75 75 77 79 67 65 64 65 64 63 62 61 60 60
76 72 71 67 62 53 47 48 48 53 56 61 67 71 69 56 60 64 62 62 64 70 69 73 75 77 81 78 80 85 68 61 73 68 69 65 63 63 64 63 60 60 62
72 65 61 57 53 52 51 57 61 73 80 82 83 81 65 54 55 58 58 61 67 57 74 78 80 86 88 88 87 88 89 91 73 65 64 65 64 66 67 64 63 63 64
62 57 53 55 58 58 63 65 66 68 69 67 65 60 54 54 54 54 56 62 61 68 75 82 87 93 93 86 93 94 87 79 74 60 64 68 68 65 64 66 68 67 67
64 69 74 78 82 82 71 80 81 81 83 81 74 64 64 61 58 61 57 65 71 76 83 96 93 97 92 95 95 85 84 79 81 78 77 80 80 76 72 71 67 67 68
72 75 79 80 85 87 87 80 71 72 73 81 90 88 79 69 61 56 58 58 64 89 92 97 97 88 94 96 95 89 88 93 90 77 88 73 72 70 66 68 68 68 68
86 90 90 86 90 90 86 89 91 92 95 97 86 64 56 50 71 66 63 60 65 61 60 81 91 93 88 87 86 93 93 93 88 76 76 82 72 70 65 60 66 68 68
92 91 92 94 96 93 90 92 93 94 74 65 65 63 75 70 73 73 76 86 82 82 79 77 85 84 86 84 89 91 92 89 81 73 76 92 66 70 65 66 69 69 70
99 99 99 100 99 100 97 90 88 74 61 61 62 68 72 76 70 62 74 92 85 84 71 64 62 65 66 65 63 70 92 95 88 75 70 79 77 74 67 67 64 69 65
100 98 100 100 97 99 86 86 78 58 62 62 72 70 66 65 61 61 76 81 88 83 79 84 76 67 65 69 67 74 94 98 96 94 76 93 82 82 89 76 66 77 66

GFSMA_sfc_rhum_027.txt.gz
RH
90 86 91 84 79 69 51 33 25 23 22 22 24 37 50 58 60 56 54 75 68 57 52 51 51 52 52 53 57 56 56 57 61 60 61 63 63 63 62 62 62 62 60
82 82 90 87 78 66 49 32 26 26 24 22 24 38 49 58 57 52 50 49 65 57 50 47 47 51 50 50 52 52 53 55 59 59 61 60 60 59 60 60 60 60 60
76 82 86 86 77 58 39 29 27 27 27 22 24 32 47 53 54 49 48 45 45 65 54 46 49 45 46 47 48 45 47 50 55 57 58 57 58 58 58 58 58 58 58
72 79 82 81 76 50 35 32 30 30 28 25 26 28 40 49 48 45 44 40 43 40 45 44 42 43 43 42 41 40 42 48 49 51 55 55 56 56 56 56 56 56 56
76 73 78 78 69 49 35 32 32 28 28 28 28 34 33 46 47 41 40 39 44 41 40 51 48 45 42 41 41 41 41 42 43 46 47 51 54 54 54 54 54 54 55
78 77 76 77 61 50 39 35 33 31 29 29 29 37 37 42 46 42 36 33 34 33 30 32 34 35 45 44 44 43 38 37 39 43 45 46 52 53 53 53 54 54 54
78 80 78 72 58 49 39 33 33 33 35 38 40 40 38 39 38 38 34 32 31 30 31 31 30 30 29 44 46 43 40 36 40 42 46 48 51 53 54 54 54 54 54
77 78 78 70 56 47 40 36 40 35 35 40 37 42 40 36 34 32 35 31 29 31 32 30 29 30 32 32 46 46 43 43 45 48 51 53 54 55 56 55 55 55 55
77 75 80 76 58 49 45 41 40 40 38 41 41 37 44 38 39 36 36 33 32 32 31 33 31 31 34 38 45 50 51 50 50 51 54 55 58 57 57 57 56 56 55
81 74 77 76 64 52 47 42 37 38 43 43 42 35 36 39 39 38 36 34 33 30 32 33 31 33 34 34 43 49 47 49 50 52 56 58 57 58 58 58 57 57 56
84 78 75 74 71 54 55 48 42 40 39 44 44 43 38 38 33 32 37 37 36 34 32 32 32 32 34 35 37 45 48 50 53 56 59 61 61 61 60 59 58 58 57
88 79 76 76 73 71 66 63 56 47 45 47 52 46 43 39 36 36 34 36 34 36 36 36 35 35 36 36 37 46 49 53 54 57 62 64 63 62 62 62 61 60 59
88 81 77 75 73 67 72 68 66 63 59 59 53 51 43 43 49 41 46 43 44 38 35 36 36 36 35 37 39 47 52 53 56 61 65 67 64 63 62 63 64 62 60
84 79 78 74 71 69 69 67 68 69 65 63 51 50 54 52 52 50 42 53 48 47 43 33 38 37 37 38 42 50 43 56 58 61 63 64 62 61 61 62 62 61 60
83 80 77 74 73 76 72 70 69 65 60 54 50 46 45 52 53 66 64 52 38 39 38 38 37 39 39 39 41 41 45 56 61 59 60 60 60 61 62 62 61 61 60
81 79 77 75 75 71 73 71 65 56 48 60 68 66 59 72 65 65 56 58 49 46 43 37 40 39 40 35 42 46 47 62 59 62 62 61 61 62 62 62 62 61 60
80 78 75 74 72 69 65 72 73 51 49 56 63 64 62 62 64 73 76 75 72 58 49 43 41 41 42 43 44 46 51 49 48 61 64 63 65 65 64 63 63 62 62
78 76 73 71 67 65 63 61 57 54 57 65 73 78 80 70 75 69 74 71 64 62 52 53 50 49 49 47 50 53 50 46 49 56 66 66 65 64 65 64 64 64 63
73 71 68 67 63 60 56 52 56 65 74 81 87 88 82 78 79 67 66 70 85 83 72 59 49 53 53 55 54 55 57 57 52 60 62 63 65 66 67 66 66 64 64
68 67 60 55 55 57 62 68 72 74 73 75 70 73 74 79 87 90 95 96 93 86 62 72 69 65 64 57 61 65 63 53 52 46 56 62 65 64 65 66 67 67 68
65 64 66 68 70 73 73 80 82 84 89 90 92 94 98 95 96 99 91 91 89 78 78 86 74 68 65 62 63 59 63 56 56 59 58 52 54 53 53 60 62 66 66
80 78 80 81 86 87 90 90 89 92 94 96 95 96 95 93 89 89 85 81 81 92 90 80 81 66 65 65 62 65 67 75 78 51 56 55 52 53 50 50 61 66 68
87 91 92 90 92 90 89 88 86 92 97 98 95 85 82 76 88 86 65 60 62 62 61 63 69 64 68 64 76 86 81 80 74 60 59 64 51 54 50 46 62 65 67
93 93 95 95 96 94 89 90 87 88 88 88 85 85 85 80 69 70 72 76 68 65 63 64 66 65 65 66 73 83 78 70 58 54 54 76 51 52 47 48 61 66 68
99 100 100 100 100 100 97 97 89 88 86 85 71 59 63 64 64 58 62 81 71 69 60 63 63 67 67 66 62 59 75 79 74 57 51 61 57 54 51 52 48 61 64
100 100 100 100 99 99 95 86 70 53 66 65 60 58 61 57 58 60 67 82 73 63 62 66 58 55 54 52 65 58 72 91 87 83 52 72 61 61 74 46 46 47 51

GFSMA_sfc_rhum_030.txt.gz
RH
56 54 58 64 60 55 47 40 29 23 20 19 18 22 27 31 33 34 43 76 70 57 53 53 54 53 54 57 57 55 57 60 59 61 62 62 60 60 60 61 61 61 61
54 53 63 73 72 58 49 38 29 25 23 20 18 23 28 33 32 35 37 48 68 59 51 48 51 52 50 52 52 52 53 57 56 60 59 59 59 60 60 59 59 59 59
51 52 60 76 80 59 50 38 29 25 24 20 19 23 28 31 34 35 36 36 43 68 55 49 52 47 47 48 46 43 46 52 54 56 57 57 57 56 57 58 57 57 57
50 52 58 71 68 60 49 39 32 28 26 22 21 22 28 33 32 32 34 32 32 36 47 48 44 45 43 41 40 39 42 47 48 49 52 54 55 55 55 55 55 55 55
53 51 53 60 60 59 47 40 33 30 29 26 23 23 26 30 32 30 30 32 34 33 30 48 48 46 42 41 41 40 40 41 41 44 45 48 52 54 54 54 54 55 55
58 61 54 55 58 60 49 40 35 30 29 26 18 23 26 30 32 30 28 27 30 33 30 31 36 36 46 44 43 41 39 36 39 42 45 48 50 53 54 54 54 54 54
62 66 67 60 59 59 54 43 37 34 32 26 31 30 29 29 33 32 28 27 28 27 25 25 24 24 27 38 42 41 41 36 39 43 46 48 50 53 55 55 55 55 55
63 67 66 66 62 61 56 47 40 36 33 31 32 32 35 30 30 32 30 27 26 25 26 25 24 25 27 25 40 43 40 42 45 48 51 53 55 56 57 56 56 56 56
64 65 70 67 63 58 58 51 43 40 40 36 31 30 38 35 32 31 33 30 27 27 25 26 25 25 25 27 39 44 49 48 48 49 52 54 56 57 58 57 57 56 56
77 68 70 70 68 64 58 53 44 41 42 44 38 31 32 33 34 39 32 31 28 26 26 28 25 26 28 28 40 47 45 47 48 51 56 57 59 59 60 59 58 57 56
86 79 74 74 74 63 61 62 54 43 40 44 44 38 36 32 31 33 37 37 31 28 26 27 26 26 28 28 30 39 46 47 50 54 56 59 62 62 61 60 59 58 58
88 85 81 75 74 72 64 63 62 55 46 41 46 46 40 41 35 35 32 34 35 32 29 28 28 28 28 28 31 46 47 50 52 55 59 62 63 63 62 62 62 61 60
88 85 84 80 79 75 71 65 65 68 60 49 50 51 46 43 38 35 31 45 34 32 32 31 31 31 28 30 30 47 45 52 54 57 61 65 63 64 64 65 65 64 62
76 75 76 78 77 75 72 68 72 71 72 73 64 59 59 55 46 48 50 53 53 38 35 33 34 34 32 33 33 46 34 42 56 59 62 62 62 61 62 63 64 64 62
84 78 74 76 76 75 73 72 78 73 68 67 65 61 57 60 50 60 44 56 60 63 51 35 36 32 32 32 35 32 30 44 55 60 60 61 60 62 62 63 63 62 61
74 76 75 75 75 76 75 75 76 72 75 76 73 69 72 68 65 65 58 54 51 53 46 37 44 40 40 34 35 35 36 49 55 56 60 62 62 63 63 63 63 62 62
70 73 72 72 73 74 75 78 77 73 70 78 88 90 83 69 67 77 78 80 84 81 78 70 57 61 58 52 56 51 41 37 38 49 55 59 61 64 65 64 63 63 63
73 72 69 72 71 71 70 73 76 77 80 87 83 89 91 76 86 83 89 92 94 93 86 75 83 87 90 80 76 66 52 42 42 48 57 62 64 64 65 66 66 64 64
71 70 66 68 69 68 67 66 61 69 78 84 88 88 91 90 92 84 85 91 94 95 96 94 88 67 72 81 85 75 60 47 41 52 54 52 56 60 64 66 66 65 64
66 63 63 63 61 58 56 60 70 75 80 83 83 85 83 83 87 92 97 100 100 98 95 84 67 69 73 72 65 57 53 47 46 38 45 52 57 60 64 65 65 66 67
56 55 57 64 66 66 67 74 77 78 81 84 92 96 99 97 94 99 99 99 96 87 74 83 78 74 62 52 50 49 52 48 47 48 46 44 43 43 45 51 53 57 60
77 74 78 76 80 78 80 81 82 87 91 95 98 99 100 100 100 96 87 82 81 86 90 80 74 63 56 54 46 51 57 65 68 48 47 48 44 45 43 42 51 56 60
89 92 91 88 89 89 88 90 90 92 97 100 97 95 91 84 85 76 80 75 69 65 64 64 65 54 52 51 72 81 73 72 68 53 51 55 45 47 43 36 52 56 60
94 94 95 95 96 94 90 90 91 95 94 88 79 78 75 75 70 65 62 73 68 60 56 51 54 54 54 54 60 68 68 64 51 46 46 68 46 47 42 42 53 56 58
99 100 100 100 100 100 98 98 97 95 93 85 77 68 60 54 58 61 59 74 58 56 53 58 60 63 66 65 62 58 68 73 71 54 46 54 50 50 47 48 46 54 56
100 98 100 100 98 100 98 93 70 62 62 58 55 54 58 54 57 59 60 65 64 56 52 55 47 47 48 44 52 54 65 84 81 81 48 66 58 59 75 47 44 45 48

GFSMA_sfc_rhum_033.txt.gz
RH
67 70 69 66 61 58 46 44 35 29 26 23 22 22 25 28 30 34 54 77 71 59 55 56 57 55 58 59 56 57 60 60 62 63 61 61 62 62 62 62 61 62 62
48 49 60 74 65 61 52 45 37 30 27 24 23 22 25 30 30 32 47 57 70 64 53 53 52 52 54 55 54 53 55 57 60 60 59 60 60 59 60 60 59 59 59
45 46 49 71 63 62 56 48 38 30 29 26 24 23 27 29 32 33 38 47 52 67 59 52 54 50 50 50 47 45 49 53 54 56 56 56 57 57 57 57 57 57 58
47 46 48 61 68 66 71 52 42 36 34 30 27 25 28 30 31 31 35 37 42 43 55 56 49 48 46 42 41 40 45 47 48 48 50 52 54 54 54 55 55 55 56
48 48 48 54 68 70 67 54 46 39 39 35 31 27 29 32 32 29 32 35 37 42 42 52 58 51 44 42 41 40 42 43 41 44 45 46 48 53 54 54 54 54 54
53 53 52 50 64 68 67 54 48 42 40 37 26 26 32 32 34 33 30 30 33 38 37 44 52 46 47 45 42 40 39 37 38 40 44 46 49 51 53 54 55 54 55
55 60 58 53 54 66 65 53 49 46 44 37 34 36 35 31 33 34 32 32 35 35 36 35 36 35 42 42 38 38 40 37 38 41 46 48 51 54 56 56 56 56 55
58 61 64 62 58 62 64 58 53 49 44 38 44 46 46 36 33 34 35 32 31 34 33 30 30 33 39 38 51 42 40 41 43 46 49 52 54 56 57 58 57 56 56
65 62 68 69 65 64 70 65 58 52 51 42 41 47 52 49 40 37 40 37 32 33 32 34 31 31 34 38 50 49 51 47 45 46 47 51 55 57 58 58 58 57 57
76 70 69 77 72 71 76 67 58 56 55 54 49 36 42 46 49 52 43 40 36 30 32 36 32 32 33 41 48 53 49 45 43 46 52 54 55 58 59 59 58 58 57
72 79 75 77 83 78 76 73 65 56 60 61 58 55 46 44 45 51 52 47 39 35 33 32 34 33 35 39 44 49 47 44 45 49 52 55 58 61 61 60 59 59 59
75 83 85 83 82 83 80 76 73 68 68 62 60 52 48 49 46 48 49 48 45 39 35 34 34 37 39 40 39 52 48 45 48 49 52 56 59 61 63 63 62 62 61
82 86 88 89 89 87 84 78 77 71 73 73 63 59 53 51 46 42 50 50 50 44 41 40 38 38 32 41 42 46 50 49 50 55 56 57 59 60 62 64 64 64 63
69 76 82 87 87 85 86 86 85 79 76 80 76 73 67 71 68 73 71 58 57 49 46 41 41 38 39 41 44 50 43 44 44 52 59 58 59 59 61 62 64 64 64
61 61 76 82 85 85 86 88 91 87 85 83 83 80 78 76 71 74 73 76 86 85 58 45 45 40 42 42 42 39 39 39 44 52 57 59 60 61 61 62 63 64 63
53 66 79 82 88 86 84 90 93 90 90 91 90 85 83 81 84 82 82 82 84 81 72 65 63 59 56 45 48 49 41 48 52 53 53 55 58 61 61 62 63 63 62
54 62 72 76 78 82 82 89 91 92 91 86 87 87 90 88 94 95 95 96 97 96 93 90 84 84 84 86 82 81 71 55 49 53 53 56 61 64 63 63 63 63 62
60 67 66 69 69 74 79 84 85 85 86 88 90 92 95 88 95 94 93 94 95 98 96 97 96 97 98 93 92 76 64 56 56 56 60 60 61 62 59 60 63 64 64
67 67 68 69 70 70 71 76 77 82 86 89 91 90 92 90 95 95 96 97 98 100 99 98 96 94 93 82 79 72 69 66 53 51 51 50 51 53 58 61 63 64 64
63 63 63 63 63 62 61 66 75 80 84 86 87 88 90 89 94 98 100 100 99 98 98 96 98 87 71 69 70 72 64 59 56 41 45 49 52 53 57 57 57 59 62
59 59 62 63 64 67 70 79 80 83 85 89 94 96 99 93 88 92 97 99 99 99 98 97 89 80 76 71 66 61 63 58 58 59 56 56 53 56 54 52 52 53 54
82 80 80 77 80 76 79 79 82 87 91 96 98 99 100 98 96 95 96 91 90 93 95 90 85 74 62 60 58 64 76 80 81 62 63 59 57 56 54 53 52 53 55
91 95 93 88 89 87 85 87 89 92 97 99 98 98 98 93 92 86 79 79 77 71 68 73 74 64 62 60 84 90 82 81 75 63 64 66 56 58 54 43 51 53 55
97 96 96 97 95 91 90 91 91 93 95 97 97 96 90 81 76 68 66 74 71 68 66 58 66 64 66 63 68 73 76 73 64 58 59 74 58 58 53 53 53 55 56
99 100 99 99 99 100 97 97 97 97 96 93 84 81 64 59 62 63 66 84 70 64 51 58 58 58 62 64 63 71 83 83 78 68 59 68 66 65 59 60 57 53 53
100 98 100 98 92 100 87 88 93 88 91 69 56 54 55 55 57 58 67 64 73 65 63 62 58 54 51 52 47 57 77 90 88 88 67 87 77 76 93 63 63 62 62

GFSMA_sfc_rhum_036.txt.gz
RH
88 86 78 70 66 73 75 73 63 49 42 36 33 33 37 42 46 75 88 80 73 64 60 60 60 60 61 59 59 61 61 62 64 61 62 62 63 62 62 62 62 61 60
79 82 81 89 82 72 68 66 59 51 43 39 35 32 36 43 47 77 79 80 72 68 58 57 56 57 60 56 56 57 59 60 61 59 60 60 59 60 60 60 60 60 60
67 70 76 85 88 77 73 62 60 51 47 38 39 34 39 44 48 52 73 72 72 69 64 55 55 54 56 54 51 52 54 56 56 56 56 57 58 57 57 58 58 58 58
63 66 71 86 85 82 81 84 64 57 54 46 43 40 43 46 46 46 59 65 68 62 64 65 58 53 52 48 44 45 50 51 50 49 49 51 53 54 55 55 55 56 56
62 68 71 80 84 88 91 89 66 57 58 55 47 43 44 49 48 41 49 54 62 66 66 64 64 61 51 46 44 45 49 48 44 45 45 46 47 50 52 54 54 55 54
69 68 71 75 79 89 84 87 67 65 62 58 36 38 44 50 51 50 48 44 52 60 62 64 68 60 56 48 47 44 41 41 41 42 43 45 46 48 51 53 54 54 55
70 84 76 84 76 80 80 76 72 67 67 58 49 50 51 42 46 51 47 50 49 49 59 61 63 61 59 52 46 40 39 42 41 42 45 46 49 52 54 55 54 54 54
76 76 75 87 86 80 84 76 67 75 69 60 55 62 62 54 46 46 52 46 48 51 48 46 50 48 54 55 52 46 44 42 44 46 47 49 50 51 54 55 55 55 56
86 84 82 75 88 91 79 85 76 72 67 68 56 64 74 67 57 52 50 53 45 51 48 40 39 36 43 55 60 51 46 49 49 47 46 48 51 53 55 56 56 56 56
87 80 91 93 83 77 86 89 88 76 74 61 70 51 56 59 58 57 53 54 46 41 42 46 40 36 37 56 53 60 55 49 45 44 46 50 51 54 56 57 57 57 56
87 90 80 86 94 87 85 91 94 81 71 71 67 86 78 64 60 65 60 54 51 47 45 42 41 42 37 46 58 62 56 48 44 46 47 49 52 55 59 59 60 60 59
93 91 85 86 90 96 92 95 92 92 81 80 74 86 76 70 67 64 66 59 54 56 49 45 41 43 44 45 44 54 52 47 47 47 49 51 54 56 58 61 61 61 61
91 94 94 96 96 95 96 96 96 95 86 82 82 78 82 81 70 63 64 62 60 50 46 44 45 46 38 46 57 60 52 47 48 49 53 54 55 56 58 59 61 63 62
81 79 91 95 96 96 96 97 96 96 92 89 86 92 89 84 85 84 77 76 82 79 78 80 77 62 55 49 55 51 60 52 49 48 51 56 56 58 60 60 61 62 63
78 83 84 89 94 96 96 97 98 97 96 91 93 95 90 89 91 90 90 91 87 93 91 84 85 79 74 69 65 62 56 50 51 47 51 56 58 59 60 63 62 62 62
69 82 84 88 88 94 96 98 98 97 97 98 98 95 93 91 90 90 90 92 94 95 97 93 95 94 91 83 80 80 72 71 69 67 61 56 54 55 58 62 63 63 62
80 84 85 86 84 86 88 93 96 96 97 96 96 96 93 90 93 94 95 96 98 98 98 100 97 96 96 94 90 89 82 77 65 65 57 56 57 60 61 62 63 62 62
84 87 87 86 86 89 91 93 93 91 92 94 94 94 95 90 97 96 96 98 98 99 97 99 100 100 100 98 95 92 79 59 61 60 61 62 59 58 56 55 56 58 61
84 81 79 80 82 83 86 84 85 90 90 92 93 94 95 94 97 98 96 98 98 100 100 98 100 99 99 99 99 88 76 75 64 65 58 49 50 53 55 56 58 61 62
69 70 70 71 74 76 78 83 84 89 88 90 90 91 92 93 96 99 100 100 100 98 97 94 98 99 99 96 90 85 84 76 75 49 51 52 53 54 54 53 54 55 56
80 77 72 74 74 79 78 85 86 88 91 96 97 98 100 95 91 93 97 100 99 98 97 98 95 94 86 86 91 84 84 76 77 74 74 74 71 72 66 62 57 55 55
88 91 88 85 87 83 82 83 87 92 94 97 99 99 100 98 93 91 89 92 91 95 96 97 98 92 87 75 75 87 92 97 95 79 82 69 74 68 74 71 59 56 56
94 96 93 91 91 88 86 87 89 93 96 99 99 99 98 91 94 90 88 84 80 73 71 87 92 88 79 78 87 95 91 95 94 85 82 77 74 71 73 53 57 56 57
96 95 97 96 95 90 88 88 89 94 96 98 99 95 90 88 87 86 74 80 76 76 74 68 85 85 82 80 82 85 87 90 85 80 75 87 78 71 67 74 61 58 60
99 99 99 99 100 100 88 87 92 95 96 97 85 82 78 76 63 62 75 91 82 78 52 58 55 54 56 60 66 85 96 97 92 85 78 85 83 84 78 70 72 61 56
96 95 100 96 86 98 76 76 88 94 95 76 72 65 55 64 59 60 81 84 85 77 75 70 68 67 62 61 49 66 94 95 98 97 82 96 95 94 97 87 79 73 76

GFSMA_sfc_rhum_039.txt.gz
RH
77 81 87 91 97 97 96 96 89 76 62 42 38 38 42 46 85 90 94 83 79 70 64 64 64 64 64 61 64 63 64 65 62 63 64 64 63 63 62 62 62 62 62
74 82 88 81 84 88 87 82 79 64 51 45 39 36 39 46 69 91 92 87 78 74 64 62 61 63 62 60 62 63 61 64 60 62 61 61 61 61 60 60 60 60 60
84 78 88 96 90 87 79 68 60 61 52 46 41 37 41 46 66 87 85 85 80 77 70 60 60 61 62 60 58 59 61 61 59 58 59 59 58 57 58 58 58 58 58
77 85 86 90 91 94 88 86 66 59 58 52 48 43 44 48 53 83 82 78 77 70 73 68 62 59 60 58 54 56 59 57 56 54 54 55 56 55 54 55 54 54 54
68 74 76 84 91 88 91 87 82 58 59 58 49 48 47 50 54 50 78 74 74 72 72 75 72 68 63 55 50 51 57 55 53 51 50 50 50 52 52 52 52 52 52
72 70 75 79 88 90 90 96 94 71 63 60 43 43 49 52 57 56 59 63 71 70 71 71 80 73 65 52 50 51 54 53 49 50 49 50 50 50 51 52 52 52 52
75 88 90 89 89 87 83 92 94 80 72 61 51 53 55 50 51 57 56 58 62 67 70 71 71 69 66 55 52 50 48 47 47 48 48 49 51 52 53 53 53 54 53
94 86 82 93 95 91 92 95 93 87 74 63 63 62 56 54 49 45 59 52 55 60 62 63 66 62 67 69 64 48 44 45 47 48 50 51 53 52 52 54 55 55 55
93 94 95 92 91 92 93 94 95 92 83 80 63 77 78 69 61 55 49 60 53 60 58 56 57 54 56 63 58 52 49 46 47 50 52 51 50 53 54 55 56 56 56
92 91 93 95 97 97 95 93 91 87 92 87 86 60 83 67 63 62 66 64 64 49 51 51 48 44 48 53 61 61 52 52 51 49 48 49 52 52 55 57 57 57 57
93 93 92 95 97 97 96 97 97 93 88 87 80 89 91 87 74 71 75 82 67 52 45 43 40 40 41 55 64 63 58 54 47 47 48 49 50 52 56 58 60 60 60
95 95 94 94 92 96 98 98 98 96 91 85 82 92 89 80 77 82 84 82 78 64 51 46 41 43 46 57 55 63 61 54 47 47 47 49 50 54 57 59 60 59 60
91 92 94 95 94 92 94 97 99 98 97 93 88 85 82 88 83 77 77 77 78 72 67 70 60 47 40 50 53 66 59 52 48 46 52 59 56 56 58 60 62 62 62
91 86 89 92 91 91 94 95 98 98 98 96 93 92 87 87 89 88 85 85 89 86 87 88 86 78 63 66 69 67 70 65 68 70 71 61 58 61 61 63 63 63 62
79 86 90 91 92 94 94 95 98 98 99 97 95 94 93 93 93 92 93 91 79 93 93 94 95 95 93 90 85 81 84 86 85 84 83 82 75 78 76 63 61 63 63
88 91 91 91 91 92 95 97 98 97 98 99 99 98 97 96 97 96 96 95 97 93 97 95 97 97 96 92 93 94 93 91 87 87 83 79 76 67 57 58 61 62 62
92 92 91 91 91 92 94 95 96 97 98 97 97 97 96 95 96 97 97 97 98 98 98 100 98 97 98 98 98 96 94 92 92 82 80 79 65 59 60 61 61 62 60
84 88 89 89 90 94 94 96 96 96 96 96 94 95 96 90 96 96 98 98 99 99 98 100 100 100 100 98 96 95 86 79 83 73 68 61 61 62 58 55 56 58 59
76 73 72 75 78 85 86 84 87 92 92 92 92 93 95 94 98 98 98 100 100 100 100 98 99 100 99 98 99 98 96 84 66 66 64 63 52 51 54 55 56 56 58
81 80 80 81 83 86 87 84 86 90 94 92 91 92 94 94 96 98 100 100 100 99 99 98 98 99 99 99 97 90 87 82 82 58 55 56 55 56 55 56 57 58 58
89 91 90 90 90 85 79 90 88 91 93 96 98 98 99 94 90 93 97 100 98 97 97 99 98 98 96 88 92 89 92 84 80 78 73 75 72 74 72 65 61 58 58
93 94 94 90 88 83 84 85 89 94 96 98 99 99 100 98 93 88 88 88 92 99 100 99 98 94 88 88 81 82 90 96 94 83 82 79 77 80 78 80 66 61 58
93 96 94 90 90 88 86 86 88 93 96 99 99 99 97 97 98 98 98 97 96 94 85 86 92 92 84 83 90 96 92 95 93 87 88 89 81 78 78 60 60 60 59
97 97 97 97 95 89 86 87 88 94 96 96 94 92 88 85 84 86 84 84 83 79 74 69 88 88 85 82 85 86 89 91 89 86 81 96 86 79 77 79 66 62 61
95 99 99 99 100 99 80 83 90 96 97 96 87 85 82 82 60 59 78 91 83 77 55 59 58 55 54 57 64 88 96 97 91 86 83 89 89 89 86 81 79 63 58
98 94 96 98 82 97 66 72 89 98 94 84 84 70 58 70 62 64 85 86 86 82 79 76 73 69 64 65 53 67 95 96 97 97 84 96 95 96 95 85 85 80 82

GFSMA_sfc_rhum_042.txt.gz
RH
91 96 97 99 99 99 98 97 97 91 81 68 46 42 42 51 92 98 98 89 81 74 68 66 66 65 65 62 63 63 66 64 64 65 65 64 64 63 62 62 62 62 62
84 84 91 94 98 98 97 97 96 90 76 60 46 41 41 49 83 94 97 95 84 79 71 65 64 64 64 62 64 62 65 63 64 64 63 63 63 62 62 62 61 60 60
85 79 84 86 85 91 95 95 94 85 68 54 48 42 41 46 65 93 95 96 91 84 77 65 63 63 63 62 63 63 65 63 62 62 62 62 61 60 60 60 59 58 58
82 84 84 89 86 88 86 92 85 79 67 57 51 48 42 48 56 93 92 90 89 82 81 73 66 63 64 62 61 62 62 62 61 60 60 59 59 58 57 57 56 55 55
76 79 81 81 94 93 92 89 93 78 72 65 54 51 48 51 56 62 92 87 84 82 82 78 78 73 70 63 60 59 60 60 58 56 56 56 56 56 56 55 54 53 52
78 78 81 83 91 93 95 97 93 86 72 67 46 42 53 52 58 64 80 79 80 78 76 76 92 83 76 64 60 54 57 59 56 54 53 53 53 54 53 54 54 53 53
92 92 93 91 95 93 90 94 96 95 91 84 79 52 49 46 52 61 63 74 78 75 76 78 84 81 76 69 58 54 54 59 55 52 52 52 52 52 54 55 55 54 54
95 95 95 95 91 93 96 96 97 97 96 88 87 72 54 53 53 46 62 58 66 72 72 72 77 72 72 76 71 60 53 51 51 51 52 52 53 56 55 55 55 56 56
94 96 96 96 96 94 92 93 96 96 95 96 89 83 73 70 69 60 53 60 58 68 70 72 72 66 67 72 70 69 60 49 46 49 52 54 55 55 55 56 56 56 57
95 95 96 96 97 97 96 97 97 96 97 96 95 80 90 80 71 76 66 66 69 60 67 79 69 66 57 62 64 63 59 54 48 50 53 55 53 55 54 55 57 56 57
93 96 95 96 97 98 98 97 97 98 97 93 90 93 87 92 78 79 78 79 86 75 69 61 62 58 52 55 61 63 59 51 50 52 50 50 52 52 53 55 57 58 58
84 91 96 97 97 98 98 98 98 98 98 97 95 91 89 92 88 88 90 90 91 78 67 61 55 57 62 73 72 69 61 56 51 48 50 50 50 53 61 61 61 60 59
92 92 94 98 98 96 93 94 97 99 99 98 95 92 89 87 96 93 92 92 94 88 82 84 83 81 69 77 71 71 72 59 52 48 48 52 63 73 76 78 78 74 65
93 92 93 95 94 93 93 93 96 97 98 99 98 95 91 89 93 88 85 94 98 90 91 87 89 82 83 85 88 86 83 80 78 71 69 73 78 81 84 80 81 81 72
85 91 92 90 92 92 95 95 98 98 98 98 99 98 96 94 95 94 92 93 94 98 96 92 93 93 90 84 87 87 92 84 86 88 87 86 88 85 84 84 84 75 70
94 93 93 93 93 94 96 97 98 98 98 99 99 98 97 95 96 97 97 97 98 97 98 94 96 96 95 93 92 94 94 89 88 86 86 86 86 86 84 83 72 64 62
93 94 94 94 95 96 96 96 97 97 97 96 96 98 97 94 97 96 96 97 98 98 99 100 98 98 99 98 98 97 94 96 95 87 84 85 88 87 83 68 62 61 61
77 79 82 84 91 94 94 95 96 96 93 93 93 94 95 89 95 95 96 97 99 99 99 100 100 100 100 98 97 97 93 88 92 88 94 90 84 70 62 63 59 57 58
81 81 80 84 87 90 94 94 94 93 93 91 92 93 94 92 96 97 97 99 100 100 100 98 99 99 100 99 99 99 99 97 90 91 83 67 65 63 55 55 57 57 58
88 89 90 90 90 91 93 95 96 97 97 93 91 93 94 94 96 98 99 100 100 99 99 99 99 99 99 99 99 99 98 95 84 62 62 58 56 58 58 58 56 58 60
94 96 95 94 94 91 86 95 95 94 96 97 98 98 99 93 88 92 96 100 99 99 99 99 98 98 98 97 98 91 88 85 80 80 75 72 72 74 72 66 64 60 60
87 85 89 92 82 78 83 86 94 96 95 97 99 100 100 99 96 88 89 90 95 99 99 99 98 98 91 88 83 85 92 95 90 80 82 83 80 79 79 79 68 64 63
94 95 92 86 86 86 83 85 88 96 97 98 99 97 91 91 96 95 92 93 92 91 82 90 90 93 86 85 91 97 93 95 92 85 91 92 85 82 78 64 64 62 62
97 97 95 94 94 87 84 84 86 94 96 97 96 95 91 92 87 83 86 87 87 84 78 71 87 88 84 84 85 86 89 92 90 89 90 97 89 83 80 81 68 66 64
97 99 99 97 96 95 70 74 90 98 96 95 88 84 81 79 59 66 84 92 88 78 60 64 63 60 58 56 68 91 97 98 91 84 83 89 90 91 88 90 83 62 60
97 91 98 99 79 94 67 66 85 97 94 80 74 72 66 70 63 70 84 86 86 84 80 80 76 72 67 64 56 72 95 96 97 96 83 97 95 96 96 80 86 79 81

GFSMA_sfc_rhum_045.txt.gz
RH
97 97 98 98 99 99 98 97 97 94 91 78 70 53 40 47 65 98 98 93 86 78 67 67 67 66 65 63 62 63 64 63 63 64 64 63 63 63 63 62 63 62 62
93 95 97 98 99 99 99 98 97 97 95 83 67 48 44 48 58 95 98 96 89 83 76 68 66 65 64 63 63 63 65 63 63 64 63 63 62 62 62 62 62 61 60
92 87 93 97 96 98 98 98 97 96 96 79 64 51 45 44 56 87 96 97 95 89 83 69 67 65 63 63 63 63 65 64 64 64 62 62 61 60 60 60 60 60 60
89 90 87 89 90 96 97 98 97 98 96 85 68 56 47 44 49 71 94 96 97 94 89 81 74 66 64 63 62 63 62 65 63 62 62 61 60 58 57 57 56 56 55
84 85 85 86 95 91 92 90 95 93 93 86 71 60 55 48 48 52 91 94 95 94 93 85 83 79 74 64 62 61 62 63 62 61 60 60 59 58 57 56 55 54 53
86 89 87 90 96 96 96 97 92 97 89 84 69 57 53 46 52 60 68 86 93 89 88 87 88 91 81 70 64 62 61 62 61 59 57 56 56 57 56 55 55 54 54
89 90 90 93 96 96 93 96 97 98 98 94 91 81 62 58 54 57 64 75 89 85 88 82 82 95 86 77 71 64 59 58 61 58 55 55 55 55 55 56 56 56 55
96 96 96 96 95 95 97 96 97 97 99 97 96 86 82 75 60 51 58 59 69 88 84 82 84 89 89 91 86 72 60 55 59 59 54 54 55 54 55 56 56 56 56
96 97 97 97 97 97 96 96 97 98 96 98 93 90 84 85 80 67 58 61 63 82 87 86 84 85 83 79 77 76 71 61 54 53 53 54 55 56 56 55 56 56 56
91 95 97 97 97 98 98 97 97 97 99 98 96 86 90 77 75 82 69 64 69 65 83 93 86 78 72 72 74 76 72 62 53 49 49 53 56 57 55 55 54 55 55
73 84 94 97 98 98 98 98 99 99 98 98 98 94 90 94 84 84 86 84 84 81 75 76 72 72 68 66 73 74 70 58 52 49 48 52 56 55 55 53 54 56 60
87 84 91 97 98 98 98 98 98 98 99 99 98 97 92 91 93 92 93 88 88 89 89 90 84 80 78 76 74 76 76 76 78 82 78 67 52 54 53 67 72 75 76
89 94 94 97 99 98 97 96 97 98 99 99 98 98 96 92 92 92 91 91 96 92 90 91 90 84 74 83 86 87 84 86 82 80 75 75 75 76 76 76 75 73 75
88 93 96 94 93 94 95 95 96 97 98 97 97 99 97 96 95 92 93 97 98 95 91 87 94 94 91 90 89 90 91 87 85 77 79 77 79 78 79 79 81 82 82
93 95 94 94 95 96 98 97 99 99 93 97 98 99 99 98 97 97 96 96 96 99 97 92 93 94 96 93 90 92 92 85 83 83 81 81 79 80 84 83 82 82 82
95 95 95 95 96 96 96 97 98 98 92 96 96 97 97 96 96 97 98 98 98 99 99 93 95 98 97 95 92 96 95 89 83 82 84 81 84 85 82 82 79 81 80
84 90 92 95 95 96 96 96 96 96 93 92 93 94 94 93 96 96 96 96 98 98 100 100 98 98 98 98 98 97 95 97 95 86 85 84 83 83 81 82 82 80 76
81 81 83 88 93 95 95 95 96 95 95 95 94 93 94 87 94 94 96 97 99 99 99 99 100 100 100 99 99 98 95 91 94 90 86 84 85 85 82 78 71 66 63
86 86 87 90 92 94 95 96 96 96 96 96 96 96 96 94 95 96 96 98 99 99 100 99 99 99 99 99 100 99 98 98 94 92 89 87 85 75 66 63 59 57 58
95 96 96 95 94 94 95 96 96 97 98 98 97 96 96 95 96 98 99 100 100 99 98 98 99 99 100 99 99 99 99 99 99 76 67 64 62 60 60 60 60 60 59
95 96 95 93 89 85 88 97 96 91 96 97 98 97 99 94 87 91 95 100 99 98 98 98 97 98 98 98 98 98 97 88 82 83 78 74 72 72 73 67 62 60 60
86 82 81 84 84 81 84 87 92 93 95 98 99 98 98 97 94 81 81 84 89 97 99 98 97 95 94 93 87 85 92 97 92 82 86 82 79 78 80 80 69 63 62
91 94 94 90 89 84 83 85 88 94 97 98 96 96 92 89 91 86 79 77 76 72 75 91 92 93 89 88 91 97 93 95 90 85 91 96 87 83 79 67 64 64 63
95 94 93 92 92 84 82 84 86 94 95 95 95 95 88 87 82 86 85 89 88 76 82 75 88 88 87 86 85 87 90 93 90 88 92 99 90 84 80 80 70 69 67
98 100 97 92 93 93 68 71 87 95 94 94 77 84 78 83 65 73 83 90 89 80 62 66 66 63 62 63 71 91 84 98 94 81 84 90 90 92 88 91 84 69 66
95 97 99 98 80 94 63 62 82 93 91 72 70 71 70 71 66 66 83 86 88 85 83 83 76 71 64 60 54 81 96 96 98 95 80 98 94 93 94 77 83 81 82

GFSMA_sfc_rhum_048.txt.gz
RH
98 97 98 98 99 98 99 98 97 96 94 88 76 70 59 50 56 82 98 94 91 84 72 66 69 65 63 64 62 63 63 62 61 63 64 62 62 62 62 62 62 62 62
96 97 97 98 98 99 98 99 98 98 97 95 87 74 56 48 52 69 96 97 91 88 80 69 67 65 62 62 62 63 64 63 62 63 62 62 61 61 61 62 61 61 61
95 91 96 97 97 98 98 99 98 98 98 94 88 73 59 49 49 56 86 97 96 92 88 74 69 67 66 60 61 62 63 64 63 63 62 62 61 60 60 60 60 60 60
93 95 94 96 96 98 98 99 98 98 98 98 96 84 67 53 47 49 74 95 97 96 93 86 80 70 66 64 63 59 63 63 64 64 62 62 60 60 58 58 57 57 56
93 93 92 88 95 97 98 96 97 97 97 97 96 90 75 60 47 44 62 84 94 96 97 91 88 85 80 67 63 60 60 61 65 63 62 62 61 59 58 57 56 55 54
93 93 92 93 96 98 98 98 96 98 97 96 89 80 84 75 66 55 58 76 92 94 96 96 95 93 86 75 65 62 60 61 64 63 61 61 60 59 58 57 56 55 54
88 95 96 96 97 98 96 97 98 98 98 96 93 91 83 72 63 56 61 62 80 93 94 96 96 95 94 82 75 66 61 59 63 64 61 58 57 57 57 56 56 57 56
96 96 95 96 96 98 98 98 99 99 98 98 97 88 91 87 72 61 62 61 66 87 93 92 92 92 93 95 91 78 68 61 58 62 63 58 57 57 56 56 57 56 56
96 98 98 98 98 98 98 97 98 99 97 99 94 95 92 89 78 68 53 58 64 76 92 92 90 89 91 89 83 82 82 73 61 56 63 59 57 56 56 57 55 56 56
71 82 95 98 99 99 99 98 98 98 99 98 98 90 92 80 93 92 67 58 62 59 74 85 89 87 82 81 82 85 82 76 64 62 59 54 59 58 57 58 55 55 56
80 80 80 92 97 99 99 98 99 99 99 98 99 97 95 95 86 93 96 91 82 80 78 70 73 85 81 78 82 82 78 73 68 65 59 60 70 76 65 60 57 58 61
84 89 92 95 97 99 99 99 98 98 99 98 98 98 96 97 97 96 97 93 92 92 93 91 92 91 92 90 82 82 84 84 80 81 77 72 73 84 84 83 82 77 72
84 85 96 98 99 98 98 99 99 99 99 98 98 97 97 96 92 92 94 97 96 94 89 85 90 92 85 94 92 84 84 84 82 83 82 84 81 82 84 84 84 84 82
98 94 95 94 95 96 96 95 97 98 99 97 97 98 99 98 98 96 96 98 99 97 93 91 91 95 96 94 90 81 91 84 87 85 85 85 84 86 85 79 74 72 72
91 96 95 95 96 97 98 98 96 97 96 96 97 98 98 96 97 98 98 98 99 97 95 91 93 95 97 97 92 93 94 91 85 87 87 92 91 86 82 81 75 78 77
94 95 95 96 96 96 96 97 98 93 93 95 95 93 94 95 95 96 96 96 97 99 99 94 96 96 94 92 94 95 97 92 88 89 91 91 89 85 83 83 80 78 76
85 88 93 95 96 96 96 96 97 93 92 92 94 94 95 92 95 95 95 96 98 98 99 100 98 97 97 98 96 96 96 97 97 93 90 88 87 86 86 83 80 80 79
86 88 90 93 95 96 96 96 96 96 96 96 96 96 96 92 96 95 97 98 98 98 99 99 100 100 100 98 98 98 95 92 95 90 87 85 83 84 84 83 82 82 78
95 95 92 94 96 96 96 97 97 97 97 98 97 97 97 95 98 98 98 98 99 97 100 99 99 98 99 99 100 99 98 97 90 88 86 87 87 87 83 80 77 75 66
90 97 96 96 95 96 97 97 96 95 95 96 94 96 97 96 96 98 99 100 99 98 98 98 99 99 99 100 100 100 99 99 99 86 79 72 66 64 64 63 62 62 62
87 88 84 82 81 83 89 90 88 92 96 97 96 96 97 93 86 90 94 99 96 96 96 98 96 96 96 94 96 97 98 94 87 86 80 76 74 74 72 68 65 59 56
86 84 86 85 84 80 84 86 91 94 94 94 96 95 95 91 86 82 82 83 87 94 99 100 100 94 92 93 92 93 95 97 93 86 86 81 80 80 79 80 69 64 63
91 95 94 90 88 83 82 84 86 95 94 95 94 94 90 87 86 87 79 78 77 73 73 92 92 94 90 88 92 97 94 95 92 87 92 96 88 82 76 67 64 63 64
94 92 90 89 92 80 79 81 82 93 95 95 95 94 87 85 84 84 86 90 87 79 84 78 89 88 88 87 87 88 90 94 92 89 93 100 90 83 80 80 72 69 69
98 98 95 93 94 94 68 71 85 96 94 92 76 86 84 85 66 71 81 89 84 82 65 68 68 65 64 64 71 95 98 98 95 82 87 93 90 91 88 88 81 71 70
97 97 99 98 83 94 63 62 81 91 89 69 72 70 67 73 63 62 84 84 81 80 84 82 73 66 60 61 60 88 97 97 98 95 80 98 94 92 94 76 79 78 78

GFSMA_sfc_rhum_051.txt.gz
RH
73 73 74 75 78 78 77 76 72 68 65 63 60 54 48 40 32 34 46 90 89 86 80 70 67 68 65 64 62 62 62 62 61 63 64 62 63 63 62 62 62 62 62
70 70 68 71 74 76 75 74 73 72 70 69 66 60 54 44 35 34 37 47 88 89 84 77 67 67 64 63 64 60 63 64 62 63 63 62 61 60 61 62 61 59 60
71 68 68 68 68 73 73 76 75 77 76 73 70 64 59 49 41 36 36 44 54 88 90 81 72 68 67 66 60 62 65 61 63 61 63 62 62 62 61 61 61 60 61
73 72 72 71 68 70 74 76 75 76 76 75 69 65 64 60 53 44 37 38 47 53 72 87 83 74 68 66 63 61 61 61 66 63 64 63 62 61 61 60 59 58 57
74 74 74 72 70 72 74 74 74 77 74 70 71 67 69 68 62 54 46 46 42 52 55 74 91 90 85 71 64 60 60 66 66 65 64 62 62 61 60 59 58 57 55
76 77 76 75 75 78 77 80 78 77 75 74 77 74 72 68 64 58 53 47 46 50 53 60 62 67 89 80 70 64 60 60 67 68 64 61 62 61 60 59 58 57 56
73 79 83 83 82 81 77 78 81 84 88 87 93 84 75 67 64 59 53 50 49 47 51 55 60 63 66 82 79 70 64 61 64 69 67 64 62 61 61 59 58 58 57
83 83 83 84 82 84 82 85 88 88 92 92 96 89 90 64 60 54 49 47 46 45 49 54 55 58 64 65 70 82 72 63 60 67 71 66 62 60 59 58 58 58 58
70 89 92 92 89 90 91 88 88 91 94 94 91 94 90 79 71 61 51 48 46 45 47 55 58 62 60 65 77 80 84 81 67 64 74 77 65 62 59 57 57 58 57
57 57 68 82 90 92 95 92 90 90 92 96 94 87 88 80 94 91 71 53 62 53 52 54 53 54 59 65 77 81 82 83 78 73 81 77 91 77 60 61 66 58 56
64 73 74 70 75 83 89 90 92 94 92 91 92 91 92 90 81 89 90 84 70 63 60 56 53 53 57 59 69 79 82 79 77 74 77 76 76 76 81 81 75 73 74
69 68 78 83 88 90 92 92 90 96 95 95 88 90 87 86 84 88 92 91 87 73 70 69 69 70 69 70 73 79 77 74 76 76 74 77 71 69 68 88 86 81 82
73 77 83 87 86 86 89 94 96 96 96 98 94 94 94 91 91 89 91 93 95 78 71 70 70 71 65 69 70 80 79 78 77 76 76 81 74 73 72 81 84 88 87
85 86 85 83 84 85 87 88 95 96 94 94 94 92 94 93 92 89 93 90 96 91 77 70 78 74 74 74 77 81 71 83 79 77 78 82 86 86 85 90 88 85 83
80 84 84 84 84 85 90 87 90 91 90 90 90 91 89 88 86 86 90 90 90 94 80 80 81 82 86 81 83 75 78 82 83 80 83 88 93 93 92 89 87 81 79
75 80 82 82 83 84 84 87 88 86 85 88 88 86 88 86 86 86 87 85 87 89 94 91 94 91 83 85 86 83 88 92 89 83 92 90 89 89 87 85 86 84 79
72 76 80 80 80 81 81 85 86 85 82 84 84 84 84 82 84 85 87 85 92 94 98 99 92 89 88 92 88 87 90 93 92 89 87 85 85 84 84 84 82 78 76
74 76 77 78 79 80 79 80 82 82 82 84 84 85 86 80 84 83 85 87 92 92 96 100 96 96 97 92 92 92 89 85 88 87 84 82 81 79 77 77 77 81 78
79 77 76 78 80 81 80 80 81 86 88 86 83 83 84 82 86 88 89 92 93 90 94 92 95 93 92 96 98 99 96 94 89 90 86 84 83 82 83 80 79 80 80
82 82 80 80 81 84 88 88 90 91 88 88 87 84 81 82 87 91 97 100 96 92 90 92 93 92 92 95 97 96 86 90 87 64 66 69 69 68 66 66 65 63 63
80 80 78 78 78 82 83 85 86 88 87 89 90 90 94 89 86 87 86 90 86 85 87 90 87 81 78 74 80 74 72 62 59 62 55 51 51 50 49 54 58 60 58
83 81 81 81 82 80 82 83 85 85 84 86 90 90 87 85 80 79 80 80 77 85 93 89 81 69 67 63 60 63 65 65 63 58 57 50 52 48 46 45 56 60 59
88 91 87 83 84 79 82 84 83 77 80 86 85 82 77 74 74 69 71 71 74 70 73 70 66 66 63 63 74 80 75 70 63 57 63 55 52 48 45 45 62 64 63
89 86 85 83 82 78 79 79 78 80 82 80 77 75 72 73 70 65 66 72 68 68 69 64 65 66 66 65 68 73 71 72 60 58 62 68 53 50 49 50 68 69 67
96 96 89 89 91 91 66 69 76 76 77 73 66 69 64 66 64 70 66 74 57 64 60 67 64 61 62 63 60 70 78 78 62 50 54 62 55 60 54 52 50 68 66
98 88 94 91 82 88 62 62 73 58 63 52 54 55 66 64 60 61 66 60 59 58 66 62 49 45 49 52 66 63 74 81 73 70 55 74 64 65 72 49 50 51 50

GFSMA_sfc_rhum_054.txt.gz
RH
52 46 42 42 44 46 47 49 50 46 48 47 46 45 44 40 34 28 28 79 83 81 79 76 70 71 69 65 61 62 63 63 61 62 64 62 63 62 61 61 62 61 61
53 52 48 46 43 46 47 48 49 51 50 50 50 48 48 46 39 35 32 35 73 81 82 78 73 67 68 66 66 64 65 64 63 63 64 63 61 61 61 61 60 55 60
54 53 51 51 49 46 49 50 52 53 55 52 54 51 50 47 46 43 39 37 40 81 83 78 75 72 67 67 66 66 66 64 67 61 64 63 62 62 62 60 61 58 60
54 55 55 54 52 52 53 53 54 55 56 54 54 51 49 50 49 48 47 44 40 38 63 79 79 77 72 67 67 65 65 68 68 65 66 65 64 63 63 62 60 59 59
54 56 55 55 54 56 56 56 56 57 60 56 55 53 52 53 53 50 49 49 48 45 42 58 81 90 89 80 69 65 62 66 68 68 67 66 63 64 63 62 60 59 57
55 57 56 57 56 59 59 58 63 61 63 60 57 60 57 56 56 54 49 45 46 47 46 46 46 50 89 85 80 70 64 62 69 70 69 67 64 64 63 62 60 59 58
57 62 63 61 61 64 62 61 64 69 70 72 85 74 61 54 52 48 46 44 44 44 44 44 44 42 44 82 81 79 72 65 62 73 72 69 66 65 64 61 60 59 58
66 70 72 72 72 73 70 70 72 80 83 81 92 91 75 47 44 46 44 43 42 40 42 41 42 42 44 45 56 80 80 72 65 63 73 74 69 66 64 62 60 59 58
54 72 85 88 88 90 91 88 85 85 92 88 88 88 73 53 57 47 50 44 44 41 42 44 45 45 46 46 56 63 80 79 76 70 69 72 88 82 75 68 69 63 66
46 44 45 50 59 70 84 84 84 83 89 88 91 83 82 73 84 82 55 48 49 48 48 48 46 46 46 48 61 76 80 80 76 72 70 69 77 78 86 80 75 67 66
48 53 58 61 57 56 60 64 67 72 83 86 91 85 82 87 84 92 82 60 52 46 46 49 50 50 52 55 57 68 78 76 72 71 71 68 69 77 82 81 83 78 71
52 53 56 64 68 70 76 78 80 82 82 86 93 88 83 80 84 81 87 80 73 62 56 54 54 54 53 54 62 75 74 76 77 76 74 73 73 80 83 80 83 86 82
54 57 66 66 71 73 78 79 85 87 90 93 95 93 89 88 87 84 88 83 78 64 53 53 55 55 54 57 61 79 74 76 79 78 77 77 74 74 80 72 73 77 87
61 67 67 68 70 70 74 80 88 91 94 97 93 92 91 88 84 86 87 74 80 72 61 60 61 61 63 65 72 78 66 76 81 79 78 78 82 88 92 76 86 89 87
64 68 70 70 70 70 78 80 86 86 88 92 93 91 85 80 79 82 83 80 83 80 75 75 66 73 77 67 78 68 76 84 86 78 80 88 91 90 90 90 89 87 87
62 66 68 68 69 69 71 78 78 77 79 83 80 74 73 73 76 78 80 79 81 83 84 78 83 85 75 72 76 74 77 88 88 88 88 89 86 86 85 84 86 87 88
59 62 65 65 66 66 67 75 76 76 74 74 73 72 73 70 72 73 74 73 77 80 88 95 87 82 80 80 78 77 76 80 85 86 85 83 82 81 82 83 84 82 78
58 60 62 63 63 65 64 66 71 73 72 71 71 75 74 69 73 71 72 76 80 84 87 96 91 91 93 79 81 82 79 70 71 81 84 83 81 79 77 75 74 74 76
60 59 61 63 63 65 64 63 64 69 70 70 70 70 70 70 77 80 80 85 86 83 90 89 89 84 85 88 92 88 85 84 73 74 72 74 74 74 77 78 78 78 79
67 68 64 64 66 70 75 78 78 77 77 77 75 71 71 74 79 83 90 95 90 86 84 86 86 84 84 83 88 78 66 64 59 48 50 54 60 68 67 67 66 65 64
75 74 73 70 71 76 78 83 82 80 81 84 87 87 85 81 82 80 79 80 77 78 79 88 82 76 71 64 66 60 57 50 46 50 46 41 42 42 43 50 55 60 61
78 78 79 75 78 75 84 84 79 80 78 80 84 83 78 80 78 80 80 76 73 76 85 81 78 62 57 52 47 52 55 56 57 50 48 40 37 39 35 35 41 55 58
85 84 81 79 80 80 82 83 78 74 79 87 83 78 69 63 64 62 68 67 70 70 69 56 51 47 48 50 66 74 66 61 52 45 51 45 37 38 37 34 51 63 64
87 85 83 79 82 78 80 76 72 71 75 70 66 64 60 60 62 52 52 58 55 56 58 50 54 55 56 57 60 63 62 60 48 42 49 61 40 43 40 42 55 68 67
93 98 87 86 95 90 70 66 68 69 79 73 59 54 50 55 65 66 56 66 44 52 58 65 62 60 59 61 59 56 70 67 55 38 42 54 47 50 44 44 43 64 65
99 86 100 93 78 94 62 61 65 45 52 40 40 44 65 57 59 60 58 48 45 43 52 53 41 38 42 45 61 48 58 81 68 72 49 68 59 60 74 44 44 45 47

GFSMA_sfc_rhum_057.txt.gz
RH
49 41 37 38 38 40 42 43 46 44 44 44 44 44 44 42 39 37 37 75 72 70 72 73 73 73 72 70 64 63 64 64 61 62 64 62 64 64 62 63 63 60 60
49 48 44 42 38 40 43 44 46 48 48 46 47 46 46 47 45 42 41 44 70 70 68 70 70 67 66 70 67 65 66 65 65 62 64 62 61 61 61 61 61 55 58
48 48 48 48 47 42 43 45 48 49 51 50 50 48 48 48 48 47 46 46 49 78 74 63 66 68 68 66 67 68 67 68 69 65 61 64 63 62 63 61 61 56 60
49 51 52 52 50 49 50 51 51 52 52 52 51 50 56 52 47 47 48 49 52 46 72 76 72 68 69 68 65 67 69 69 69 69 63 67 67 64 64 62 61 60 56
48 52 52 52 51 54 54 55 56 56 58 61 61 58 55 53 49 48 50 51 52 55 53 66 82 81 82 78 72 66 65 71 71 70 69 68 67 66 65 64 62 61 58
51 53 53 53 55 60 61 64 62 65 66 62 58 58 59 58 55 56 52 46 44 50 52 55 59 59 82 74 71 72 68 67 70 73 72 70 69 66 65 63 62 60 59
52 57 62 60 62 62 60 59 63 66 72 70 85 76 69 56 52 52 46 46 46 46 47 49 52 52 52 80 75 69 72 69 70 70 76 73 71 68 67 65 62 60 59
63 74 77 78 80 79 72 73 75 83 87 84 91 94 83 55 51 51 50 48 47 49 49 46 47 48 54 55 70 74 74 77 74 73 73 72 80 78 71 69 65 63 60
57 67 81 89 89 94 93 90 92 94 96 95 94 93 80 65 64 56 57 54 51 52 51 52 50 51 53 55 60 67 77 78 76 75 72 68 69 78 87 83 75 65 63
44 43 47 50 54 66 82 81 80 84 91 92 95 90 86 78 83 77 63 58 53 48 50 54 52 51 53 59 66 81 78 78 75 71 69 70 66 72 82 81 76 72 67
46 48 53 58 62 60 58 60 64 70 77 82 78 85 88 92 88 96 90 75 60 52 49 54 54 55 56 60 63 71 75 76 76 76 75 71 67 67 73 80 77 73 71
48 51 52 56 63 67 70 76 78 79 80 77 84 79 86 93 89 89 94 79 82 70 57 59 58 60 61 62 70 77 74 77 78 78 75 72 70 76 84 76 78 73 73
49 52 62 61 63 68 71 74 79 80 87 88 91 90 90 92 92 92 91 90 87 67 59 62 60 62 59 65 70 82 76 79 81 78 76 74 76 77 78 78 82 87 81
54 58 62 63 64 66 69 81 89 93 93 95 97 97 98 96 95 95 93 94 92 77 65 62 64 66 68 69 79 77 73 79 79 76 74 72 77 83 84 79 85 85 88
59 61 64 67 67 68 70 77 88 88 90 93 94 93 91 92 91 89 88 89 84 83 76 75 77 76 78 73 81 73 76 87 86 87 87 89 89 87 89 91 87 85 84
58 62 64 66 67 67 68 75 77 75 79 85 83 81 82 78 78 80 81 80 82 86 86 83 86 83 78 71 76 76 78 82 86 84 83 84 85 85 84 87 87 87 86
56 59 61 65 64 64 65 72 74 73 72 73 72 72 73 71 77 78 81 79 81 86 88 97 88 83 83 82 79 78 80 76 81 83 83 81 81 80 79 80 81 80 81
55 58 59 61 62 63 63 65 72 73 72 71 72 75 75 70 75 74 78 79 84 87 92 95 95 96 92 82 79 82 79 71 74 73 78 79 78 79 79 76 75 74 75
58 57 59 61 62 63 62 61 63 67 68 69 69 69 70 72 79 82 85 90 92 87 94 96 98 90 91 90 90 85 82 84 72 63 57 61 68 71 70 72 74 75 77
61 62 61 61 64 67 71 72 71 71 72 73 71 70 72 75 81 86 90 96 91 92 88 92 94 93 90 84 86 90 79 74 65 47 48 51 52 57 60 63 65 66 66
69 70 71 70 70 73 75 80 79 78 80 85 86 84 86 85 81 80 84 85 81 81 88 95 92 89 85 74 78 73 72 66 62 64 63 57 54 56 54 47 55 57 56
76 77 79 76 76 71 83 82 78 80 80 85 87 85 84 81 80 79 77 77 74 83 86 87 86 80 70 65 58 69 74 82 83 64 64 59 54 56 50 50 53 56 59
84 87 83 77 78 75 80 80 76 77 86 93 92 89 75 63 68 66 67 66 71 66 64 67 66 60 61 66 83 89 82 81 74 63 65 65 53 56 55 40 45 57 64
90 88 84 79 76 77 78 74 69 78 83 78 76 72 70 65 67 54 59 65 62 61 67 54 66 68 68 69 70 70 75 75 68 62 62 84 60 61 60 60 58 60 67
96 99 92 90 99 93 74 67 71 82 86 80 63 56 54 58 72 64 64 76 54 57 61 63 60 57 57 57 60 72 89 89 81 53 59 71 70 69 64 64 64 58 66
100 94 100 97 80 97 63 59 67 60 61 48 47 55 62 61 60 60 71 58 54 52 59 65 57 54 50 49 56 62 80 94 92 92 72 89 85 79 95 68 63 67 70

GFSMA_sfc_rhum_060.txt.gz
RH
68 66 60 62 63 65 67 69 68 66 63 62 62 62 62 63 63 60 57 72 69 64 60 65 74 74 74 72 68 65 67 67 63 61 65 63 65 65 64 64 63 63 60
70 70 65 60 61 62 64 64 67 71 70 70 67 66 66 66 66 62 60 66 75 68 64 58 63 65 65 71 73 69 67 67 67 65 66 63 62 61 61 62 62 60 59
68 68 71 71 64 60 59 66 68 70 74 69 72 67 67 66 67 67 64 62 67 78 74 62 60 63 66 66 65 70 72 70 68 66 63 65 66 64 64 62 62 57 58
65 70 73 74 72 71 70 74 75 77 79 75 64 64 63 62 64 60 64 70 72 62 76 75 74 66 64 65 66 66 70 74 71 71 67 66 68 66 65 63 63 60 57
62 71 75 76 71 74 73 70 67 65 69 73 78 80 74 71 73 63 72 70 70 68 67 77 83 79 78 68 66 67 67 70 76 74 72 67 68 68 66 65 64 63 59
65 71 73 68 61 70 72 72 74 77 83 82 67 77 90 84 81 79 76 67 67 63 68 68 84 82 82 72 67 64 65 68 70 74 75 74 71 70 67 66 65 64 63
64 72 79 67 71 73 73 72 74 75 79 86 92 89 89 88 83 78 76 64 62 62 59 61 67 68 68 76 74 71 72 71 70 70 72 75 77 74 70 70 66 64 62
74 85 87 89 89 91 89 89 90 92 92 93 97 98 96 82 73 79 69 64 62 63 61 60 61 64 72 76 84 80 77 75 73 73 72 72 74 78 78 78 71 66 63
61 70 85 93 94 96 98 96 96 96 98 96 95 92 91 94 87 78 73 69 65 67 71 64 64 65 72 81 86 83 78 77 74 71 68 69 69 67 74 78 80 69 65
56 55 58 60 63 77 94 97 96 96 95 97 99 98 94 94 94 86 84 77 70 62 67 64 70 72 75 79 77 79 77 77 75 75 74 72 68 65 66 77 79 72 69
59 60 64 70 77 80 74 73 76 90 95 96 94 90 96 95 94 97 94 82 72 68 71 64 64 76 74 81 86 81 76 76 78 77 75 72 67 68 76 77 75 77 71
63 63 63 72 75 82 86 92 92 93 94 94 89 85 88 97 99 98 99 96 88 78 79 76 78 81 83 87 75 81 78 78 78 76 74 72 70 69 75 74 73 74 86
67 69 78 80 81 82 84 89 91 86 89 91 88 95 95 95 95 95 95 96 95 91 75 83 86 86 73 88 87 83 79 79 76 75 72 70 71 75 74 73 71 80 74
76 76 79 80 80 80 84 92 96 97 96 98 97 97 96 97 96 96 96 97 98 94 79 92 92 94 91 94 84 80 85 83 81 83 82 83 83 86 84 80 76 79 82
68 74 79 82 83 82 84 76 93 93 95 96 96 96 95 96 96 96 94 94 93 92 92 95 97 94 92 95 85 87 87 84 83 82 83 85 86 86 88 91 85 81 83
70 75 78 81 81 82 82 84 86 86 90 92 91 89 89 89 90 89 90 89 94 95 95 96 98 94 91 84 83 80 83 79 81 81 82 82 82 83 84 87 87 88 88
71 71 74 77 79 78 79 80 83 81 81 82 81 82 82 85 89 93 93 93 94 96 96 100 96 96 92 93 86 85 86 88 86 78 79 82 81 81 79 77 78 80 82
68 72 73 75 76 76 79 80 83 82 80 80 78 82 86 82 90 91 92 89 92 94 97 98 98 99 95 93 95 85 82 78 89 71 69 73 73 73 75 76 77 77 76
70 71 71 75 75 77 78 80 79 83 81 83 85 83 88 85 88 92 95 96 99 97 98 97 100 96 96 92 92 91 91 92 84 64 53 53 58 63 71 72 70 72 77
74 79 77 75 80 85 86 86 86 90 91 89 88 89 90 86 91 96 96 96 94 96 94 96 96 98 95 90 95 96 84 85 74 50 53 51 46 50 56 57 65 66 67
80 82 78 76 78 78 78 84 83 86 88 92 91 90 92 89 82 82 90 92 87 88 93 99 99 91 88 81 85 84 84 84 80 76 75 69 65 66 60 54 56 55 55
87 84 83 81 81 73 83 82 83 88 90 91 93 92 89 86 81 75 74 73 78 87 91 97 96 90 81 77 91 91 89 96 93 80 74 73 67 62 61 58 46 50 57
91 90 86 83 83 86 83 81 80 88 94 97 96 91 78 71 74 82 71 70 68 61 63 76 79 81 85 85 88 92 91 93 90 80 72 78 70 66 71 51 46 54 58
94 92 90 84 88 82 78 75 76 89 92 89 85 86 84 76 67 62 70 74 74 82 81 69 88 87 88 88 86 83 83 85 84 78 72 92 77 74 71 71 56 59 66
97 99 94 94 98 92 75 70 82 93 94 86 72 69 66 78 67 61 75 75 66 70 60 60 58 54 52 52 57 83 95 94 93 70 78 80 85 85 79 81 78 52 61
100 100 100 100 84 93 67 60 72 86 77 68 63 72 59 72 63 61 82 70 61 63 67 73 66 65 54 53 51 74 93 96 98 96 84 94 93 94 96 88 83 80 80

GFSMA_sfc_rhum_063.txt.gz
RH
76 76 84 89 90 92 94 94 89 80 76 70 69 68 68 68 69 67 62 76 68 66 57 58 70 74 74 74 70 68 69 68 65 64 66 64 65 65 64 64 63 61 62
69 71 71 69 70 74 73 72 73 77 79 79 76 74 74 73 72 69 68 67 80 72 68 59 58 61 65 68 73 74 70 70 69 66 67 66 64 61 62 63 60 61 59
73 71 76 71 66 65 64 72 75 79 80 76 79 75 71 65 66 66 73 64 69 81 75 64 62 61 62 64 66 67 73 73 71 70 66 66 66 63 64 63 62 61 57
70 75 77 81 76 73 72 77 80 82 85 83 75 69 71 69 66 75 74 74 77 66 75 77 74 66 63 63 62 66 68 74 76 73 70 66 68 68 66 64 64 63 62
67 76 80 80 78 81 79 75 74 72 71 74 78 77 82 88 86 76 81 77 76 77 71 82 84 79 76 66 64 63 65 68 71 77 76 74 69 71 68 67 66 64 61
67 76 78 79 70 74 74 75 76 78 82 80 76 74 80 86 90 88 86 76 70 67 74 74 83 81 80 74 68 66 67 68 69 72 76 78 78 73 72 69 67 66 63
67 72 80 72 74 75 76 75 78 81 86 89 88 88 90 78 90 88 88 79 63 66 66 69 72 76 79 84 80 79 76 72 71 73 76 75 78 78 76 72 70 68 66
82 83 82 86 88 89 86 88 90 92 91 90 92 97 96 78 75 79 80 68 69 68 66 65 70 75 90 90 84 78 77 75 73 70 69 68 70 71 73 80 79 70 68
61 70 82 91 94 96 96 96 96 96 96 94 94 93 95 93 94 79 78 71 68 75 76 72 74 79 86 88 88 86 78 77 75 73 71 69 68 67 66 72 78 74 69
60 58 63 64 64 72 81 96 96 96 98 99 98 99 96 88 94 88 86 84 76 70 75 67 74 77 79 84 81 79 78 77 76 75 73 69 66 64 65 69 72 78 72
61 64 68 68 76 85 84 79 80 87 97 97 97 95 95 93 93 91 93 92 80 72 72 72 70 81 81 88 90 85 79 77 75 74 72 70 68 64 70 70 72 72 78
68 67 69 76 78 83 88 93 93 92 95 96 96 95 91 94 99 98 99 96 92 87 81 74 78 91 93 88 81 80 78 75 74 73 69 67 67 71 74 72 72 67 71
73 79 81 83 86 85 86 90 94 94 94 95 94 95 94 95 94 95 96 98 97 94 83 80 93 91 82 94 91 84 78 74 76 80 78 77 74 79 81 75 71 68 74
79 82 80 83 85 86 88 92 96 98 96 97 95 97 98 97 97 96 95 96 100 98 86 84 97 97 97 96 85 80 89 80 78 79 80 83 85 87 90 80 71 77 77
73 78 82 85 86 87 87 89 90 94 96 97 97 96 97 97 97 98 97 96 94 98 98 96 96 95 97 96 87 87 92 77 80 80 79 81 82 84 88 89 89 86 85
72 74 79 83 84 85 87 89 89 89 92 93 92 92 91 92 92 92 92 93 93 94 93 98 99 95 94 87 81 92 83 80 76 77 80 81 81 81 80 84 85 86 86
71 74 76 78 82 83 84 87 86 84 85 88 84 87 85 87 92 92 94 94 96 95 97 100 96 94 91 93 88 86 87 92 91 70 73 76 77 77 79 79 78 79 83
70 69 71 74 78 81 82 87 86 84 83 83 82 87 86 84 89 89 94 93 94 94 97 99 97 99 96 92 95 92 88 82 90 64 63 67 71 72 74 75 75 77 78
71 72 71 75 77 80 84 87 80 82 82 83 84 84 87 89 90 92 93 95 97 97 98 98 100 98 96 93 95 93 92 92 85 58 54 53 54 56 64 72 72 74 75
80 80 77 77 82 85 88 89 86 86 86 87 88 92 92 88 91 94 96 96 96 98 96 96 97 98 95 93 96 93 81 80 80 54 56 57 53 52 52 53 62 64 64
83 83 82 83 83 81 79 85 85 88 90 92 92 89 92 90 86 87 92 93 89 91 94 100 99 94 92 86 85 86 83 88 86 77 73 68 68 67 63 61 58 57 55
91 90 90 88 84 73 84 83 85 91 91 92 96 95 93 88 81 78 77 76 78 88 91 96 97 89 81 80 90 90 90 97 92 84 75 68 68 66 68 63 47 52 56
93 94 92 88 86 89 84 84 83 91 95 96 97 92 79 75 84 85 74 73 66 61 71 80 79 78 85 84 89 92 92 94 90 84 74 68 77 71 73 57 55 54 61
96 96 92 88 89 84 80 81 85 92 96 94 92 88 86 75 71 74 75 79 78 82 79 70 84 86 88 89 85 84 84 87 87 80 76 91 83 80 79 77 57 57 65
98 99 94 93 97 94 75 77 86 93 91 87 79 74 81 72 59 59 75 75 65 75 61 62 64 56 52 53 64 80 95 95 92 78 84 80 90 92 87 90 77 56 56
100 100 100 100 90 97 77 69 81 93 85 80 75 72 67 81 72 65 80 74 62 65 69 73 63 66 54 53 52 74 91 96 98 97 85 94 93 94 93 85 88 86 84

GFSMA_sfc_rhum_066.txt.gz
RH
96 97 97 97 97 97 97 97 96 93 90 84 78 75 73 74 73 71 69 78 75 69 59 57 66 74 74 75 74 71 70 69 66 65 66 64 65 64 64 64 64 62 63
78 81 80 91 92 92 96 92 96 90 85 83 81 79 78 78 77 74 75 70 80 77 72 61 59 61 63 66 69 75 74 73 72 68 68 67 64 62 62 63 61 61 60
70 73 78 75 76 75 76 80 80 84 86 83 86 82 81 69 70 68 71 72 72 84 80 66 65 60 62 62 64 66 69 74 76 73 69 71 69 65 64 64 63 62 59
71 76 80 81 74 71 72 78 83 85 86 86 77 77 73 75 75 77 82 82 83 70 78 80 75 66 64 63 61 63 66 72 74 78 76 72 70 70 67 66 64 64 61
73 78 81 81 81 82 80 75 75 75 74 73 78 75 76 78 85 84 90 85 85 82 84 83 83 80 74 66 65 64 66 70 72 73 76 78 73 73 72 70 68 66 64
73 79 83 82 80 79 79 78 77 81 81 81 83 77 80 78 83 90 91 86 78 79 78 79 81 88 86 78 76 75 75 73 72 75 78 80 80 77 75 72 70 69 65
68 78 83 80 81 76 75 76 79 80 84 89 88 91 89 90 86 94 94 92 70 64 70 67 78 89 90 82 78 76 73 72 72 70 69 70 72 76 78 78 72 71 70
74 77 80 83 84 86 84 84 86 90 91 90 92 97 97 87 83 82 87 74 73 63 64 67 78 91 92 91 85 78 77 76 74 71 69 68 69 69 71 74 76 82 72
86 90 92 92 94 95 95 96 96 96 97 96 94 94 96 96 95 84 78 70 66 69 70 79 83 83 85 90 88 86 79 76 75 74 70 67 65 67 66 66 69 75 74
70 68 65 65 62 68 73 86 97 97 98 98 97 98 98 93 94 94 88 86 78 79 83 78 82 78 78 87 85 82 78 74 72 72 72 70 65 64 63 71 70 72 76
87 83 81 76 76 86 86 84 82 85 97 98 98 96 97 97 96 96 96 93 89 80 77 78 82 83 77 88 95 84 77 72 72 72 69 66 65 69 72 72 69 75 73
82 79 78 78 81 83 89 92 94 95 96 97 98 98 98 95 96 97 98 96 94 87 78 77 82 84 85 94 82 81 77 71 76 77 71 74 73 74 74 75 71 69 68
81 82 81 83 86 86 88 92 94 96 96 97 95 96 96 96 94 96 96 97 97 90 84 86 85 88 83 97 90 87 76 72 75 77 78 80 81 82 86 72 69 68 66
80 81 81 81 83 86 90 92 96 97 98 99 98 97 97 97 97 96 96 97 99 99 86 89 89 93 97 97 85 84 90 76 77 76 76 79 82 86 88 88 84 82 81
77 77 81 83 86 89 90 91 96 95 96 98 98 98 98 98 98 98 97 96 96 98 99 95 94 91 97 96 87 90 92 78 78 79 78 81 81 81 84 86 86 86 88
73 79 80 84 86 88 88 90 94 93 95 96 95 96 94 96 94 93 94 94 95 95 96 96 97 93 94 88 85 92 90 81 77 74 75 78 78 78 79 80 82 84 85
73 76 77 81 84 85 85 89 90 86 88 91 88 91 89 90 93 93 93 93 93 94 97 100 96 92 90 89 93 92 91 93 93 70 71 73 75 76 76 78 79 79 80
77 78 79 80 83 83 85 88 87 91 86 88 88 90 89 87 90 90 91 93 94 94 96 99 98 100 97 93 95 94 90 85 91 73 58 56 63 69 75 74 77 79 79
80 80 78 80 83 83 84 84 86 88 85 85 86 89 88 88 91 93 93 94 96 94 98 98 100 97 97 93 94 94 94 89 79 55 55 56 53 55 58 71 74 74 75
85 86 84 82 85 88 89 90 89 88 84 86 86 87 88 88 90 93 94 96 95 98 97 98 98 99 96 93 94 88 81 81 79 54 56 56 57 57 55 54 61 60 63
88 89 88 88 89 87 85 91 89 88 89 90 90 89 92 90 86 88 92 96 95 95 97 100 100 96 94 91 88 85 82 87 81 80 73 67 72 67 67 69 61 55 52
91 91 91 91 91 79 80 82 84 92 92 92 95 96 94 91 86 80 78 76 79 90 92 96 98 90 84 81 86 87 90 96 88 84 76 64 73 71 73 64 52 52 56
94 94 94 93 92 92 83 83 84 92 95 97 97 94 82 82 85 87 76 72 66 69 76 87 87 84 80 82 88 93 92 94 86 82 76 65 80 75 75 62 66 54 64
96 96 95 93 93 88 82 85 86 95 98 96 95 88 82 73 80 79 83 83 83 81 78 67 78 81 83 87 84 83 84 86 84 79 77 89 85 83 84 82 61 56 63
97 99 95 95 96 95 80 81 88 94 95 92 83 82 82 72 65 63 77 81 75 77 65 69 71 67 68 72 74 82 96 92 87 75 83 82 88 92 89 91 80 66 64
100 100 100 99 92 99 82 78 86 96 91 86 76 77 74 74 64 63 76 74 67 66 76 73 70 60 56 53 57 68 89 95 96 96 85 94 93 95 90 82 90 88 85

GFSMA_sfc_rhum_069.txt.gz
RH
98 98 98 98 97 96 97 96 96 94 94 92 86 82 79 78 78 74 75 78 79 72 61 58 62 69 74 74 75 74 73 72 69 66 68 64 64 64 65 65 63 62 62
97 98 98 97 96 96 96 96 96 96 92 88 83 85 83 84 84 75 70 71 78 78 75 61 60 61 62 62 65 69 76 76 75 72 70 69 66 63 62 63 62 61 60
87 87 86 87 93 91 89 94 86 87 91 88 90 86 85 85 82 72 72 74 76 84 81 68 66 62 62 61 63 64 67 70 74 78 74 71 71 68 64 64 64 63 60
73 79 83 82 76 76 79 83 86 89 89 89 88 82 74 75 74 76 76 76 80 75 79 80 77 68 64 64 62 63 66 71 74 73 78 76 74 73 69 69 66 64 62
71 78 84 85 85 81 79 77 81 75 84 76 76 74 83 77 77 80 85 91 90 86 82 85 84 80 74 66 64 67 71 74 74 77 79 79 79 75 74 72 69 66 66
77 81 86 85 86 89 88 80 77 82 82 80 82 87 90 88 90 93 93 90 91 85 87 86 96 96 86 80 76 73 70 71 71 70 71 71 76 78 81 76 73 71 67
73 80 88 88 89 90 86 79 80 82 84 88 91 88 92 90 92 91 93 95 84 78 75 72 86 88 92 79 76 74 72 72 70 67 68 69 68 68 73 76 77 73 71
73 76 81 88 83 85 82 87 87 88 89 90 91 97 96 90 86 86 86 82 81 74 70 70 78 83 94 93 86 78 74 73 72 69 66 67 65 66 67 67 70 76 76
82 84 86 90 93 95 94 94 95 95 96 96 94 93 92 97 96 87 82 79 78 78 74 78 80 84 89 92 88 85 76 72 70 69 70 68 64 62 61 65 71 69 77
88 88 86 88 87 82 79 83 95 96 98 99 96 98 98 93 91 94 90 92 86 80 83 86 81 77 82 90 86 81 75 72 69 69 67 66 64 61 67 70 70 69 72
92 92 93 91 85 84 83 82 84 83 96 98 98 97 97 98 99 100 96 89 91 88 83 80 78 81 80 89 90 86 74 71 72 68 67 69 71 70 71 72 72 69 71
96 92 86 78 75 80 85 90 93 95 96 97 98 99 96 96 96 98 99 96 95 95 88 84 82 84 84 87 84 81 74 74 72 72 74 76 76 74 76 70 70 68 67
91 85 82 82 82 85 89 92 93 95 96 97 96 97 97 98 96 95 96 95 98 96 94 88 88 86 83 86 86 86 77 75 72 71 73 74 79 84 88 73 68 64 64
84 85 84 81 81 82 88 92 96 97 98 99 99 99 99 98 97 97 96 93 99 99 91 92 90 91 91 90 82 84 91 79 75 72 74 77 81 84 86 85 82 82 80
85 83 82 84 86 87 91 92 96 96 96 97 98 98 99 98 98 99 99 97 98 98 99 98 96 92 94 89 85 92 93 78 76 78 77 79 80 81 83 84 84 83 86
80 82 82 87 89 89 89 90 94 95 97 97 98 98 97 96 95 94 96 97 98 99 98 96 98 96 91 85 84 91 91 83 80 71 74 76 76 75 78 80 82 84 84
77 78 81 85 86 84 88 90 91 92 95 94 94 92 94 92 95 93 93 94 94 96 98 100 96 93 90 89 88 89 92 93 92 70 71 68 69 75 76 77 80 80 81
75 80 83 84 86 87 88 89 90 90 95 94 89 92 92 89 93 92 93 94 94 94 96 99 99 100 97 91 90 92 90 86 89 69 57 57 59 66 73 75 76 78 79
74 76 79 84 85 87 88 88 90 92 93 92 90 91 92 90 93 94 93 95 96 94 98 98 100 97 96 94 94 92 93 85 66 55 58 62 58 55 57 68 71 73 74
85 87 85 85 87 89 90 90 91 91 91 90 86 88 91 91 92 93 94 96 94 96 96 98 97 98 96 93 92 85 82 81 74 54 57 57 58 57 59 58 59 61 60
89 89 88 89 90 89 87 92 92 92 92 90 90 91 93 92 89 87 92 95 94 96 98 100 100 97 96 92 91 87 81 80 80 80 72 66 68 66 69 66 63 55 57
92 91 92 91 92 85 78 80 86 95 91 92 94 96 96 93 87 82 81 81 84 92 94 97 98 90 84 86 86 81 82 90 81 85 76 63 72 70 73 74 58 54 60
94 94 94 94 94 92 83 83 84 93 96 97 97 96 90 88 88 87 79 73 72 75 76 85 87 87 84 83 86 92 91 92 83 82 76 61 75 72 75 65 66 57 66
96 96 96 95 95 92 84 84 86 95 97 97 96 90 86 81 84 86 86 84 84 78 76 67 78 79 82 83 84 84 84 85 85 77 76 85 80 78 81 84 65 59 62
97 98 95 96 96 95 83 84 92 98 99 97 92 83 77 72 68 71 80 82 81 79 68 71 72 72 74 74 78 86 97 94 85 72 80 77 86 84 85 88 84 73 68
99 100 100 99 93 97 84 82 88 90 93 86 74 73 77 74 65 63 76 73 70 76 77 77 73 61 58 57 59 72 90 96 97 94 82 91 86 88 86 81 88 88 84

GFSMA_sfc_rhum_072.txt.gz
RH
98 98 98 98 98 97 96 96 96 94 93 92 91 87 83 83 82 82 82 81 74 71 63 59 59 65 72 73 75 75 74 74 73 69 70 66 64 62 63 64 62 63 62
98 98 98 98 97 97 96 96 96 96 96 92 87 85 85 87 88 87 83 74 79 78 73 65 60 61 61 62 64 66 68 71 76 76 72 71 68 64 62 63 62 62 61
95 96 98 98 97 96 94 96 95 92 93 90 91 89 88 88 88 76 78 76 77 86 80 75 67 63 61 62 64 63 67 72 74 74 79 74 73 70 66 65 63 63 61
85 90 92 88 85 94 92 90 92 92 94 94 91 87 84 81 84 81 81 86 88 81 82 78 77 68 65 63 61 62 70 78 77 78 79 78 76 75 72 69 66 65 62
75 80 84 84 82 81 80 81 85 90 88 89 83 76 76 86 87 84 90 90 92 92 92 85 83 79 74 65 65 71 72 70 71 72 73 74 78 78 76 73 71 68 66
74 75 83 85 89 88 87 87 83 83 82 81 82 88 92 93 94 94 94 91 94 89 92 90 94 94 85 77 73 70 69 69 68 68 69 70 70 70 76 78 75 72 68
78 74 77 86 90 93 91 83 82 83 88 88 90 93 92 90 92 90 93 95 92 89 88 96 92 90 86 79 75 72 70 70 70 67 66 66 66 68 68 70 75 78 73
77 78 79 85 89 92 85 85 87 90 90 91 91 96 95 91 90 90 87 87 88 80 79 85 86 81 86 95 86 76 70 68 67 67 67 63 67 63 61 64 67 69 76
81 84 85 89 89 93 94 92 93 91 93 96 94 90 92 96 96 92 88 84 84 87 89 87 81 80 89 94 90 86 74 71 65 66 65 65 64 60 60 58 67 72 73
94 96 97 98 98 97 96 96 97 96 97 98 95 97 98 94 96 93 92 93 90 85 92 88 83 80 85 94 85 82 74 73 66 66 63 63 63 67 69 68 70 71 72
97 96 95 96 96 93 86 84 79 82 96 96 96 97 98 99 94 98 98 96 94 90 83 88 85 84 81 92 94 82 73 72 69 69 70 72 74 73 68 69 70 69 68
98 98 96 95 90 88 87 86 89 91 94 96 97 98 93 93 97 99 97 96 95 90 84 84 86 93 95 87 84 80 76 75 70 67 68 70 73 78 84 67 62 66 66
97 96 95 89 87 84 86 90 92 95 96 97 96 97 98 98 97 96 96 94 95 91 90 88 92 94 81 86 86 84 78 73 71 67 68 74 78 83 85 81 80 78 68
97 96 97 94 86 82 88 91 95 96 97 98 99 99 98 98 98 98 97 97 96 98 94 92 94 90 93 95 88 84 86 78 74 70 73 75 79 82 83 82 78 81 86
96 95 94 90 86 89 91 92 94 94 96 96 97 98 99 98 98 99 98 95 92 96 98 98 98 94 95 92 89 86 87 78 74 74 74 77 78 78 81 82 82 82 83
87 89 86 86 87 88 90 92 94 94 96 97 98 98 98 98 98 97 98 98 99 99 98 96 98 98 94 89 91 86 86 84 79 70 72 74 74 75 77 80 81 82 82
81 83 83 85 86 87 89 90 91 90 94 96 95 96 95 95 97 96 94 94 95 96 99 100 97 95 93 92 89 87 87 92 91 70 68 64 68 73 74 77 79 80 82
77 78 81 82 81 82 86 89 89 90 92 94 95 94 94 90 95 94 94 94 95 94 97 99 99 100 97 90 89 88 86 84 86 63 58 57 60 66 72 74 76 78 78
82 79 76 77 79 86 88 89 90 91 92 93 94 94 93 92 94 96 95 96 96 94 98 99 100 97 96 93 95 92 85 86 64 56 61 63 61 58 58 66 68 72 74
85 87 82 81 87 90 90 90 90 91 92 92 92 91 92 94 94 96 97 97 96 97 95 98 98 98 96 92 91 87 82 79 76 55 56 59 59 57 61 59 57 56 60
89 89 89 90 90 89 88 91 92 93 93 93 92 92 93 92 91 90 93 96 95 96 97 100 99 97 96 93 91 82 82 78 76 81 70 64 66 65 69 64 60 57 59
92 92 91 91 92 88 80 79 88 95 95 95 94 94 96 94 91 86 84 84 87 95 97 99 99 94 91 84 79 83 82 90 76 84 73 59 69 69 72 72 55 57 61
94 93 94 94 94 93 81 81 83 94 96 97 96 98 94 92 91 91 82 80 81 80 80 87 90 87 82 80 89 91 88 91 75 80 75 59 74 71 75 66 68 62 65
95 96 95 95 95 93 84 83 86 95 96 97 96 95 92 88 87 86 80 83 81 78 75 68 81 82 82 86 82 80 81 82 83 77 74 86 81 76 80 82 64 62 62
97 97 96 96 96 96 84 81 94 98 99 98 95 86 80 76 77 78 84 84 85 87 70 71 72 71 73 74 79 84 95 92 81 72 79 75 82 78 81 82 81 71 65
99 99 100 98 93 99 86 82 91 96 98 96 85 82 84 75 70 69 80 80 81 85 81 75 71 64 62 72 72 74 91 93 95 94 79 89 82 82 85 77 82 82 82

GFSMA_sfc_rhum_075.txt.gz
RH
80 75 73 72 71 68 64 63 63 62 62 62 61 59 56 55 54 56 57 82 78 71 67 61 60 61 65 70 69 73 73 74 75 71 70 67 64 62 62 63 61 63 62
74 75 77 75 73 69 66 64 67 70 66 65 60 58 58 58 57 60 60 60 83 80 76 72 65 61 60 61 64 65 68 71 72 77 75 73 70 66 63 62 62 62 61
74 73 74 75 71 68 64 71 70 67 66 64 61 59 59 57 60 60 58 59 61 86 81 74 72 66 62 61 63 62 69 76 77 77 77 76 75 72 68 66 64 64 61
73 72 74 73 70 70 69 67 66 65 64 64 61 59 58 57 56 57 58 59 62 61 74 77 76 74 65 64 61 63 75 72 72 75 75 77 78 77 74 70 68 65 64
69 69 70 68 64 65 68 66 63 62 65 65 65 60 65 60 60 60 58 64 64 64 63 80 84 81 76 66 68 71 68 69 70 70 71 72 75 76 79 76 72 69 66
68 68 66 64 63 65 64 62 60 64 63 71 77 76 61 60 60 62 62 63 63 69 66 68 65 69 84 76 70 68 68 68 67 65 65 68 69 68 71 75 78 74 70
78 80 72 67 68 71 64 62 63 73 84 84 83 64 62 59 62 59 58 62 66 67 66 69 68 67 70 78 74 71 68 66 66 68 64 61 64 63 64 66 68 80 73
89 79 74 78 77 74 73 79 78 83 80 78 83 81 69 59 59 63 57 61 63 62 66 68 66 65 70 75 73 71 67 64 62 63 64 66 62 62 61 61 63 69 74
92 86 82 85 86 87 85 86 87 86 84 91 85 82 75 71 74 64 65 59 60 59 61 67 64 65 66 66 66 70 73 71 64 64 62 62 63 60 64 66 65 69 71
98 96 94 94 92 93 94 93 92 93 92 86 85 83 84 81 80 68 66 65 62 60 64 64 64 66 72 74 76 79 75 72 66 63 66 69 69 69 66 64 65 69 71
97 98 99 97 97 95 96 92 80 80 88 86 81 80 82 85 81 90 78 72 70 67 66 66 68 62 70 70 70 75 74 70 66 66 69 69 69 70 74 70 69 68 68
98 97 99 99 99 98 96 94 89 87 87 84 80 82 77 75 81 90 90 79 81 71 69 69 75 76 76 70 74 82 76 72 70 66 66 71 71 76 80 76 64 68 65
98 98 97 95 96 95 93 90 91 91 92 89 84 85 86 86 79 82 83 78 79 73 73 71 75 79 71 72 73 81 81 77 73 67 67 73 75 80 82 77 76 80 78
93 94 96 96 97 97 97 94 93 91 89 91 90 92 88 86 88 89 88 86 86 80 78 75 78 76 77 73 85 83 81 79 74 72 73 75 75 80 81 81 78 80 82
94 94 94 96 94 93 92 89 86 84 87 88 89 89 88 88 88 89 94 92 89 83 86 85 87 85 83 81 86 77 81 80 75 74 75 75 76 76 80 81 79 80 84
91 94 89 90 85 83 81 84 86 83 85 89 88 89 90 88 86 86 90 90 91 96 93 91 91 92 88 86 88 83 87 88 76 70 71 71 73 74 77 79 81 80 82
81 82 79 80 82 82 80 81 79 78 79 83 85 88 86 83 85 86 87 87 90 94 99 98 96 93 94 91 92 87 83 83 82 67 68 64 70 71 74 76 78 80 80
74 72 74 73 72 77 77 75 77 77 76 78 80 88 87 85 84 85 86 88 91 92 96 98 98 100 97 91 89 86 82 74 69 61 59 58 61 68 71 72 74 77 78
73 71 70 73 76 74 73 72 73 74 77 80 82 84 83 84 85 87 87 92 93 92 96 97 100 96 96 91 94 92 84 76 53 60 62 64 62 58 64 65 69 71 74
74 73 71 72 74 75 77 79 79 77 78 79 80 80 79 84 85 87 94 96 94 95 94 96 98 98 95 91 90 88 78 72 61 46 52 57 58 62 59 59 55 57 60
75 74 76 77 77 77 76 79 79 78 79 80 82 82 84 86 90 88 92 94 94 94 96 100 98 95 95 91 88 77 79 64 59 59 53 49 46 48 55 59 59 58 58
79 78 78 78 81 77 82 83 82 82 84 85 85 83 85 91 87 86 86 86 87 93 96 97 97 93 90 85 77 75 72 68 68 61 54 47 51 51 53 57 56 59 58
84 84 82 80 79 78 81 81 83 84 85 89 91 90 89 90 92 90 85 84 83 82 80 85 90 87 82 76 79 81 71 65 52 61 55 45 52 51 54 50 71 63 64
85 84 83 83 83 81 83 83 84 87 90 91 93 92 91 90 89 83 80 80 71 66 63 62 74 75 71 72 69 72 67 65 63 59 55 58 55 54 56 63 65 64 63
91 97 88 89 92 92 85 81 91 95 95 93 88 87 84 83 85 84 78 81 65 69 67 69 68 70 73 72 68 64 71 71 63 57 60 53 60 57 60 65 67 71 64
94 92 100 96 91 98 86 83 92 88 92 89 88 86 84 76 80 80 72 65 64 64 69 67 67 66 70 71 71 64 77 85 73 73 62 72 64 61 72 62 64 62 67

GFSMA_sfc_rhum_078.txt.gz
RH
54 50 47 46 43 41 38 37 37 37 40 44 44 43 43 42 41 41 42 78 78 75 70 65 62 62 64 69 70 71 75 74 74 75 72 69 66 63 61 62 61 62 61
57 53 49 48 46 42 39 39 42 46 45 46 45 44 44 44 42 42 40 43 84 82 77 74 71 65 62 61 68 68 70 71 74 76 76 74 73 69 64 63 62 62 60
57 54 51 52 49 46 39 43 45 49 49 47 47 44 44 43 41 41 42 42 49 89 82 76 73 71 65 63 65 65 73 76 74 76 76 76 77 75 71 67 64 64 61
60 53 51 52 49 49 46 48 51 51 48 46 45 45 44 42 41 40 42 43 44 45 70 79 76 74 70 67 62 68 74 71 70 71 73 75 77 78 77 73 70 66 65
62 58 53 52 52 52 52 50 49 46 47 49 48 44 44 44 42 42 42 44 48 51 48 74 84 83 78 66 67 72 69 68 68 68 69 70 72 73 76 79 74 71 68
58 57 55 52 51 53 50 52 48 46 48 48 50 62 61 43 43 44 43 42 44 51 53 57 58 64 83 77 70 68 67 67 66 66 61 64 66 68 68 72 76 77 72
64 67 72 62 53 52 50 47 48 52 56 59 76 61 48 43 46 45 43 43 46 50 53 53 51 56 64 79 72 69 66 64 62 63 66 66 61 63 64 64 68 72 78
71 71 77 86 71 64 54 52 56 63 66 67 60 63 58 46 44 46 44 45 48 50 54 57 56 56 58 54 65 68 64 61 60 61 62 63 65 61 60 62 63 66 71
76 85 87 90 88 86 78 67 71 70 72 72 77 64 57 52 52 44 52 46 48 49 50 56 54 54 54 54 62 66 72 70 63 60 59 60 64 65 65 66 67 69 72
92 94 96 98 99 95 94 85 78 74 72 77 79 67 63 59 60 47 51 51 50 49 51 52 53 53 54 55 71 78 75 73 67 65 66 67 68 67 68 66 66 64 67
97 99 99 99 99 99 99 96 93 93 84 77 80 78 63 61 58 61 50 42 55 51 50 53 52 53 58 62 60 71 75 70 64 63 64 67 68 66 71 76 65 65 67
97 97 99 98 96 96 96 96 98 96 93 88 88 87 79 76 62 63 63 52 53 53 57 56 56 55 57 63 73 81 74 71 66 64 64 70 71 71 77 77 78 75 70
96 97 97 97 98 97 97 96 96 98 96 94 90 87 78 74 65 64 65 60 59 51 56 54 55 57 58 60 72 80 80 74 69 66 67 72 74 74 80 79 76 75 78
88 90 93 92 91 90 95 97 96 95 96 97 93 86 75 75 74 77 77 72 74 69 58 61 59 60 61 62 70 81 76 79 74 75 74 73 75 77 79 79 78 76 80
88 87 88 89 91 89 90 87 90 89 89 89 84 80 78 76 75 78 79 78 77 85 66 62 73 69 68 69 76 69 76 81 78 75 75 75 76 76 78 81 80 79 82
86 88 91 93 89 84 82 82 79 77 78 80 78 75 75 76 75 74 82 83 89 93 90 72 78 85 83 79 84 78 82 87 78 74 74 72 73 74 77 78 81 79 80
85 90 90 86 80 74 72 74 73 74 73 74 78 78 75 69 69 68 72 75 81 84 94 97 90 87 92 94 93 85 86 86 82 69 69 66 71 71 73 76 78 78 80
72 83 84 79 72 68 66 66 70 70 68 73 73 82 83 78 77 74 80 77 83 84 96 97 96 99 97 93 90 86 80 73 71 69 61 60 61 70 72 73 74 77 78
62 64 69 68 63 62 59 58 55 60 61 60 63 67 65 69 73 70 70 74 84 84 89 96 99 95 95 92 95 92 86 75 55 70 65 64 60 59 65 67 67 69 74
58 58 58 58 58 58 55 55 58 60 62 61 61 63 65 68 73 70 74 81 85 91 91 94 96 98 95 94 93 93 87 78 64 46 52 56 56 65 59 58 55 58 61
58 58 56 58 58 59 61 63 64 61 61 63 66 66 73 75 87 81 81 85 90 92 94 99 98 97 96 95 94 87 88 77 66 63 51 44 42 42 53 55 57 59 59
60 61 62 62 65 61 78 80 70 69 68 68 72 70 70 88 83 86 86 84 84 92 96 97 98 96 92 90 83 83 82 79 80 54 53 46 41 42 42 50 61 60 58
66 70 66 63 64 63 82 83 83 67 71 74 77 76 78 74 86 82 85 84 84 82 81 82 92 90 88 80 82 86 80 78 64 52 51 45 42 42 46 41 69 62 61
71 69 69 67 66 66 82 83 84 72 73 75 79 75 79 84 88 81 78 80 70 66 68 66 75 75 76 77 77 75 69 61 54 50 50 58 44 44 47 53 66 65 62
77 84 72 71 76 78 84 84 85 82 83 83 76 73 79 82 85 82 75 79 67 66 66 67 68 70 71 70 64 62 72 72 60 48 52 48 51 50 51 60 64 71 64
82 84 98 82 82 86 84 85 85 83 84 75 72 74 85 78 84 86 74 70 68 57 57 62 64 69 66 68 66 56 68 94 67 66 52 67 56 53 70 59 63 61 68

GFSMA_sfc_rhum_081.txt.gz
RH
57 49 46 45 46 42 40 41 36 32 33 34 36 37 40 39 38 40 42 80 77 75 71 68 67 64 64 71 74 74 74 75 73 75 76 73 69 65 62 61 60 61 60
52 48 45 44 43 42 41 36 35 36 36 39 42 41 41 41 40 39 41 53 84 82 77 75 73 71 66 65 68 72 71 71 74 76 76 77 75 72 67 64 62 62 60
50 47 48 52 51 48 37 36 36 39 42 40 42 41 42 39 40 39 40 42 55 87 82 76 74 72 68 65 70 69 74 74 72 74 76 77 78 79 75 70 67 64 61
53 53 56 55 53 46 45 39 42 46 48 45 45 43 42 41 39 37 38 40 46 43 78 82 76 74 72 69 66 70 74 71 70 70 72 73 76 76 77 77 72 69 66
60 56 50 52 49 51 49 46 48 48 50 47 46 44 50 42 40 37 39 41 44 50 51 81 82 83 80 72 64 74 70 68 68 67 66 68 70 70 71 76 77 74 70
63 59 57 58 56 58 54 53 51 49 48 47 50 51 50 48 46 42 40 39 40 47 50 55 68 74 82 77 73 69 67 66 66 67 66 63 63 66 67 68 70 74 76
60 66 69 68 63 64 55 51 51 51 54 57 68 58 58 49 44 45 44 41 42 46 50 55 57 66 74 81 73 69 65 61 60 61 63 65 67 64 61 64 64 67 72
67 69 76 78 76 80 75 70 55 56 56 59 66 66 67 53 48 47 45 44 43 51 54 56 57 62 67 65 74 70 64 60 60 60 61 62 62 64 61 61 61 65 68
73 78 81 81 86 91 94 91 89 66 77 78 76 71 64 63 55 49 54 46 46 50 52 59 58 59 60 63 72 72 71 70 64 58 59 61 65 66 65 64 63 64 66
84 89 88 90 91 93 94 95 93 95 82 85 86 79 66 67 62 57 54 52 50 47 51 59 58 58 57 62 78 78 76 74 68 65 66 66 66 65 66 66 72 68 67
93 86 94 92 96 97 98 97 100 99 100 97 95 90 74 77 69 70 60 55 59 53 50 53 55 57 61 64 68 75 73 71 64 63 62 66 67 67 67 74 73 68 62
96 96 97 96 97 98 98 99 99 99 99 98 98 95 88 82 81 81 78 64 56 54 60 61 62 62 64 66 70 82 76 71 66 63 63 68 70 71 72 77 74 74 75
92 91 92 94 97 98 98 98 98 99 98 98 98 98 96 94 87 75 74 69 65 59 62 60 62 64 61 69 72 82 81 73 68 66 68 74 74 73 76 76 77 72 75
87 86 91 93 94 94 97 97 98 98 98 98 98 96 95 94 87 77 75 76 77 67 61 60 67 66 69 71 80 81 81 77 74 76 76 75 76 76 76 79 77 76 79
93 92 94 97 97 95 95 95 98 97 94 95 94 91 87 82 81 81 82 82 82 82 76 68 82 74 75 76 80 76 80 83 78 77 76 75 76 76 76 75 78 80 80
84 92 94 94 95 94 94 94 91 84 86 85 85 85 81 80 79 82 87 84 83 86 88 85 87 89 82 78 84 79 84 87 79 75 75 74 73 74 76 77 78 79 80
77 90 95 96 95 92 89 86 82 81 79 79 83 83 81 82 82 80 82 84 86 91 96 98 94 88 90 92 92 86 90 88 90 80 74 67 70 70 72 74 76 78 80
69 84 90 92 91 88 79 76 77 75 75 76 79 85 81 79 82 81 84 85 87 89 94 90 96 100 98 94 93 91 82 74 79 76 66 62 62 70 70 72 76 77 79
60 67 83 90 89 86 74 67 66 68 68 68 68 73 75 75 79 79 79 83 86 88 94 98 100 97 98 95 97 94 90 81 63 80 67 63 61 60 65 66 63 67 72
59 61 65 76 81 78 72 67 65 62 63 65 64 67 67 70 77 78 83 83 84 94 91 97 98 99 97 95 94 96 93 87 73 57 66 61 57 63 59 57 56 60 62
58 61 61 63 62 67 66 64 65 66 67 69 68 66 73 76 86 84 81 85 91 94 97 100 100 98 98 97 98 94 94 90 81 76 70 60 61 59 69 59 57 58 58
60 61 63 62 65 60 72 76 70 68 66 67 71 73 71 87 84 85 87 86 84 95 98 98 99 96 94 94 93 92 90 92 92 75 76 70 57 62 56 66 63 59 57
66 68 66 64 64 64 80 82 82 66 73 76 80 78 77 74 86 81 86 86 85 83 83 88 93 91 93 90 91 92 90 93 89 72 75 76 61 62 60 45 65 61 62
72 70 70 68 68 64 84 86 86 75 74 78 83 81 80 77 83 85 86 91 82 75 77 76 83 82 83 85 86 85 85 81 71 64 67 84 61 62 64 66 63 66 64
80 82 77 75 77 80 86 88 88 88 91 84 74 74 74 78 82 84 87 90 78 74 65 62 67 71 71 75 75 83 89 89 81 70 68 67 66 69 65 76 79 65 63
86 86 90 88 82 86 85 88 89 89 92 84 76 74 82 80 83 88 84 82 81 73 71 79 83 82 78 76 69 76 91 95 92 88 68 86 68 72 86 73 82 82 86

GFSMA_sfc_rhum_084.txt.gz
RH
77 72 69 72 72 68 67 65 64 53 49 45 45 48 53 57 56 60 66 81 78 76 69 68 68 69 67 69 76 74 78 74 73 76 77 76 72 68 64 62 60 61 60
72 68 66 66 64 62 58 57 54 52 50 51 54 55 57 58 58 51 65 71 84 82 79 72 72 71 70 67 67 72 74 73 75 75 76 78 77 76 72 66 63 62 60
66 64 63 66 62 60 54 54 50 50 56 57 60 58 58 58 52 53 56 69 80 89 84 75 74 70 70 65 71 73 75 74 72 72 72 75 77 78 78 75 69 66 62
63 66 70 69 67 66 60 59 56 59 68 67 66 63 58 54 54 54 52 52 65 67 87 82 80 72 69 68 71 73 76 72 71 71 69 70 72 74 74 77 77 72 68
67 71 72 72 67 67 66 62 59 64 71 69 65 63 59 56 52 48 53 54 60 66 73 89 82 83 78 76 69 75 72 70 69 66 63 64 66 69 67 70 74 77 74
75 75 71 69 67 70 71 67 66 66 69 68 57 56 62 59 64 66 55 53 56 59 66 80 92 88 81 77 72 72 69 68 68 66 65 64 64 63 63 66 66 68 72
86 79 82 85 81 77 69 67 67 66 72 70 75 71 68 66 68 62 62 59 59 65 68 72 89 94 91 82 78 71 68 64 61 61 62 64 64 65 63 60 61 63 66
80 82 86 89 87 90 83 83 88 80 72 72 85 86 86 83 71 65 64 59 62 71 70 70 80 86 92 91 86 74 64 59 59 60 60 61 62 65 64 63 60 64 66
87 87 88 92 95 96 98 94 93 95 97 89 88 89 93 85 81 72 68 66 64 70 78 75 75 77 82 89 84 81 76 70 65 59 60 65 65 65 64 64 63 65 65
93 93 93 94 96 98 98 98 97 98 98 94 96 86 94 90 73 82 75 70 65 63 78 80 78 73 74 84 83 81 77 74 68 64 67 66 66 65 65 64 68 71 66
96 94 96 96 97 97 98 97 98 98 99 98 96 99 98 95 88 83 76 73 69 64 66 74 74 79 74 83 84 80 78 70 63 64 61 64 65 70 68 68 71 71 74
97 97 96 97 96 98 99 99 98 98 98 98 98 99 99 97 96 94 94 90 77 66 72 72 77 78 82 83 80 81 80 72 66 63 62 68 71 72 71 70 70 71 73
96 96 97 98 98 97 99 99 99 99 98 98 97 98 98 96 96 97 96 93 77 73 80 81 78 83 76 86 88 85 83 73 68 64 66 76 75 73 72 71 71 71 70
96 94 96 96 97 96 98 99 98 99 98 99 99 98 97 96 94 91 91 90 87 83 77 76 84 83 86 91 89 84 90 76 72 74 78 76 75 75 75 74 77 80 75
96 95 96 96 97 98 98 99 99 99 99 98 98 97 95 96 97 92 91 89 89 90 88 86 94 91 92 92 90 91 94 84 79 79 77 77 76 76 76 77 77 78 77
86 95 98 98 98 98 98 98 99 97 97 98 98 96 94 94 93 94 93 93 94 95 96 96 98 96 91 90 86 85 90 88 82 77 76 73 72 74 75 75 78 79 79
86 91 96 98 98 99 98 98 97 96 96 96 93 95 94 90 94 95 96 95 96 96 98 97 98 95 95 96 94 89 91 91 90 78 75 69 72 71 73 73 74 76 77
74 90 94 97 98 97 96 97 96 94 93 92 94 94 93 92 94 94 95 96 96 94 97 97 98 100 98 96 95 92 85 77 84 84 74 68 64 71 70 71 73 74 77
70 76 93 95 95 96 95 93 90 89 90 88 90 92 92 91 94 95 94 95 95 95 96 97 100 98 98 97 98 95 91 83 70 84 68 65 62 62 67 65 60 62 68
71 73 82 92 92 89 87 84 82 84 81 76 77 83 86 88 91 93 94 94 93 96 96 99 99 99 98 97 96 97 96 88 76 66 69 64 60 62 61 58 56 58 60
76 74 76 81 90 87 82 83 79 80 80 82 81 78 81 81 84 88 90 94 90 93 98 100 100 100 99 98 99 97 97 92 86 77 75 68 67 62 82 61 57 59 57
83 80 81 80 82 74 75 79 77 80 79 82 81 81 80 87 86 83 85 87 91 96 99 100 100 99 98 96 96 97 95 96 97 82 81 80 64 67 69 77 58 58 56
91 89 89 86 83 82 78 79 80 81 81 82 85 86 86 86 89 94 87 88 87 87 87 93 97 96 96 95 95 96 93 95 94 82 79 82 72 72 68 56 61 60 62
81 85 90 89 89 83 81 82 84 90 89 89 88 89 92 93 92 91 96 97 95 91 86 84 91 90 92 92 90 88 90 87 72 66 71 88 74 75 75 73 60 66 65
83 92 89 91 93 91 85 87 91 95 93 93 92 91 91 87 85 84 94 97 92 82 67 65 67 72 73 78 83 93 95 87 82 73 73 76 75 79 77 89 90 66 62
83 83 95 92 90 95 87 88 92 98 97 96 90 83 83 84 84 84 96 95 92 89 77 85 89 82 79 83 75 87 92 93 90 88 79 87 81 82 91 89 93 92 92

GFSMA_sfc_rhum_087.txt.gz
RH
87 87 94 95 98 97 93 93 87 74 67 59 54 53 54 58 62 68 68 82 77 75 68 66 67 68 70 70 73 75 76 76 73 76 76 78 76 71 66 63 61 62 60
80 85 88 88 85 80 79 76 74 70 62 56 49 53 58 62 63 59 59 68 84 80 80 72 70 71 70 69 70 74 75 75 75 74 74 77 79 79 75 70 66 62 61
71 73 73 74 72 69 66 64 61 59 60 54 59 62 61 63 64 57 67 72 80 88 86 76 73 71 70 66 67 73 76 76 72 71 72 73 76 76 73 77 74 70 65
66 70 70 72 68 68 64 65 62 63 69 69 67 64 65 62 57 54 54 62 67 70 90 84 82 74 69 67 71 74 77 73 71 70 68 70 70 71 70 73 78 76 72
69 73 76 73 70 74 69 64 65 64 70 70 70 67 70 68 58 54 60 60 67 78 83 89 85 81 78 73 72 75 74 71 69 67 65 64 64 64 67 68 70 72 77
70 73 80 77 76 75 73 71 64 70 72 70 64 62 73 66 60 61 60 52 60 69 82 89 92 91 86 83 75 74 72 70 68 66 64 64 64 65 64 61 63 66 68
80 85 85 85 81 77 73 69 71 70 75 75 81 77 75 67 58 60 63 63 66 71 76 92 96 96 93 82 82 75 70 67 64 63 63 63 64 64 62 61 61 61 65
89 89 90 91 90 90 84 85 83 86 78 77 82 88 89 82 79 75 71 63 73 76 75 83 94 95 95 95 89 78 68 62 61 62 61 62 64 63 63 63 62 60 63
92 94 94 95 95 96 97 96 95 92 94 94 91 87 94 92 89 78 71 68 75 81 86 84 93 94 95 95 86 82 78 69 64 61 62 66 65 64 64 62 65 70 70
96 95 95 96 95 96 96 95 95 97 98 97 99 97 97 97 95 92 82 75 72 71 89 89 86 86 91 93 85 83 76 74 70 63 67 67 65 65 65 64 65 71 73
97 96 96 98 98 98 97 97 98 97 94 96 95 98 98 100 98 98 95 80 72 70 78 79 78 77 80 81 88 83 76 70 67 68 65 65 64 69 67 66 67 69 73
98 97 97 97 97 98 99 99 98 98 99 98 98 97 97 98 99 98 99 97 92 88 82 76 77 84 89 91 82 79 79 74 69 66 63 67 69 70 70 69 66 66 69
97 97 98 98 98 97 98 98 99 99 99 99 98 98 97 96 95 95 94 98 98 91 84 81 87 88 83 90 92 86 82 74 70 66 65 73 74 72 71 71 70 68 67
96 94 97 97 96 97 98 99 99 99 99 99 98 98 96 96 97 98 96 96 98 86 79 76 91 90 94 95 92 88 90 78 72 69 80 79 74 72 73 72 73 73 74
98 96 97 97 97 97 97 98 98 99 99 98 98 98 97 97 97 97 96 91 89 91 85 87 93 94 94 94 92 95 94 84 79 80 79 79 75 75 76 75 76 76 78
94 96 97 99 99 99 99 98 99 98 98 99 98 98 97 96 96 96 96 95 92 89 89 96 99 96 94 90 88 89 91 89 82 81 79 74 72 75 74 73 75 75 77
76 91 94 96 98 99 99 99 99 98 98 98 98 98 98 94 96 96 97 96 97 96 97 99 98 97 95 95 92 94 92 93 90 77 74 72 72 72 73 72 73 74 76
71 77 92 95 97 98 99 99 99 99 98 98 98 99 98 97 96 96 97 97 97 97 97 98 99 100 98 96 95 93 87 79 86 82 82 73 71 74 71 71 71 72 75
73 73 85 94 95 97 98 98 98 97 97 96 96 97 94 94 97 97 97 98 98 97 97 97 100 99 99 97 98 95 91 86 69 77 82 69 66 67 72 67 60 59 65
80 80 78 86 93 95 92 94 94 95 95 95 94 95 94 94 94 96 96 96 97 98 98 98 99 100 98 98 96 98 98 90 80 76 71 68 69 65 64 60 56 57 59
87 85 84 83 86 93 93 90 88 87 89 90 87 87 89 90 93 93 95 97 97 98 99 100 100 100 99 99 99 98 98 96 88 80 80 77 77 66 77 66 59 60 58
91 90 91 90 89 81 81 87 88 88 88 88 89 90 84 92 90 87 86 88 91 95 98 100 100 99 98 97 97 99 98 99 99 85 84 82 68 69 64 72 61 58 57
84 92 93 93 93 90 82 81 82 88 89 89 91 88 88 84 88 90 88 88 88 88 87 94 97 97 97 94 96 98 97 96 95 86 82 87 65 67 74 66 62 61 59
80 80 86 88 90 88 87 85 84 90 92 91 90 91 92 92 92 93 96 98 97 96 95 96 94 93 92 92 89 92 93 90 76 76 79 89 69 74 78 75 59 65 67
86 87 84 89 94 92 89 90 90 94 95 93 93 92 93 94 90 90 97 99 98 96 77 79 78 83 83 83 90 94 96 88 84 75 70 71 77 80 82 90 92 68 64
92 92 91 92 91 93 89 89 92 97 97 95 95 95 90 93 88 88 97 97 99 96 86 86 87 82 80 84 83 90 91 94 90 90 73 84 82 82 90 93 95 93 93

GFSMA_sfc_rhum_090.txt.gz
RH
91 81 82 84 91 95 98 98 97 88 78 70 63 62 58 55 68 65 71 86 80 78 73 69 69 69 70 71 72 75 76 76 75 76 76 79 79 75 70 66 63 62 59
91 93 85 87 90 92 90 95 93 86 75 68 62 58 56 57 65 69 68 72 85 80 78 71 68 68 70 69 69 74 78 78 75 74 73 75 77 79 79 75 70 65 63
94 83 85 88 87 86 90 88 84 79 72 63 61 57 60 64 66 65 70 67 78 87 84 76 74 72 71 68 67 72 78 77 74 71 70 71 74 74 72 76 77 74 69
85 84 83 84 82 81 77 77 75 70 68 68 65 66 68 67 65 64 62 62 66 66 86 84 83 78 72 68 65 74 77 75 73 71 67 67 67 69 69 71 73 77 76
73 85 80 74 75 75 71 68 70 67 74 78 74 72 71 72 69 59 58 62 77 77 86 90 88 84 80 72 68 74 76 74 72 68 65 64 64 63 63 64 68 69 71
67 69 71 71 68 71 70 68 68 74 73 72 66 68 72 74 70 67 58 60 77 81 84 88 95 91 84 80 76 74 74 72 70 68 64 64 64 64 64 62 62 63 65
72 72 76 72 69 69 67 66 70 72 80 78 82 81 81 73 70 68 64 61 66 78 88 91 96 96 94 85 84 78 73 71 67 64 64 64 63 63 62 63 63 60 59
76 76 83 85 85 84 75 72 78 84 79 83 84 89 89 83 79 75 74 64 70 78 85 91 95 95 96 96 93 84 75 70 64 64 63 62 64 64 64 64 62 66 70
86 86 86 90 93 90 90 92 92 89 94 95 88 88 97 93 88 85 81 74 84 87 88 95 95 96 95 95 90 83 77 72 63 62 62 64 66 65 67 64 64 73 73
98 98 98 98 97 98 97 95 96 97 97 97 99 98 94 91 91 88 88 82 78 78 89 92 97 97 96 96 90 87 79 75 67 65 63 69 66 66 68 66 65 69 72
98 99 99 98 98 99 99 99 99 99 99 96 96 99 99 100 98 97 97 94 87 85 82 83 86 96 91 89 84 82 77 69 67 69 69 72 65 68 69 69 67 68 70
100 99 98 99 99 99 99 99 99 99 98 98 98 97 98 98 99 98 98 96 89 94 91 87 89 89 87 85 82 82 79 73 68 66 66 64 69 70 70 69 68 66 68
99 98 98 99 99 98 99 99 99 99 99 99 98 98 98 96 96 92 95 96 98 98 97 94 92 90 85 91 86 88 82 76 72 68 67 66 75 72 71 70 70 70 72
98 97 97 96 96 96 97 98 99 99 99 99 99 99 98 98 96 95 90 94 99 99 93 92 92 88 88 89 93 88 90 81 73 70 71 80 76 72 72 73 74 72 73
97 99 98 98 98 98 98 98 99 99 99 99 99 98 98 98 99 98 97 96 97 99 97 94 94 93 95 94 94 94 93 83 79 83 82 80 76 76 76 75 75 74 76
85 92 95 98 99 99 99 98 98 97 99 98 98 98 98 97 97 98 98 96 90 88 90 96 99 96 94 93 92 93 91 89 85 83 82 78 75 75 75 73 75 75 74
72 77 91 94 97 98 99 99 99 99 98 98 98 98 98 98 98 99 99 98 98 92 92 100 98 98 98 97 96 92 94 94 95 83 79 77 72 74 74 73 74 75 77
75 76 82 94 94 96 97 99 99 99 98 98 98 99 98 99 99 99 98 98 97 96 97 98 100 100 99 97 97 96 92 84 90 85 82 78 75 76 76 74 72 71 72
82 81 82 85 93 95 97 98 99 98 98 98 98 98 98 98 99 98 98 98 98 98 97 97 100 99 99 98 99 96 93 92 78 79 80 82 73 70 75 74 64 59 60
86 87 86 87 86 93 95 96 96 98 98 98 98 98 97 97 96 98 98 98 98 99 98 98 100 100 99 98 97 98 99 93 87 76 81 73 72 68 68 68 58 56 58
89 90 90 90 90 87 88 94 94 92 95 94 93 95 97 97 97 96 96 98 98 98 100 100 100 100 100 99 99 99 99 97 92 86 86 82 80 74 71 68 64 57 61
90 90 91 92 95 84 87 87 87 95 93 90 93 93 94 98 96 93 92 91 92 97 99 99 100 99 99 98 99 99 99 99 99 90 87 87 77 79 67 75 63 60 60
91 92 86 84 90 93 85 86 89 94 94 95 94 93 92 92 93 95 94 93 93 91 87 95 97 98 97 96 97 99 98 98 97 94 88 91 74 74 67 56 64 61 59
92 93 92 91 91 85 84 87 89 95 95 93 93 94 94 91 94 93 96 98 97 97 95 93 93 94 93 95 92 91 92 93 84 86 85 93 71 68 68 71 63 59 66
91 92 91 93 95 92 86 84 90 97 98 94 91 93 94 94 89 89 96 98 98 98 86 89 89 88 88 87 89 92 97 95 88 82 80 77 72 71 80 82 86 72 68
84 91 93 94 87 94 90 87 88 97 99 97 89 90 89 93 88 91 97 97 99 98 91 91 91 89 89 91 87 88 94 98 93 90 76 80 74 79 88 92 96 95 92

GFSMA_sfc_rhum_093.txt.gz
RH
98 96 93 90 92 94 90 94 92 94 89 79 72 68 63 58 63 67 74 81 85 82 75 70 70 70 71 72 73 78 76 76 77 76 76 78 80 77 75 71 67 64 63
94 99 96 95 94 91 87 87 88 88 86 76 68 65 63 61 61 69 69 72 86 84 81 74 70 68 68 70 68 72 79 77 76 75 74 75 76 75 75 78 76 72 67
91 92 99 97 90 91 86 87 87 83 83 73 71 65 62 61 64 67 72 67 73 86 85 76 74 72 71 69 67 71 78 79 75 72 71 71 72 72 73 73 75 78 76
86 93 95 98 95 92 88 84 82 79 83 78 72 67 63 65 69 70 69 71 69 62 82 85 82 79 75 70 66 71 78 78 74 72 69 67 66 66 67 68 70 73 77
85 87 92 96 90 92 86 80 79 73 79 77 73 69 71 75 73 65 71 70 70 74 84 88 88 87 85 75 70 69 76 76 73 70 66 64 65 64 64 64 64 66 68
85 87 90 90 88 83 79 75 73 74 74 72 67 70 80 78 76 78 72 64 72 84 83 86 93 94 88 79 74 71 76 75 72 69 67 64 65 65 64 63 63 63 63
83 90 91 89 88 77 72 70 68 75 78 80 84 85 84 78 77 74 73 70 74 81 82 90 95 96 94 85 85 80 77 74 70 66 66 65 64 64 63 64 64 64 68
88 86 88 90 84 78 71 72 70 84 75 85 87 93 89 84 83 79 78 70 75 80 87 92 94 94 96 96 93 86 77 75 70 65 66 65 65 64 64 64 64 71 73
94 91 88 86 87 82 85 84 81 84 88 94 90 89 96 93 91 87 86 76 76 83 87 93 95 95 96 97 94 88 82 79 68 66 66 65 68 65 66 66 64 69 72
97 96 94 97 95 93 92 91 92 91 95 94 98 97 96 91 91 90 90 85 84 84 90 97 97 94 95 94 93 91 82 78 69 66 64 66 69 66 68 67 65 69 70
99 99 98 98 99 99 99 99 99 99 99 98 97 100 99 99 98 93 95 96 90 85 83 85 90 92 92 93 93 89 83 74 68 66 66 70 73 69 68 68 68 66 64
99 99 98 98 98 99 99 99 99 99 99 99 99 99 98 98 97 99 98 97 95 96 95 96 96 97 95 91 85 83 81 76 68 67 68 69 68 72 69 69 68 66 70
99 99 99 99 99 99 99 99 99 99 99 99 98 98 98 97 97 95 98 97 98 98 96 97 96 96 92 92 88 88 84 80 74 71 69 67 71 74 72 70 70 69 70
99 99 99 99 98 99 98 99 99 99 99 99 99 99 98 98 98 94 92 92 99 99 98 95 95 95 92 90 88 89 87 83 77 72 70 76 78 76 72 71 73 73 71
93 98 99 99 99 98 98 97 97 98 99 98 98 98 98 98 98 96 94 97 95 99 99 99 99 98 97 94 93 90 92 84 79 80 85 82 81 78 78 75 75 75 75
87 92 96 96 96 99 99 98 98 98 99 98 98 99 98 98 98 98 99 98 96 94 97 97 99 98 98 97 94 93 92 89 89 86 85 82 79 76 77 74 74 73 74
73 75 81 92 94 94 98 99 99 99 99 99 99 99 98 97 98 98 99 98 97 93 92 100 99 98 98 99 98 97 96 96 94 84 82 80 76 74 77 74 74 74 75
79 80 80 81 86 92 95 98 99 99 99 99 98 99 98 99 98 98 99 98 98 98 98 99 100 100 99 97 97 96 92 91 95 86 82 79 77 77 77 76 75 71 68
84 85 86 88 86 87 94 95 96 98 98 98 98 98 98 99 98 98 98 98 99 99 98 98 100 100 100 99 99 97 96 95 86 83 84 84 80 76 78 77 72 62 58
88 90 89 90 91 90 90 94 95 96 96 98 98 99 99 99 98 98 99 98 99 99 99 99 100 100 99 99 98 99 99 97 96 75 82 81 83 73 74 76 67 58 57
90 93 92 90 91 88 84 94 95 94 95 95 95 96 97 99 100 98 98 99 99 99 99 100 100 99 99 99 99 99 99 99 98 95 95 85 86 82 77 73 69 62 61
89 90 91 92 94 82 85 85 90 96 95 96 94 91 92 97 98 98 97 96 96 98 98 99 100 99 99 99 99 99 99 99 99 93 93 95 84 87 76 81 72 64 62
90 91 92 92 92 92 76 79 82 95 97 96 95 96 95 93 96 97 96 96 95 93 90 94 98 98 99 96 97 100 99 98 98 94 89 94 85 85 75 57 64 64 61
85 85 86 92 94 86 74 78 83 92 96 96 96 95 96 93 92 95 97 99 99 99 98 97 94 94 93 93 90 94 96 96 91 91 88 98 87 88 69 66 65 62 61
86 85 87 92 93 92 77 73 78 81 84 93 92 90 93 95 90 90 96 98 98 98 93 94 94 94 93 91 91 95 99 98 97 90 91 87 77 77 72 69 68 68 67
78 77 79 82 86 90 80 73 68 84 91 81 74 88 89 92 89 88 97 96 98 97 97 97 97 96 93 93 89 91 95 99 94 93 83 84 74 74 82 83 92 93 93

GFSMA_sfc_rhum_096.txt.gz
RH
97 95 96 89 92 95 93 98 94 90 90 79 77 69 65 62 62 65 78 83 87 85 76 71 72 73 74 75 74 76 77 75 77 76 75 76 80 79 78 75 71 68 65
95 94 93 95 94 94 92 88 96 89 83 78 77 73 69 64 59 66 70 75 82 86 84 77 72 72 70 69 71 71 79 78 78 76 73 74 74 74 74 78 78 77 72
95 93 94 95 94 95 93 90 91 91 92 80 76 68 69 67 65 64 70 70 72 86 86 77 77 74 72 69 68 67 77 79 78 74 71 71 70 70 69 70 72 74 78
95 95 95 94 94 98 98 97 96 89 85 85 71 71 68 67 65 66 68 72 72 65 80 82 82 80 76 72 69 66 76 81 77 73 70 68 66 65 64 65 67 70 72
92 95 92 93 93 94 96 97 96 87 80 80 76 72 71 72 70 63 76 74 76 73 76 83 86 86 84 79 71 67 77 80 76 72 69 66 65 65 64 64 64 64 64
83 93 89 85 95 92 88 95 93 87 82 71 66 66 76 74 76 81 77 71 74 79 83 85 89 87 90 85 76 71 74 78 75 71 69 66 66 65 63 62 63 62 64
84 86 87 91 90 89 85 89 90 85 81 79 84 86 87 83 83 79 81 79 74 78 84 84 84 89 94 86 83 78 74 78 75 71 68 68 67 65 63 63 61 69 72
94 86 84 92 89 87 77 80 86 86 76 80 86 93 92 86 87 80 81 76 74 81 86 85 91 94 95 96 95 88 82 77 74 71 68 68 67 66 64 63 62 68 72
95 98 96 92 93 91 92 90 85 77 79 89 89 89 96 94 91 92 90 83 75 83 89 92 94 95 95 97 95 94 87 82 74 71 69 68 69 68 66 64 63 69 69
95 96 96 98 98 95 88 89 87 83 88 89 96 94 95 89 92 92 92 90 83 83 88 95 94 95 96 97 96 94 89 87 78 70 70 69 69 70 68 66 65 66 67
91 96 96 98 98 98 98 96 93 88 88 91 92 97 98 98 97 93 91 92 91 89 89 88 93 97 97 96 97 93 88 83 74 71 68 67 68 72 70 68 65 65 63
99 99 99 99 99 99 99 99 99 97 94 97 97 99 97 96 97 99 99 96 94 92 94 96 96 97 98 98 94 90 88 84 76 71 67 67 73 74 71 68 68 62 68
99 99 99 99 99 99 99 99 99 99 99 99 99 99 99 98 97 97 98 95 97 94 96 97 96 98 98 97 93 92 89 82 76 68 68 68 69 77 74 71 69 69 68
98 98 99 99 98 99 99 99 99 99 99 99 99 99 98 98 98 96 95 94 95 98 98 94 98 98 97 97 93 93 90 85 83 73 70 68 82 78 74 72 72 72 70
91 95 96 97 99 99 99 99 99 98 99 98 98 99 98 95 97 96 96 96 97 98 98 99 98 98 99 98 98 97 96 93 86 80 83 84 84 81 78 76 75 75 75
84 87 87 93 95 94 97 99 99 98 99 99 98 98 98 98 99 98 99 98 98 98 98 98 99 99 99 99 99 98 97 93 88 89 87 86 84 82 80 78 76 74 74
79 79 79 79 83 90 92 95 96 98 99 99 99 99 98 98 98 99 99 98 98 98 98 100 99 98 99 99 99 98 96 98 97 90 87 84 81 79 80 78 76 76 75
82 83 84 84 83 82 84 91 94 94 96 98 99 99 99 99 99 98 99 98 98 98 99 99 100 100 99 98 97 98 98 95 98 90 85 84 80 79 80 79 78 75 71
87 85 86 88 88 88 88 87 88 91 93 94 97 99 98 99 98 98 98 98 99 99 98 99 100 100 100 99 99 98 96 96 91 88 85 82 81 80 80 80 79 71 62
84 85 88 87 88 90 88 93 93 93 92 91 93 94 97 98 99 98 98 98 99 99 99 98 99 100 99 99 99 99 100 96 96 80 85 88 87 82 78 80 76 66 57
84 87 86 86 89 80 77 83 86 94 96 93 91 90 91 95 98 99 99 98 99 99 98 99 99 100 99 99 98 99 99 99 97 94 97 96 96 88 84 80 80 68 62
84 83 82 89 91 76 76 69 76 91 91 95 96 93 92 92 94 95 97 98 96 98 98 98 99 98 98 99 99 99 99 99 99 96 98 98 88 91 82 82 75 70 64
82 82 82 87 90 89 73 69 69 89 91 88 95 93 92 86 90 93 93 97 98 97 93 92 98 97 98 98 98 100 99 99 99 98 95 98 91 94 85 68 74 73 65
81 82 80 85 90 76 74 72 70 90 89 81 80 94 95 92 90 91 95 98 99 99 98 98 94 95 93 93 90 92 97 98 97 97 93 99 90 90 75 70 66 65 66
83 83 83 86 87 87 74 66 74 88 95 94 86 72 80 90 91 89 96 99 97 98 96 98 98 95 94 91 91 96 99 98 99 98 97 94 82 80 72 69 66 66 62
80 84 81 82 79 87 74 68 67 88 91 93 88 88 83 70 81 86 97 98 99 96 99 99 100 99 98 98 95 92 96 100 98 97 93 90 78 77 84 76 80 79 93

GFSMA_sfc_rhum_099.txt.gz
RH
96 92 84 73 67 81 79 84 68 68 69 71 64 58 50 46 46 48 50 84 89 84 77 72 73 74 74 75 76 77 77 75 75 76 74 74 80 78 76 76 73 71 67
95 96 93 89 81 72 76 86 92 81 81 73 68 53 51 44 42 44 44 47 82 85 84 81 74 74 73 74 72 74 78 79 77 76 73 72 73 72 74 74 75 75 76
80 85 88 93 85 83 76 87 93 86 84 72 67 59 50 44 42 41 41 47 52 85 86 75 77 76 74 71 70 71 75 81 80 76 72 71 69 69 68 67 67 71 72
71 78 84 88 86 90 87 93 94 96 89 84 70 65 52 48 45 43 44 46 51 48 71 83 80 80 79 71 69 68 72 82 81 76 72 70 67 65 64 63 63 64 65
70 74 82 81 80 92 93 90 92 90 94 92 81 68 59 50 46 44 46 48 50 56 54 70 85 84 85 81 72 69 69 81 81 75 71 68 67 66 65 63 62 62 61
75 77 79 79 78 90 93 91 89 90 87 88 81 76 72 61 51 50 50 47 50 60 59 60 62 65 85 84 80 71 69 80 80 76 71 69 68 68 66 63 62 61 69
79 83 83 80 82 85 84 86 82 78 85 90 92 88 71 63 60 57 53 55 56 61 62 63 62 63 64 87 85 80 72 70 79 76 71 69 68 67 67 65 62 69 71
81 84 84 85 84 90 83 82 85 85 81 84 84 78 76 59 65 61 63 62 62 64 67 70 68 66 67 70 75 86 78 71 78 76 73 70 69 68 68 66 64 68 69
85 86 86 87 89 90 90 86 83 80 89 89 83 88 90 79 73 74 72 65 67 66 64 68 69 68 66 66 79 79 90 85 77 76 73 70 70 70 68 67 65 70 68
85 88 88 89 96 95 92 90 86 86 85 90 94 84 73 84 87 82 77 76 70 66 69 78 76 75 72 70 78 85 91 94 82 75 72 71 70 71 70 69 67 69 67
86 88 88 88 94 97 99 99 99 96 94 90 88 84 86 84 88 90 86 84 79 77 71 74 80 79 76 74 75 82 95 92 82 75 72 71 70 72 70 70 68 67 64
95 87 91 93 94 94 97 97 95 95 95 95 94 84 79 79 82 91 94 91 90 85 86 82 82 82 82 82 90 94 94 93 85 76 70 70 70 71 72 71 69 67 68
96 97 98 99 99 99 99 99 97 96 96 92 87 86 85 85 93 95 89 85 96 93 91 90 84 84 84 86 88 95 94 89 85 76 76 73 71 79 77 72 71 68 68
95 94 96 98 99 99 98 99 99 99 98 98 98 96 91 95 94 92 93 98 97 97 96 88 95 92 90 92 90 96 91 90 87 80 73 73 82 85 80 75 72 73 71
88 91 92 92 93 95 96 98 99 99 99 98 97 97 98 97 98 97 98 97 98 96 91 96 94 91 94 91 94 93 95 95 92 90 88 89 89 85 82 77 76 75 74
79 86 88 87 88 91 93 94 95 96 98 97 96 96 96 96 97 97 97 95 96 96 96 94 93 97 98 98 98 98 97 97 96 92 93 92 90 87 84 80 79 77 78
71 75 77 77 80 80 84 92 93 93 94 96 97 99 98 96 98 98 98 98 98 98 98 100 98 97 99 99 99 99 98 98 96 93 94 90 87 87 84 82 79 77 77
61 63 65 70 74 78 79 82 83 83 86 90 93 95 96 99 99 99 99 99 99 98 98 99 99 100 99 99 98 99 99 98 97 97 94 90 86 84 83 82 80 79 77
62 61 63 66 66 74 78 78 80 82 80 80 82 83 88 92 96 98 99 99 99 98 99 99 99 99 99 99 100 100 99 98 95 94 90 87 84 82 83 82 81 79 74
60 59 62 67 68 66 69 64 70 76 78 80 79 79 80 83 90 94 98 98 99 99 99 98 99 99 98 99 98 97 99 98 96 85 90 87 84 84 81 81 82 79 69
58 57 55 59 62 58 64 65 66 74 74 75 80 80 80 85 92 91 95 96 98 97 99 98 100 100 99 99 97 99 98 99 98 89 90 88 88 91 81 84 85 77 67
57 56 57 59 62 52 66 70 66 70 75 74 71 79 81 87 83 85 86 92 96 98 98 97 98 97 95 91 92 95 98 99 100 94 93 91 81 91 80 83 83 75 70
60 61 59 59 60 60 62 68 66 68 72 72 78 74 71 72 87 82 83 86 88 93 98 96 97 95 94 92 94 98 98 95 98 96 92 94 83 89 77 71 81 78 74
62 61 59 60 62 53 64 66 64 66 73 75 77 75 76 71 71 78 82 92 90 89 92 98 98 89 86 91 92 92 93 96 96 94 85 95 83 84 79 76 80 79 75
69 69 65 65 66 66 67 64 63 67 73 74 70 69 66 68 76 70 71 86 96 92 87 96 98 97 96 94 92 97 99 98 100 98 96 94 87 82 75 73 69 74 70
68 69 66 65 66 67 66 66 61 66 70 71 71 65 68 61 64 73 78 88 87 87 94 95 99 99 98 97 95 89 95 100 100 100 98 96 84 79 86 67 65 71 72

GFSMA_sfc_rhum_102.txt.gz
RH
90 92 76 51 56 65 52 63 50 45 50 53 44 41 42 40 38 38 41 88 89 83 79 72 72 73 74 75 76 77 77 76 74 78 74 72 79 77 76 76 74 72 71
60 70 89 89 70 50 51 52 54 49 58 50 52 46 40 38 37 37 37 40 85 88 82 80 73 73 74 74 74 76 79 81 77 78 74 71 74 72 73 74 74 73 73
50 53 59 63 69 71 56 59 62 59 69 72 65 53 50 41 34 33 36 37 41 84 82 77 75 76 73 72 73 74 78 81 80 80 75 71 71 69 68 67 67 69 70
46 51 54 57 58 68 71 77 74 79 83 91 88 78 54 43 34 31 30 34 35 35 66 81 82 79 78 70 70 71 74 80 84 81 76 71 69 69 66 65 64 64 64
48 50 53 54 56 75 84 86 86 81 88 88 89 77 67 55 39 33 31 32 36 39 40 63 85 82 82 80 73 72 72 78 85 82 76 72 69 67 67 66 65 64 62
52 55 54 56 54 62 72 87 90 89 86 83 88 86 78 62 55 48 39 36 35 38 40 46 49 57 84 79 77 73 74 73 83 82 77 72 69 69 68 67 66 62 69
55 58 60 61 65 62 58 63 66 84 89 84 88 84 82 65 56 58 53 48 48 41 42 45 49 49 53 82 78 80 76 71 78 80 78 72 70 69 68 66 66 70 70
64 62 64 66 64 71 63 65 74 85 86 83 84 76 78 61 64 51 50 56 51 49 47 48 50 54 61 63 67 82 80 73 68 77 78 73 70 69 68 68 66 72 70
71 71 72 74 74 74 76 70 77 84 90 88 81 79 88 69 48 42 61 52 53 53 50 50 54 59 58 58 66 75 89 83 76 73 78 75 71 70 69 68 67 70 72
66 68 74 75 79 82 82 83 86 87 87 92 90 80 78 68 69 76 80 59 56 56 51 55 55 58 62 69 75 77 87 89 82 74 79 76 72 71 70 69 68 70 71
83 80 74 75 80 85 86 92 97 96 94 92 91 88 81 88 90 90 80 84 78 65 61 64 70 77 78 85 85 84 91 89 80 77 76 76 73 72 70 71 68 69 70
90 89 90 84 85 85 91 93 93 92 96 97 97 97 90 86 90 91 93 87 86 74 88 89 89 88 88 87 87 91 97 95 87 80 76 77 74 72 72 72 71 69 69
93 94 93 96 96 93 94 95 96 94 95 95 93 94 94 96 94 92 94 87 87 75 83 83 83 77 82 80 74 93 95 96 93 83 73 76 79 78 78 76 73 71 69
92 90 90 93 94 95 96 99 99 98 96 95 95 94 93 90 90 92 92 93 94 91 83 81 89 90 94 92 86 93 86 96 94 90 81 80 80 87 84 86 75 73 70
80 89 91 90 92 93 94 94 97 97 98 96 95 94 94 89 92 89 89 89 92 93 85 88 95 95 95 95 94 93 93 92 93 91 88 90 94 94 91 88 81 78 75
59 64 76 84 85 85 88 92 94 92 94 97 96 96 94 92 93 94 94 93 93 95 96 82 86 98 98 99 96 95 90 95 92 91 94 96 96 95 91 86 84 82 78
37 41 45 54 64 71 77 82 87 87 90 91 92 96 96 97 97 93 92 94 97 96 97 91 99 98 99 99 99 98 98 97 97 96 97 96 95 92 90 88 85 82 81
35 35 36 38 42 50 53 59 64 67 72 76 81 86 89 89 94 95 99 99 99 99 99 99 99 100 99 98 99 99 99 99 99 98 97 97 95 92 91 88 87 84 82
32 32 34 37 36 39 39 37 38 41 45 54 63 70 72 72 79 88 92 96 99 99 99 99 98 97 98 99 100 100 99 99 99 99 97 95 93 92 91 88 85 83 84
31 31 31 34 38 38 42 48 46 45 45 46 48 58 60 68 72 75 78 83 90 98 99 99 98 98 97 98 98 98 100 99 99 98 98 95 92 90 88 85 85 87 85
34 33 33 33 34 32 34 54 51 48 50 49 48 48 58 77 90 85 80 78 81 93 97 98 99 99 99 99 98 98 97 98 99 98 99 99 94 89 85 87 87 89 80
36 36 36 36 36 31 55 61 62 49 48 48 47 49 50 65 62 73 77 84 87 85 94 98 98 94 96 94 88 97 98 99 99 98 98 99 95 98 88 82 88 86 79
36 39 37 35 34 32 48 57 62 46 46 47 53 54 50 45 66 55 61 71 78 84 88 90 96 97 97 89 87 98 96 92 90 98 94 98 98 99 92 83 90 85 80
40 40 40 39 40 36 52 57 58 46 45 47 50 49 49 46 48 60 60 60 63 72 74 77 84 89 93 93 91 89 90 90 97 98 93 99 98 99 95 86 87 86 81
49 51 47 47 48 46 50 56 54 48 49 47 39 41 48 50 53 61 57 66 57 58 66 79 87 92 94 96 95 94 99 99 99 99 98 96 98 96 91 85 79 83 84
50 51 50 49 51 52 52 52 54 48 47 40 40 41 54 54 62 67 60 55 59 57 58 65 78 81 84 92 97 93 93 99 96 100 98 97 96 90 96 73 76 85 86

GFSMA_sfc_rhum_105.txt.gz
RH
85 80 87 85 74 68 64 75 61 55 58 54 43 36 39 39 38 39 41 86 86 81 74 75 74 74 73 73 74 74 75 76 75 74 76 70 74 76 76 76 75 73 73
56 61 64 64 62 70 63 57 58 60 52 60 52 42 38 40 37 37 38 56 88 86 82 75 77 72 72 72 73 75 80 80 78 77 78 72 74 77 72 75 76 75 72
49 50 56 59 55 53 55 70 60 60 65 72 56 50 49 42 39 36 37 39 60 90 87 78 74 76 75 74 71 73 78 82 83 80 79 74 71 71 71 69 69 67 70
48 48 50 54 53 55 53 57 66 73 77 78 80 66 55 55 51 41 35 33 39 38 75 78 81 78 78 74 74 71 76 79 84 86 81 78 72 70 69 68 66 66 65
46 45 46 48 48 55 60 70 75 75 82 83 79 74 73 68 53 40 36 34 35 40 41 70 81 82 83 80 72 69 71 77 82 86 85 80 73 70 68 66 66 65 64
45 47 48 49 48 53 57 70 73 76 81 80 88 85 83 77 70 53 42 36 36 38 42 47 62 68 86 81 75 70 70 74 79 84 85 81 75 70 68 67 67 66 64
51 53 53 52 52 54 55 56 64 73 77 83 94 92 90 81 75 73 65 50 44 42 44 46 50 52 57 82 80 77 72 71 75 81 84 81 76 71 69 68 67 66 70
60 58 61 62 60 61 59 63 66 74 73 74 84 84 91 88 79 67 59 54 50 47 48 50 48 51 57 57 74 84 78 69 68 74 82 80 77 72 70 68 68 67 72
66 74 72 72 67 68 71 71 73 74 82 80 80 81 95 87 69 64 64 56 50 52 51 50 50 50 53 58 73 79 86 82 74 73 75 79 78 74 71 69 69 68 72
77 83 88 83 76 78 80 78 76 80 82 88 85 88 84 88 86 79 59 56 51 49 49 56 52 54 59 65 70 76 85 92 82 73 72 76 79 76 73 70 70 68 71
80 83 88 90 91 82 80 82 84 86 87 89 88 89 91 88 91 94 83 73 65 49 52 56 65 66 62 75 88 91 98 97 86 82 76 71 78 78 74 71 70 69 71
88 85 86 91 92 93 86 84 86 87 90 92 94 94 92 92 93 92 98 95 94 91 92 90 86 88 93 94 93 94 92 92 90 87 84 80 73 79 79 76 74 72 71
92 92 91 93 93 93 93 94 91 89 89 92 94 95 92 91 87 84 90 93 95 94 94 95 87 85 85 90 89 96 96 95 94 86 84 82 77 82 85 80 76 73 71
86 84 89 91 89 90 92 93 96 96 99 99 99 99 97 96 98 97 97 97 99 98 94 88 91 92 92 95 92 95 94 96 95 92 88 84 80 84 86 86 82 83 74
57 63 74 85 88 88 91 92 94 95 94 96 97 98 98 96 96 95 94 93 94 94 92 87 85 91 91 92 92 92 94 93 95 93 93 89 86 92 95 94 90 95 86
39 41 45 52 63 74 84 90 90 88 90 94 94 94 95 95 95 96 95 93 94 92 93 89 88 88 97 98 96 97 96 97 96 95 93 92 93 96 95 93 94 93 89
30 30 32 33 37 40 43 54 66 74 78 85 89 93 92 93 95 96 96 97 96 94 95 87 92 97 99 99 99 99 98 98 96 96 95 93 93 93 96 96 96 93 89
27 29 32 33 32 37 41 41 41 43 45 50 55 71 78 78 91 93 95 96 96 96 98 98 95 100 99 99 99 99 99 99 98 96 97 94 94 96 97 96 94 91 90
27 27 28 31 34 33 33 38 42 42 43 44 47 53 57 63 73 79 84 91 93 94 98 99 99 99 99 99 99 99 99 99 99 99 98 98 98 98 96 94 92 91 90
30 30 29 28 30 29 30 42 44 44 44 46 44 47 49 59 67 78 79 82 79 86 90 98 99 99 99 99 99 99 99 99 99 99 99 98 98 97 96 94 93 91 90
28 29 29 30 30 29 31 49 50 48 45 46 47 42 49 65 75 76 73 80 82 90 87 92 96 99 99 99 99 98 99 99 99 99 99 99 98 98 97 93 92 92 90
32 32 33 32 34 25 45 52 54 49 43 44 47 48 47 60 56 60 64 71 72 82 92 92 89 89 96 98 96 99 99 99 99 98 99 99 97 98 96 92 89 90 89
33 36 35 34 34 33 42 51 56 46 44 44 49 52 49 38 60 46 54 60 66 68 72 82 94 88 88 87 95 98 99 98 95 97 98 98 99 98 94 90 90 90 88
38 38 39 39 41 38 47 51 54 50 45 47 51 47 44 43 51 51 57 61 59 61 63 66 77 83 89 89 91 94 96 94 96 99 96 98 99 99 98 95 92 91 89
48 53 47 48 50 51 51 55 52 53 53 47 38 37 39 45 52 57 64 72 59 54 51 65 75 78 80 82 89 96 98 100 99 99 99 98 99 100 99 99 98 92 90
51 53 53 52 51 53 48 44 50 53 52 42 39 38 50 46 52 58 65 65 67 62 60 65 64 68 70 75 81 92 97 99 98 100 98 98 99 98 100 97 98 97 93

GFSMA_sfc_rhum_108.txt.gz
RH
96 92 90 92 92 86 92 93 83 75 79 71 63 53 58 58 60 60 75 88 85 78 73 73 75 74 73 73 73 73 75 75 75 74 76 76 72 76 75 74 75 73 72
89 89 81 84 81 80 85 93 91 85 78 84 79 74 46 55 56 54 59 80 88 84 81 73 74 75 74 72 72 74 79 77 78 78 77 78 72 76 76 73 75 77 74
72 70 81 80 76 72 68 81 89 92 90 78 82 76 80 54 54 51 54 61 82 89 86 78 74 75 77 74 72 72 79 82 84 83 80 80 76 74 72 73 70 69 67
64 69 72 76 76 75 76 80 84 89 93 94 95 95 90 83 64 48 45 46 63 64 84 84 82 79 77 76 74 73 76 82 83 85 86 83 80 74 72 69 69 68 67
57 67 69 70 66 75 79 82 89 93 94 96 95 94 96 96 84 57 50 44 41 51 61 77 86 86 84 80 73 72 71 79 83 84 85 86 82 76 71 69 68 67 67
67 68 67 67 66 73 78 86 92 94 95 96 92 92 91 93 95 88 71 57 42 47 48 57 68 73 85 81 78 72 70 75 78 82 85 86 84 78 72 69 68 68 67
70 75 76 74 72 75 75 74 80 88 88 92 98 92 95 95 90 80 74 60 51 44 42 45 58 68 70 84 80 78 73 70 75 80 84 86 84 80 74 69 69 69 67
76 77 84 87 82 83 78 78 79 81 86 93 92 89 93 85 92 86 79 68 58 50 52 52 52 54 66 82 81 83 78 70 69 74 82 85 85 81 76 71 70 69 68
86 89 89 91 92 89 84 82 83 85 87 84 92 89 97 90 89 88 87 77 68 63 53 50 55 56 54 63 75 82 87 83 77 72 76 80 84 81 78 73 70 70 70
86 88 90 89 91 92 92 90 84 89 90 89 90 89 84 88 92 89 78 79 72 67 57 54 51 49 53 66 76 82 88 89 83 76 74 74 80 81 78 76 72 70 71
85 84 86 89 90 92 93 94 95 89 90 92 90 88 91 92 91 94 91 89 73 67 60 57 56 58 62 68 83 84 88 91 84 81 76 73 73 75 82 79 74 71 71
87 85 86 90 89 90 92 93 92 94 91 91 92 91 92 91 87 96 98 91 93 92 84 75 74 75 81 86 92 95 95 94 88 78 71 66 74 81 84 87 81 74 74
88 90 88 93 92 92 91 91 91 92 94 96 93 90 91 89 86 87 92 93 96 97 96 96 93 93 93 96 95 95 95 93 92 84 74 76 82 87 87 89 90 84 80
84 76 80 85 87 87 90 92 91 91 92 95 95 97 96 98 93 94 98 96 99 98 98 93 98 97 96 96 96 97 95 95 94 90 85 83 86 92 94 89 88 92 90
50 59 61 65 75 80 81 83 88 91 90 92 94 94 95 95 94 98 99 99 98 99 98 97 91 96 97 97 97 96 96 97 95 94 93 93 93 93 92 94 89 92 95
43 47 50 53 55 58 60 66 83 85 88 90 86 89 91 91 92 94 96 95 97 97 97 93 93 96 96 97 95 95 95 97 96 94 94 95 96 96 95 93 91 94 97
34 35 36 38 39 42 48 57 60 59 62 72 79 80 82 87 93 92 94 94 96 97 98 90 90 96 99 97 99 98 98 98 97 98 96 96 96 96 95 94 93 95 96
35 34 35 37 38 39 40 46 50 52 53 56 59 64 68 67 82 84 91 94 95 96 99 98 98 100 100 99 98 99 99 99 99 97 97 98 98 97 96 95 94 97 96
41 39 38 40 40 42 40 47 48 52 50 54 56 56 60 67 76 80 88 89 92 90 96 98 98 99 100 99 99 99 99 99 99 99 97 97 96 96 96 95 97 97 96
42 42 41 40 42 40 46 52 53 55 54 52 54 58 58 67 74 79 80 89 85 91 90 93 95 98 99 99 99 99 99 99 98 99 98 97 97 98 96 96 97 97 97
44 43 44 45 44 39 33 53 58 62 61 54 56 55 59 68 70 68 65 86 88 89 93 94 91 90 93 99 99 98 99 98 98 99 99 99 99 99 99 98 99 98 97
49 47 48 49 50 35 46 48 52 60 59 56 56 59 61 68 63 55 54 60 65 85 92 96 88 97 89 90 95 98 99 99 99 98 99 99 99 99 99 98 96 96 94
50 52 53 53 54 52 49 50 53 55 62 61 61 61 56 44 65 62 60 64 67 61 64 86 94 94 90 93 93 94 96 99 98 95 99 99 100 99 99 98 96 95 93
56 59 60 60 61 53 53 54 55 64 66 65 64 61 58 55 60 56 72 80 78 76 72 69 85 87 90 90 91 88 94 94 95 98 98 100 100 99 99 99 97 94 93
69 72 66 69 71 67 58 53 51 68 70 66 52 50 52 57 56 52 69 83 77 70 57 63 67 66 66 66 68 87 92 96 98 99 99 100 99 100 100 100 99 96 95
69 73 70 71 67 66 60 46 47 67 74 66 64 59 61 56 55 54 65 81 89 84 77 74 80 78 73 77 72 87 96 95 92 95 97 100 100 99 100 98 99 98 98

GFSMA_sfc_rhum_111.txt.gz
RH
97 96 95 93 90 92 96 98 93 94 95 88 82 79 84 85 78 70 77 90 86 80 75 71 71 75 74 74 73 74 75 75 75 75 76 78 76 74 75 73 73 73 72
93 94 95 91 86 86 91 97 97 92 92 90 86 80 69 71 70 64 66 79 89 85 81 76 74 75 76 75 73 74 79 77 77 78 78 78 79 73 76 75 73 75 77
84 85 91 88 86 82 82 90 95 97 98 96 95 88 89 87 57 56 55 74 80 89 85 80 78 78 79 76 74 73 79 82 82 82 81 80 81 77 76 75 74 75 72
81 84 83 86 82 82 81 84 90 94 96 96 97 96 96 96 92 84 68 60 71 70 85 84 80 79 80 78 74 74 78 81 84 84 84 85 85 82 76 73 74 71 69
72 73 76 82 74 80 84 85 90 94 95 97 97 97 97 97 93 85 79 67 60 68 72 82 87 85 82 81 76 73 76 80 83 84 85 86 87 84 79 74 71 70 70
88 84 82 91 82 79 82 88 92 95 95 95 92 91 95 95 96 93 84 70 65 56 65 65 75 79 88 83 80 77 76 78 82 83 85 86 88 86 82 76 71 70 70
91 95 94 90 86 85 84 82 86 93 96 96 99 94 96 95 96 92 90 79 71 60 50 48 58 60 64 86 82 80 77 76 79 82 84 86 88 86 83 78 72 70 70
92 94 96 97 98 98 96 94 92 93 94 96 93 97 89 74 94 91 88 84 80 65 56 46 45 55 59 65 75 82 79 74 75 79 82 84 86 87 83 80 74 71 71
92 91 91 91 94 96 89 87 92 96 97 89 96 92 95 90 92 96 94 88 82 78 66 60 50 45 48 57 76 78 86 82 77 75 77 83 84 86 82 79 76 73 72
91 89 91 88 89 92 94 93 88 95 96 93 88 91 92 88 90 84 96 91 87 82 73 67 58 51 53 55 68 73 83 87 83 76 72 77 80 79 80 78 78 74 74
87 87 88 88 89 90 93 92 95 93 93 96 95 87 85 92 93 95 91 80 86 80 77 71 67 59 52 58 69 71 83 84 80 78 73 72 72 74 77 78 80 77 78
84 80 81 88 88 91 94 96 94 94 92 91 93 93 93 88 79 90 92 87 86 80 83 79 75 70 67 65 72 79 86 85 82 81 76 74 74 73 73 80 88 87 82
74 74 80 87 90 88 87 94 92 91 93 93 93 93 91 95 94 87 88 86 88 90 94 90 80 70 66 68 69 85 92 91 91 80 79 74 75 80 81 84 88 89 94
76 69 66 68 70 77 87 89 93 93 90 94 92 91 92 92 92 95 97 97 96 94 94 94 98 92 89 86 85 98 95 95 93 87 83 82 81 89 88 86 85 85 88
44 55 59 58 59 61 66 72 88 90 88 91 92 91 91 89 92 92 93 94 97 99 99 98 98 98 98 98 97 97 96 96 96 94 92 90 92 94 90 90 90 90 92
42 46 49 53 56 57 60 69 73 77 79 87 85 84 88 90 90 91 91 90 93 97 98 97 97 96 96 97 97 96 96 99 98 96 94 96 96 96 96 95 93 92 91
40 40 40 41 44 46 50 61 64 62 63 67 72 71 70 72 86 84 92 92 92 95 97 96 96 91 97 97 96 97 94 96 94 97 97 98 97 97 96 95 94 94 94
44 42 42 43 44 45 49 56 58 60 60 60 60 65 64 61 80 78 87 85 92 94 98 95 94 97 98 99 99 99 99 99 98 99 98 98 98 98 97 97 97 96 96
47 45 44 46 46 46 49 57 57 61 61 60 59 61 61 65 69 72 86 86 92 82 92 95 96 96 99 99 99 99 99 99 99 100 97 97 97 96 97 97 97 97 97
49 49 47 48 49 48 47 54 58 62 65 59 56 57 61 65 70 75 76 80 84 93 89 95 94 93 95 98 99 99 98 99 99 98 97 96 94 95 96 96 97 98 98
52 52 50 53 53 48 38 55 60 65 70 66 63 57 59 66 68 62 60 80 83 85 90 92 95 96 95 92 95 97 98 97 97 99 99 98 99 99 98 98 99 99 99
55 55 58 59 61 45 54 54 55 64 68 67 66 63 61 64 63 56 58 58 66 76 82 89 94 90 92 98 89 95 94 99 99 98 99 98 99 99 99 99 98 99 98
60 62 64 65 64 65 56 56 56 61 70 70 68 69 62 47 62 63 64 65 68 65 66 77 92 90 93 90 97 96 96 96 94 88 97 96 99 99 98 99 98 99 98
66 68 69 69 70 58 58 58 56 64 72 74 75 69 63 63 65 60 63 81 82 82 78 70 84 91 87 86 90 91 95 96 94 90 98 98 98 99 98 98 97 98 98
73 75 72 75 76 73 64 52 52 68 73 74 66 66 65 64 63 60 63 80 80 78 64 64 64 66 67 66 65 79 93 89 84 83 94 99 98 99 99 99 99 97 98
71 77 74 76 70 70 60 55 56 70 75 73 71 69 65 60 62 61 66 74 92 89 86 81 82 84 76 81 72 88 97 96 85 88 91 100 99 99 100 98 99 98 98

GFSMA_sfc_rhum_114.txt.gz
RH
97 97 98 98 95 95 96 97 98 98 98 97 96 97 94 97 96 88 83 87 83 83 79 75 73 74 74 74 74 74 75 75 75 76 76 77 78 76 75 73 72 72 72
92 97 97 98 97 95 96 98 98 99 98 97 94 90 88 83 87 84 78 77 85 85 83 78 76 74 74 72 73 75 79 78 77 77 77 78 79 80 74 75 75 75 75
88 82 91 95 93 92 86 94 98 99 99 99 98 95 94 90 81 80 80 66 76 90 87 81 77 77 78 74 73 74 79 82 82 81 81 81 82 83 79 75 76 75 76
88 89 91 88 83 87 87 90 94 97 98 99 98 98 97 98 96 92 79 77 73 74 85 86 81 79 79 78 72 75 78 81 84 84 85 85 86 86 82 77 77 75 74
84 94 88 91 94 96 93 89 92 94 96 96 97 97 98 98 96 92 95 82 68 67 68 78 87 84 84 80 78 75 76 80 83 84 86 86 87 88 84 80 77 75 73
89 94 93 95 91 96 95 94 94 95 96 96 94 95 97 97 98 98 94 87 82 68 65 73 72 80 89 84 80 78 76 78 81 83 86 86 87 88 86 81 79 74 73
94 98 96 94 95 97 97 93 94 92 95 95 98 96 97 95 94 94 95 92 86 71 64 63 66 68 69 87 84 80 78 77 79 82 84 85 85 86 86 81 80 76 73
90 90 94 96 94 97 92 92 95 97 95 96 97 97 91 87 96 95 95 92 92 81 76 63 55 56 58 60 77 83 80 78 76 79 82 85 85 86 85 84 79 79 75
90 92 94 94 94 96 95 92 93 94 95 83 85 94 92 93 95 93 97 94 90 88 83 75 67 58 54 57 64 75 84 80 78 76 78 83 85 84 84 83 80 80 79
88 89 90 93 95 95 96 94 92 93 93 96 93 88 92 91 91 84 67 82 87 91 87 83 75 64 56 54 63 70 78 85 79 75 74 77 83 80 79 80 82 81 81
84 83 85 86 90 93 94 95 96 96 95 91 94 94 94 90 86 92 91 75 66 74 88 83 79 74 65 60 62 63 79 80 80 77 72 72 77 79 77 78 82 81 84
76 74 80 84 86 84 86 90 91 93 95 96 94 94 93 95 95 96 96 92 87 76 86 86 83 78 75 71 68 71 80 80 77 73 69 70 74 76 77 77 80 84 84
71 69 67 68 72 78 86 86 92 94 96 96 97 93 89 90 90 91 91 91 93 83 87 87 83 78 75 75 73 78 83 85 82 76 67 69 68 73 78 78 80 83 85
68 64 64 65 64 64 71 78 92 92 93 96 95 93 91 89 89 92 94 96 92 84 88 80 96 92 88 82 78 82 78 88 84 83 77 67 69 79 83 79 79 80 84
42 55 59 59 60 58 62 70 78 83 87 92 95 94 92 85 89 88 87 91 97 96 91 93 99 94 93 96 92 88 89 86 92 85 86 85 91 92 93 86 81 80 84
49 50 52 54 56 55 59 67 70 69 71 80 79 78 79 85 88 88 90 91 89 96 96 88 91 92 90 87 94 99 96 99 99 96 94 95 95 93 95 92 92 93 94
48 46 46 47 48 49 56 65 66 66 68 69 71 70 71 72 87 86 85 87 88 93 94 87 89 88 90 91 93 91 96 98 97 99 98 98 96 97 98 98 97 96 95
50 48 48 49 49 50 52 61 63 65 67 66 64 69 66 60 76 80 82 85 85 88 92 93 86 91 90 95 96 96 96 95 98 98 98 97 97 98 99 98 97 96 96
53 52 51 53 54 54 52 59 61 65 67 66 67 64 64 70 72 76 82 86 86 83 89 92 91 87 91 90 93 96 98 98 96 97 94 96 96 98 98 98 98 98 98
55 55 54 55 57 56 52 52 59 66 71 68 69 68 67 68 72 77 77 80 83 90 84 86 88 89 88 84 90 95 91 90 94 94 95 96 96 97 96 96 97 98 98
56 57 58 60 62 56 46 63 66 68 71 73 72 67 67 68 60 61 60 78 83 89 91 89 88 88 87 87 90 86 89 87 87 99 98 98 96 97 98 98 99 99 99
60 62 64 67 69 51 56 55 58 70 72 74 75 74 73 64 67 65 66 63 63 82 88 93 94 92 86 94 92 96 95 95 93 94 89 91 94 96 97 96 98 99 99
66 67 67 70 71 71 57 57 55 64 73 74 77 78 70 57 73 70 68 67 72 69 67 81 92 91 96 90 85 87 91 95 92 84 88 90 93 94 93 93 95 96 99
64 69 71 72 75 62 60 55 55 69 73 76 77 76 77 77 75 64 71 80 83 84 83 77 86 88 91 87 87 82 86 89 91 89 92 97 95 99 96 94 92 95 97
72 75 76 78 79 78 61 58 63 78 75 76 70 72 74 74 66 61 67 85 85 86 71 68 68 69 69 67 69 84 94 98 93 85 86 92 93 98 98 95 92 92 95
69 75 72 74 65 73 68 61 64 79 79 77 80 77 68 64 64 63 73 80 87 85 85 89 92 87 81 84 70 85 97 98 91 85 94 94 99 99 99 97 98 97 98

GFSMA_sfc_rhum_117.txt.gz
RH
91 93 93 98 98 99 99 98 98 98 98 98 98 98 97 97 97 96 97 94 90 83 73 72 75 75 77 75 74 75 78 75 76 76 76 76 77 77 76 74 72 72 71
87 88 90 96 97 96 98 98 99 99 98 98 98 98 95 93 94 95 93 89 89 87 82 74 75 76 74 76 74 76 79 79 76 77 77 78 78 80 79 76 75 74 74
95 86 90 94 90 96 95 97 99 99 99 99 99 98 96 95 94 92 92 91 88 88 87 78 79 79 77 73 74 74 73 81 82 82 82 79 82 83 81 80 77 77 76
93 95 92 94 93 97 97 97 98 99 99 100 99 99 99 99 97 93 86 87 84 76 80 88 84 79 78 76 71 72 77 79 83 84 84 84 84 85 85 82 79 78 77
92 96 96 93 96 96 98 97 96 96 98 98 98 98 98 99 98 96 98 95 82 72 69 75 90 88 82 80 76 75 76 79 82 85 85 85 86 86 87 84 84 80 78
89 92 94 95 96 96 97 98 98 97 97 95 95 96 97 97 98 98 96 93 95 87 73 70 69 82 89 83 79 77 76 76 80 83 86 86 87 87 88 86 85 80 79
92 93 94 94 95 98 97 96 96 98 97 97 98 97 96 96 96 95 96 97 96 93 88 79 71 71 71 88 85 79 76 75 76 79 84 86 87 87 87 87 87 83 80
92 89 93 94 93 95 93 95 94 96 96 96 97 96 96 88 95 95 96 94 95 92 91 82 74 70 69 69 77 86 81 78 76 75 78 85 87 88 87 86 86 83 84
87 90 91 93 94 95 96 95 96 95 97 92 92 97 95 97 88 85 95 98 97 96 94 89 83 74 65 64 68 72 86 85 79 75 73 79 84 87 88 86 85 86 83
82 82 84 86 92 95 96 94 93 95 95 97 96 91 94 93 90 90 82 79 75 79 82 84 86 82 77 72 68 71 74 84 82 76 72 71 74 82 84 84 85 85 85
70 73 78 82 83 85 90 92 94 94 94 94 94 94 91 93 93 95 93 88 75 65 69 72 74 80 81 76 71 70 78 76 75 76 73 72 71 76 81 83 84 82 84
71 66 66 72 74 82 84 86 86 88 90 91 93 89 92 95 94 94 91 88 92 79 71 71 81 79 78 77 78 76 77 76 76 75 69 72 71 70 72 80 83 82 81
66 67 68 71 73 74 77 83 86 86 90 94 96 97 93 88 88 88 93 91 92 83 86 80 82 85 86 88 85 85 82 79 77 74 68 69 72 73 72 70 81 83 82
68 62 62 62 61 59 68 72 84 80 85 93 93 92 93 94 93 88 84 93 94 87 83 84 86 90 87 86 91 92 91 85 82 78 76 74 74 78 76 79 79 82 82
45 60 62 63 63 61 66 67 77 74 83 87 93 90 87 92 93 92 94 94 96 96 91 84 90 83 87 87 85 90 92 93 88 86 83 84 88 88 85 81 77 74 78
53 54 55 57 59 60 68 71 76 74 75 82 77 81 81 84 88 92 92 92 92 96 95 81 82 87 87 80 82 87 90 95 95 94 92 95 93 92 89 88 88 83 85
52 50 51 52 53 54 58 67 69 70 72 74 75 76 76 75 87 90 92 92 92 92 97 86 81 80 83 88 87 84 89 92 93 93 95 98 99 96 95 96 96 94 92
53 54 52 54 55 56 56 64 65 69 72 73 73 76 74 59 83 85 88 91 92 90 95 93 82 85 88 84 83 90 90 88 88 87 93 95 97 99 99 98 98 98 98
57 56 56 59 60 60 58 55 63 68 71 72 74 74 73 76 80 84 85 92 87 85 94 91 87 82 86 85 87 84 82 86 79 81 92 95 94 95 96 98 99 98 98
57 58 59 61 63 63 59 60 67 70 72 71 73 73 75 77 82 83 76 82 77 93 91 94 90 86 89 80 88 91 88 87 85 76 86 86 88 89 93 95 98 98 100
59 62 63 65 68 62 49 68 71 73 75 75 73 71 72 72 63 66 66 86 88 91 93 94 94 93 90 90 91 89 86 87 86 95 83 78 81 84 91 91 95 97 99
63 65 68 70 71 54 59 57 59 73 74 78 77 78 77 69 74 66 68 64 67 83 90 92 95 91 91 94 92 90 89 86 88 87 83 79 79 85 83 86 92 95 96
67 67 70 72 74 72 58 55 56 67 72 75 77 80 74 61 78 78 74 68 73 68 68 80 92 92 91 88 90 95 93 90 88 78 88 89 83 93 89 88 90 90 94
66 70 72 75 77 64 60 58 59 76 80 79 78 82 84 83 81 67 74 81 84 86 86 79 90 90 91 88 92 85 91 94 90 86 88 95 82 86 84 89 79 88 92
72 75 75 77 76 75 64 61 66 82 78 79 76 79 79 77 70 63 68 88 87 85 70 67 67 70 71 70 74 85 93 97 90 82 84 94 95 91 96 96 95 90 89
66 74 69 74 69 75 68 65 66 81 84 78 80 78 72 65 65 64 65 79 80 88 82 82 85 83 86 91 78 88 91 99 96 95 94 92 89 94 94 94 86 90 87